[[{"header":{"parameterUnit":"m.s-1","parameterCategory":1,"la1":31.0,"la2":29.5877,"lo1":-88.7671,"lo2":-86.6584,"dy":0.0162,"dx":0.0185,"nx":115,"ny":88,"refTime":"2023-10-17T12:00:00:Z","depth":0,"parameterNumber":2,"parameterNumberName":"U-component_of_WINDS"},"data":[0.0,0.0,0.0,0.0,0.0,0.0,0.0,0.0,0.0,0.0,0.0,0.0,0.0,0.0,0.0,0.0,0.0,0.0,0.0,0.0,0.0,0.0,0.0,0.0,0.0,0.0,0.0,0.0,0.0,0.0,0.0,0.0,0.0,0.0,0.0,0.0,0.0,0.0,0.0,0.0,0.0,0.0,0.0,0.0,0.0,0.0,0.0,0.0,0.0,0.0,0.0,0.0,0.0,0.0,0.0,0.0,0.0,0.0,0.0,0.0,0.0,0.0,0.0,0.0,0.0,0.0,0.0,0.0,0.0,0.0,0.0,0.0,0.0,0.0,0.0,0.0,0.0,0.0,0.0,0.0,0.0,0.0,0.0,0.0,0.0,0.0,0.0,0.0,0.0,0.0,0.0,0.0,0.0,0.0,0.0,0.0,0.0,0.0,0.0,0.0,0.0,0.0,0.0,0.0,0.0,0.0,0.0,0.0,0.0,0.0,0.0,0.0,0.0,0.0,0.0,0.0,0.0,0.0,0.0,0.0,0.0,0.0,0.0,0.0,0.0,0.0,0.0,0.0,0.0,0.0,0.0,0.0,0.0,0.0,0.0,0.0,0.0,0.0,0.0,0.0,0.0,0.0,0.0,0.0,0.0,0.0,0.0,0.0,0.0,0.0,0.0,0.0,0.0,0.0,0.0,0.0,0.0,0.0,0.0,0.0,0.0,0.0,0.0,0.0,0.0,0.0,0.0,0.0,0.0,0.0,0.0,0.0,0.0,0.0,0.0,0.0,0.0,0.0,0.0,0.0,0.0,0.0,0.0,0.0,0.0,0.0,0.0,0.0,0.0,0.0,0.0,0.0,0.0,0.0,0.0,0.0,0.0,0.0,0.0,0.0,0.0,0.0,0.0,0.0,0.0,0.0,0.0,0.0,0.0,0.0,0.0,0.0,0.0,0.0,0.0,0.0,0.0,0.0,0.0,0.0,0.0,0.0,0.0,0.0,0.0,0.0,0.0,0.0,0.0,0.0,0.0,0.0,0.0,0.0,0.0,0.0,0.0,0.0,0.0,0.0,0.0,0.0,0.0,0.0,0.0,0.0,0.0,0.0,0.0,0.0,0.0,0.0,0.0,0.0,0.0,0.0,0.0,0.0,0.0,0.0,0.0,0.0,0.0,0.0,0.0,0.0,0.0,0.0,0.0,0.0,0.0,0.0,0.0,0.0,0.0,0.0,0.0,0.0,0.0,0.0,0.0,0.0,0.0,0.0,0.0,0.0,0.0,0.0,0.0,0.0,0.0,0.0,0.0,0.0,0.0,0.0,0.0,0.0,0.0,0.0,0.0,0.0,0.0,0.0,0.0,0.0,0.0,0.0,0.0,0.0,0.0,0.0,0.0,0.0,0.0,0.0,0.0,0.0,0.0,0.0,0.0,0.0,0.0,0.0,0.0,0.0,0.0,0.0,0.0,0.0,0.0,0.0,0.0,0.0,0.0,0.0,0.0,0.0,0.0,0.0,0.0,0.0,0.0,0.0,0.0,0.0,0.0,0.0,0.0,0.0,0.0,0.0,0.0,0.0,0.0,0.0,0.0,0.0,0.0,0.0,0.0,0.0,0.0,0.0,0.0,0.0,0.0,0.0,0.0,0.0,0.0,0.0,0.0,0.0,0.0,0.0,0.0,0.0,0.0,0.0,0.0,0.0,0.0,0.0,0.0,0.0,0.0,0.0,0.0,0.0,0.0,0.0,0.0,0.0,0.0,0.0,0.0,0.0,0.0,0.0,0.0,0.0,0.0,0.0,0.0,0.0,0.0,0.0,0.0,0.0,0.0,0.0,0.0,0.0,0.0,0.0,0.0,0.0,0.0,0.0,0.0,0.0,0.0,0.0,0.0,0.0,0.0,0.0,0.0,0.0,0.0,0.0,0.0,0.0,0.0,0.0,0.0,0.0,0.0,0.0,0.0,0.0,0.0,0.0,0.0,0.0,0.0,0.0,0.0,0.0,0.0,0.0,0.0,0.0,0.0,0.0,0.0,0.0,0.0,0.0,0.0,0.0,0.0,0.0,0.0,0.0,0.0,0.0,0.0,0.0,0.0,0.0,0.0,0.0,0.0,0.0,0.0,0.0,0.0,0.0,0.0,0.0,0.0,0.0,0.0,0.0,0.0,0.0,0.0,0.0,0.0,0.0,0.0,0.0,0.0,0.0,0.0,0.0,0.0,0.0,0.0,0.0,0.0,0.0,0.0,0.0,0.0,0.0,0.0,0.0,0.0,0.0,0.0,0.0,0.0,0.0,0.0,0.0,0.0,0.0,0.0,0.0,0.0,0.0,0.0,0.0,0.0,0.0,0.0,0.0,0.0,0.0,0.0,0.0,0.0,0.0,0.0,0.0,0.0,0.0,0.0,0.0,0.0,0.0,0.0,0.0,0.0,0.0,0.0,0.0,0.0,0.0,0.0,0.0,0.0,0.0,0.0,0.0,0.0,0.0,0.0,0.0,0.0,0.0,0.0,0.0,0.0,0.0,0.0,0.0,0.0,0.0,0.0,0.0,0.0,0.0,0.0,0.0,0.0,0.0,0.0,0.0,0.0,0.0,0.0,0.0,0.0,0.0,0.0,0.0,0.0,0.0,0.0,0.0,0.0,0.0,0.0,0.0,0.0,0.0,0.0,0.0,0.0,0.0,0.0,0.0,0.0,0.0,0.0,0.0,0.0,0.0,0.0,0.0,0.0,0.0,0.0,0.0,0.0,0.0,0.0,0.0,0.0,0.0,0.0,0.0,0.0,0.0,0.0,0.0,0.0,0.0,0.0,0.0,0.0,0.0,0.0,0.0,0.0,0.0,0.0,0.0,0.0,0.0,0.0,0.0,0.0,0.0,0.0,0.0,0.0,0.0,0.0,0.0,0.0,0.0,0.0,0.0,0.0,0.0,0.0,0.0,0.0,0.0,0.0,0.0,0.0,0.0,0.0,0.0,0.0,0.0,0.0,0.0,0.0,0.0,0.0,0.0,0.0,0.0,0.0,0.0,0.0,0.0,0.0,0.0,0.0,0.0,0.0,0.0,0.0,0.0,0.0,0.0,0.0,0.0,0.0,0.0,0.0,0.0,0.0,0.0,0.0,0.0,0.0,0.0,0.0,0.0,0.0,0.0,0.0,0.0,0.0,0.0,0.0,0.0,0.0,0.0,0.0,0.0,0.0,0.0,0.0,0.0,0.0,0.0,0.0,0.0,0.0,0.0,0.0,0.0,0.0,0.0,0.0,0.0,0.0,0.0,0.0,0.0,0.0,0.0,0.0,0.0,0.0,0.0,0.0,0.0,0.0,0.0,0.0,0.0,0.0,0.0,0.0,0.0,0.0,0.0,0.0,0.0,0.0,0.0,0.0,0.0,0.0,0.0,0.0,0.0,0.0,0.0,0.0,0.0,0.0,0.0,0.0,0.0,0.0,0.0,0.0,0.0,0.0,0.0,0.0,0.0,0.0,0.0,0.0,0.0,0.0,0.0,0.0,0.0,0.0,0.0,0.0,0.0,0.0,0.0,0.0,0.0,0.0,0.0,0.0,0.0,0.0,0.0,0.0,0.0,0.0,0.0,0.0,0.0,0.0,0.0,0.0,0.0,0.0,0.0,0.0,0.0,0.0,0.0,0.0,0.0,0.0,0.0,0.0,0.0,0.0,0.0,0.0,0.0,0.0,0.0,0.0,0.0,0.0,0.0,0.0,0.0,0.0,0.0,0.0,0.0,0.0,0.0,0.0,0.0,0.0,0.0,0.0,0.0,0.0,0.0,0.0,0.0,0.0,0.0,0.0,0.0,0.0,0.0,0.0,0.0,0.0,0.0,0.0,0.0,0.0,0.0,0.0,0.0,0.0,0.0,0.0,0.0,0.0,0.0,0.0,0.0,0.0,0.0,0.0,0.0,0.0,0.0,0.0,0.0,0.0,0.0,0.0,0.0,0.0,0.0,0.0,0.0,0.0,0.0,0.0,0.0,0.0,0.0,0.0,0.0,0.0,0.0,0.0,0.0,0.0,0.0,0.0,0.0,0.0,0.0,0.0,0.0,0.0,0.0,0.0,0.0,0.0,0.0,0.0,0.0,0.0,0.0,0.0,0.0,0.0,0.0,0.0,0.0,0.0,0.0,0.0,0.0,0.0,0.0,0.0,0.0,0.0,0.0,0.0,0.0,0.0,0.0,0.0,0.0,0.0,0.0,0.0,0.0,0.0,0.0,0.0,0.0,0.0,0.0,0.0,0.0,0.0,0.0,0.0,0.0,0.0,0.0,0.9717,0.0,0.0,0.0,0.0,0.0,0.0,0.0,0.0,0.0,0.0,0.0,0.0,0.0,0.0,0.0,0.0,0.0,0.0,0.0,0.0,0.0,0.0,0.0,0.0,0.0,0.0,0.0,0.0,0.0,0.0,0.0,0.0,0.0,0.0,0.0,0.0,0.0,0.0,0.0,0.0,0.0,0.0,0.0,0.0,0.0,0.0,0.0,0.0,0.0,0.0,0.0,0.0,0.0,0.0,0.0,0.0,0.0,0.0,0.0,0.0,0.0,0.0,0.0,0.0,0.0,0.0,0.0,0.0,0.0,0.0,0.0,0.0,0.0,0.0,0.0,0.0,0.0,0.0,0.0,0.0,0.0,0.0,0.0,0.0,0.0,0.0,0.0,0.0,0.0,0.0,0.0,0.0,0.0,0.0,0.0,0.0,0.0,0.0,0.0,0.0,0.0,0.0,0.0,0.0,0.0,0.0,0.0,0.0,0.0,0.0,0.9912,0.9867,0.9944,0.9931,0.9815,0.0,0.0,0.0,0.0,0.0,0.0,0.0,0.0,0.0,0.0,0.0,0.0,0.0,0.0,0.0,0.0,0.0,0.0,0.0,0.0,0.0,0.0,0.0,0.0,0.0,0.0,0.0,0.0,0.0,0.0,0.0,0.0,0.0,0.0,0.0,0.0,0.0,0.0,0.0,0.0,0.0,0.0,0.0,0.0,0.0,0.0,0.0,0.0,0.0,0.0,0.0,0.0,0.0,0.0,0.0,0.0,0.0,0.0,0.0,0.0,0.0,0.0,0.0,0.0,0.0,0.0,0.0,0.0,0.0,0.0,0.0,0.0,0.0,0.0,0.0,0.0,0.0,0.0,0.0,0.0,0.0,0.0,0.0,0.0,0.0,0.0,0.0,0.0,0.0,0.0,0.0,0.0,0.0,0.0,0.0,0.0,0.0,0.0,0.0,0.0,0.0,0.0,0.0,0.0,0.0,0.0,0.0,0.0,0.0,0.0,0.0,0.0,1.0336,1.0329,1.0262,0.0,0.0,0.0,0.0,0.0,0.0,0.0,0.0,0.0,0.0,0.0,0.0,0.0,0.0,0.0,0.0,0.0,0.0,0.0,0.0,0.0,0.0,0.0,0.0,0.0,0.0,0.0,0.0,0.0,0.0,0.0,0.0,0.0,0.0,0.0,0.0,0.0,0.0,0.0,0.0,0.0,0.0,0.0,0.0,0.0,0.0,0.0,0.0,0.0,0.0,0.0,0.0,0.0,0.0,0.0,0.0,0.0,0.0,0.0,0.0,0.0,0.0,0.0,0.0,0.0,0.0,0.0,0.0,0.0,0.0,0.0,0.0,0.0,0.0,0.0,0.0,0.0,0.0,0.0,0.0,0.0,0.0,0.0,0.0,0.0,0.0,0.0,0.0,0.0,0.0,0.0,0.0,0.0,0.0,0.0,0.0,0.0,0.0,0.0,0.0,0.0,0.0,0.0,0.0,0.0,0.0,0.0,0.0,0.0,0.0,1.0556,1.134,1.1584,0.0,1.137,0.0,0.0,0.0,0.0,0.0,0.0,0.0,0.0,0.0,0.0,0.0,0.0,0.0,0.0,0.0,0.0,0.0,0.0,0.0,0.0,0.0,0.0,0.0,0.0,0.0,0.0,0.0,0.0,0.0,0.0,0.0,0.0,0.0,0.0,0.0,0.0,0.0,0.0,0.0,0.0,0.0,0.0,0.0,0.0,0.0,0.0,0.0,0.0,0.0,0.0,0.0,0.0,0.0,0.0,0.0,0.0,0.0,0.0,0.0,0.0,0.0,0.0,0.0,0.0,0.0,0.0,0.0,0.0,0.0,0.0,0.0,0.0,0.0,0.0,0.0,0.0,0.0,0.0,0.0,0.0,0.0,0.0,0.0,0.0,0.0,0.0,0.0,0.0,0.0,0.0,0.0,0.0,0.0,0.0,0.0,0.0,0.0,0.0,0.0,0.0,0.0,0.0,0.0,0.0,0.0,0.0,0.0,0.0,0.0,0.0,1.1299,1.1737,1.1685,1.161,0.0,0.0,0.0,0.0,0.0,0.0,0.0,0.0,0.0,0.0,0.0,0.0,0.0,0.0,0.0,0.0,0.0,0.0,0.0,0.0,0.0,0.0,0.0,0.0,0.0,0.0,0.0,0.0,0.0,0.0,0.0,0.0,0.0,0.0,0.0,0.0,0.0,0.0,0.0,0.0,0.0,0.0,0.0,0.0,0.0,0.0,0.0,0.0,0.0,0.0,0.0,0.0,0.0,0.0,0.0,0.0,0.0,0.0,0.0,0.0,0.0,0.0,0.0,0.0,0.0,0.0,0.0,0.0,0.0,0.0,0.0,0.0,0.0,0.0,0.0,0.0,0.0,0.0,0.0,0.0,0.0,0.0,0.0,0.0,0.0,0.0,0.0,0.0,0.0,0.0,0.0,0.0,0.0,0.0,0.0,0.0,0.0,0.0,0.0,0.0,0.0,0.0,0.0,0.0,0.0,0.0,0.0,0.0,0.0,0.0,1.1567,1.1952,1.2321,1.1895,1.1583,1.1449,0.0,0.0,0.0,0.0,0.0,0.0,0.0,0.0,0.0,0.0,0.0,0.0,0.0,0.0,0.0,0.0,0.0,0.0,0.0,0.0,0.0,0.0,0.0,0.0,0.0,0.0,0.0,0.0,0.0,0.0,0.0,0.0,0.0,0.0,0.0,0.0,0.0,0.0,0.0,0.0,0.0,0.0,0.0,0.0,0.0,0.0,0.0,0.0,0.0,0.0,0.0,0.0,0.0,0.0,0.0,0.0,0.0,0.0,0.0,0.0,0.0,0.0,0.0,0.0,0.0,0.0,0.0,0.0,0.0,0.0,0.0,0.0,0.0,0.0,0.0,0.0,0.0,0.0,0.0,0.0,0.0,0.0,0.0,0.0,0.0,0.0,0.0,0.0,0.0,0.0,0.0,0.0,0.0,0.0,0.0,0.0,0.0,0.0,0.0,0.0,0.0,0.0,0.0,0.0,0.0,0.0,0.0,0.0,1.3435,1.2468,1.2427,1.346,1.2523,1.1773,0.0,0.0,0.0,0.0,0.0,0.0,0.0,0.0,0.0,0.0,0.0,0.0,0.0,0.0,0.0,0.0,0.0,0.0,0.0,0.0,0.0,0.0,0.0,0.0,0.0,0.0,0.0,0.0,0.0,0.0,0.0,0.0,0.0,0.0,0.0,0.0,0.0,0.0,0.0,0.0,0.0,0.0,0.0,0.0,0.0,0.0,0.0,0.0,0.0,0.0,0.0,0.0,0.0,0.0,0.0,0.0,0.0,0.0,0.0,0.0,0.0,0.0,0.0,0.0,0.0,0.0,0.0,0.0,0.0,0.0,0.0,0.0,0.0,0.0,0.0,0.0,0.0,0.0,0.0,0.0,0.0,0.0,0.0,0.0,0.0,0.0,0.0,0.0,0.0,0.0,0.0,0.0,0.0,0.0,0.0,0.0,0.0,0.0,0.0,0.0,0.0,0.0,0.0,0.0,0.0,0.0,0.0,0.0,0.0,1.1519,1.1816,1.2667,1.4046,1.2611,1.1838,0.0,0.0,0.0,0.0,0.0,0.0,0.0,0.0,0.0,0.0,0.0,0.0,0.0,0.0,0.0,0.0,0.0,0.0,0.0,0.0,0.0,0.0,0.0,0.0,0.0,0.0,0.0,0.0,0.0,0.0,0.0,0.0,0.0,0.0,0.0,0.0,0.0,0.0,0.0,0.0,0.0,0.0,0.0,0.0,0.0,0.0,0.0,0.0,0.0,0.0,0.0,0.0,0.0,0.0,0.0,0.0,0.0,0.0,0.0,0.0,0.0,0.0,0.0,0.0,0.0,0.0,0.0,0.0,0.0,0.0,0.0,0.0,0.0,0.0,0.0,0.0,0.0,0.0,0.0,0.0,0.0,0.0,0.0,0.0,0.0,0.0,0.0,0.0,0.0,0.0,0.0,0.0,0.0,0.0,0.0,0.0,0.0,0.0,0.0,0.0,0.0,0.0,0.0,0.0,0.0,0.0,0.0,0.0,0.0,1.099,0.0,1.281,1.3736,1.2288,1.1495,0.0,0.0,0.0,0.0,0.0,0.0,0.0,0.0,0.0,0.0,0.0,0.0,0.0,0.0,0.0,0.0,0.0,0.0,0.0,0.0,0.0,0.0,0.0,0.0,0.0,0.0,0.0,0.0,0.0,0.0,0.0,0.0,0.0,0.0,0.0,0.0,0.0,0.0,0.0,0.0,0.0,0.0,0.0,0.0,0.0,0.0,0.0,0.0,0.0,0.0,0.0,0.0,0.0,0.0,0.0,0.0,0.0,0.0,0.0,0.0,0.0,0.0,0.0,0.0,0.0,0.0,0.0,0.0,0.0,0.0,0.0,0.0,0.0,0.0,0.0,0.0,0.0,0.0,0.0,0.0,0.0,0.0,0.0,0.0,0.0,0.0,0.0,0.0,0.0,0.0,0.0,0.0,0.0,0.0,0.0,0.0,0.0,0.0,0.0,0.0,0.0,0.0,0.0,0.0,0.0,0.0,0.0,0.0,1.092,1.2291,1.2663,1.2754,1.2501,1.1634,1.0746,0.0,0.0,0.0,0.0,0.0,0.0,0.0,0.0,0.0,0.0,0.0,0.0,0.0,0.0,0.0,0.0,0.0,0.0,0.0,0.0,0.0,0.0,0.0,0.0,0.0,0.0,0.0,0.0,0.0,0.0,0.0,0.0,0.0,0.0,0.0,0.0,0.0,0.0,0.0,0.0,0.0,0.0,0.0,0.0,0.0,0.0,0.0,0.0,0.0,0.0,0.0,0.0,0.0,0.0,0.0,0.0,0.0,0.0,0.0,0.0,0.0,0.0,0.0,0.0,0.0,0.0,0.0,0.0,0.0,0.0,0.0,0.0,0.0,0.0,0.0,0.0,0.0,0.0,0.0,0.0,0.0,0.0,0.0,0.0,0.0,0.0,0.0,0.0,0.0,0.0,0.0,0.0,0.0,0.0,0.0,0.0,0.0,0.0,0.0,0.0,0.0,0.0,0.0,0.0,0.0,0.0,0.0,0.0,0.0,1.1636,1.205,1.2555,1.304,1.1572,1.0944,0.0,0.0,0.0,0.0,0.0,0.0,0.0,0.0,0.0,0.0,0.0,0.0,0.0,0.0,0.0,0.0,0.0,0.0,0.0,0.0,0.0,0.0,0.0,0.0,0.0,0.0,0.0,0.0,0.0,0.0,0.0,0.0,0.0,0.0,0.0,0.0,0.0,0.0,0.0,0.0,0.0,0.0,0.0,0.0,0.0,0.0,0.0,0.0,0.0,0.0,0.0,0.0,0.0,0.0,0.0,0.0,0.0,0.0,0.0,0.0,0.0,0.0,0.0,0.0,0.0,0.0,0.0,0.0,0.0,0.0,0.0,0.0,0.0,0.0,0.0,0.0,0.0,0.0,0.0,0.0,0.0,0.0,0.0,0.0,0.0,0.0,0.0,0.0,0.0,0.0,0.0,0.0,0.0,0.0,0.0,0.0,0.0,0.0,0.0,0.0,0.0,0.0,0.0,0.0,0.0,0.0,0.0,0.0,0.0,1.1665,1.2164,1.2654,1.3088,1.1727,1.1236,1.1676,0.0,0.0,0.0,0.0,0.0,0.0,0.0,0.0,0.0,0.0,0.0,0.0,0.0,0.0,0.0,0.0,0.0,0.0,0.0,0.0,0.0,0.0,0.0,0.0,0.0,0.0,0.0,0.0,0.0,0.0,0.0,0.0,0.0,0.0,0.0,0.0,0.0,0.0,0.0,0.0,0.0,0.0,0.0,0.0,0.0,0.0,0.0,0.0,0.0,0.0,0.0,0.0,0.0,0.0,0.0,0.0,0.0,0.0,0.0,0.0,0.0,0.0,0.0,0.0,0.0,0.0,0.0,0.0,0.0,0.0,0.0,0.0,0.0,0.0,0.0,0.0,0.0,0.0,0.0,0.0,0.0,0.0,0.0,0.0,0.0,0.0,0.0,0.0,0.0,0.0,0.0,0.0,0.0,0.0,0.0,0.0,0.0,0.0,0.0,0.0,0.0,0.0,0.0,0.0,0.0,0.0,0.0,0.0,1.2246,1.2933,1.3123,1.2746,1.2119,1.1667,0.0,0.0,0.0,0.0,0.0,0.0,0.0,0.0,0.0,0.0,0.0,0.0,0.0,0.0,0.0,0.0,0.0,0.0,0.0,0.0,0.0,0.0,0.0,0.0,0.0,0.0,0.0,0.0,0.0,0.0,0.0,0.0,0.0,0.0,0.0,0.0,0.0,0.0,0.0,0.0,0.0,0.0,0.0,0.0,0.0,0.0,0.0,0.0,0.0,0.0,0.0,0.0,0.0,0.0,0.0,0.0,0.0,0.0,0.0,0.0,0.0,0.0,0.0,0.0,0.0,0.0,0.0,0.0,0.0,0.0,0.0,0.0,0.0,0.0,0.0,0.0,0.0,0.0,0.0,0.0,0.0,0.0,0.0,0.0,0.0,0.0,0.0,0.0,0.0,0.0,0.0,0.0,0.0,0.0,0.0,0.0,0.0,0.0,0.0,0.0,0.0,0.0,0.0,0.0,0.0,0.0,0.0,0.0,0.0,1.2914,1.3897,1.4339,1.4071,1.3308,1.2807,0.0,0.0,0.0,0.0,0.0,0.0,0.0,0.0,0.0,0.0,0.0,0.0,0.0,0.0,0.0,0.0,0.0,0.0,0.0,0.0,0.0,0.0,0.0,0.0,0.0,0.0,0.0,0.0,0.0,0.0,0.0,0.0,0.0,0.0,0.0,0.0,0.0,0.0,0.0,0.0,0.0,0.0,0.0,0.0,0.0,0.0,0.0,0.0,0.0,0.0,0.0,0.0,0.0,0.0,0.0,0.0,0.0,0.0,0.0,0.0,0.0,0.0,0.0,0.0,0.0,0.0,0.0,0.0,0.0,0.0,0.0,0.0,0.0,0.0,0.0,0.0,0.0,0.0,0.0,0.0,0.0,0.0,0.0,0.0,0.0,0.0,0.0,0.0,0.0,0.0,0.0,0.0,0.0,0.0,0.0,0.0,0.0,0.0,0.0,0.0,0.0,0.0,0.0,0.0,0.0,0.0,0.0,0.0,1.3108,1.3358,1.4325,1.4803,1.4677,1.4007,1.3464,0.0,0.0,0.0,0.0,0.0,0.0,0.0,0.0,0.0,0.0,0.0,0.0,0.0,0.0,0.0,0.0,0.0,0.0,0.0,0.0,0.0,0.0,0.0,0.0,0.0,0.0,0.0,0.0,0.0,0.0,0.0,0.0,0.0,0.0,0.0,0.0,0.0,0.0,0.0,0.0,0.0,0.0,0.0,0.0,0.0,0.0,0.0,0.0,0.0,0.0,0.0,0.0,0.0,0.0,0.0,0.0,0.0,0.0,0.0,0.0,0.0,0.0,0.0,0.0,0.0,0.0,0.0,0.0,0.0,0.0,0.0,0.0,0.0,0.0,0.0,0.0,0.0,0.0,0.0,0.0,0.0,0.0,0.0,0.0,0.0,0.0,0.0,0.0,0.0,0.0,0.0,0.0,0.0,0.0,0.0,0.0,0.0,0.0,0.0,0.0,0.0,0.0,0.0,0.0,0.0,0.0,0.0,0.0,1.2997,1.3853,1.4513,1.4858,1.4866,1.4472,1.3941,0.0,0.0,0.0,0.0,0.0,0.0,0.0,0.0,0.0,0.0,0.0,0.0,0.0,0.0,0.0,0.0,0.0,0.0,0.0,0.0,0.0,0.0,0.0,0.0,0.0,0.0,0.0,0.0,0.0,0.0,0.0,0.0,0.0,0.0,0.0,0.0,0.0,0.0,0.0,0.0,0.0,0.0,0.0,0.0,0.0,0.0,0.0,0.0,0.0,0.0,0.0,0.0,0.0,0.0,0.0,0.0,0.0,0.0,0.0,0.0,0.0,0.0,0.0,0.0,0.0,0.0,0.0,0.0,0.0,0.0,0.0,0.0,0.0,0.0,0.0,0.0,0.0,0.0,0.0,0.0,0.0,0.0,0.0,0.0,0.0,0.0,0.0,0.0,0.0,0.0,0.0,0.0,0.0,0.0,0.0,0.0,0.0,0.0,0.0,0.0,0.0,0.0,0.0,0.0,0.0,0.0,0.0,0.0,1.4226,1.4854,1.514,1.5273,1.5273,1.5231,1.4953,0.0,0.0,0.0,0.0,0.0,0.0,0.0,0.0,0.0,0.0,0.0,0.0,0.0,0.0,0.0,0.0,0.0,0.0,0.0,0.0,0.0,0.0,0.0,0.0,0.0,0.0,0.0,0.0,0.0,0.0,0.0,0.0,0.0,0.0,0.0,0.0,0.0,0.0,0.0,0.0,0.0,0.0,0.0,0.0,0.0,0.0,0.0,0.0,1.431,0.0,0.0,0.0,0.0,0.0,0.0,0.0,0.0,0.0,0.0,0.0,0.0,0.0,0.0,0.0,0.0,0.0,0.0,0.0,0.0,0.0,0.0,0.0,0.0,0.0,0.0,0.0,0.0,0.0,0.0,0.0,0.0,0.0,0.0,0.0,0.0,0.0,0.0,0.0,0.0,0.0,0.0,0.0,0.0,0.0,0.0,0.0,0.0,0.0,0.0,0.0,0.0,0.0,0.0,0.0,0.0,0.0,0.0,0.0,1.4617,1.5261,1.5363,1.542,1.5405,1.544,1.5221,0.0,0.0,0.0,0.0,0.0,0.0,0.0,0.0,0.0,0.0,0.0,0.0,0.0,0.0,0.0,0.0,0.0,0.0,0.0,0.0,0.0,0.0,0.0,0.0,0.0,0.0,0.0,0.0,0.0,0.0,0.0,0.0,0.0,0.0,0.0,0.0,0.0,0.0,0.0,0.0,0.0,0.0,0.0,0.0,0.0,0.0,0.0,0.0,0.0,0.0,0.0,0.0,0.0,0.0,0.0,0.0,0.0,0.0,0.0,0.0,0.0,0.0,0.0,0.0,0.0,0.0,0.0,0.0,0.0,0.0,0.0,0.0,0.0,0.0,0.0,0.0,0.0,0.0,0.0,0.0,0.0,0.0,0.0,0.0,0.0,0.0,0.0,0.0,0.0,0.0,0.0,0.0,0.0,0.0,0.0,0.0,0.0,0.0,0.0,0.0,0.0,0.0,0.0,0.0,0.0,0.0,0.0,1.4092,1.4737,1.5477,1.5575,1.56,1.5596,1.5601,1.5388,1.4949,0.0,0.0,0.0,0.0,0.0,0.0,0.0,0.0,0.0,0.0,0.0,0.0,0.0,0.0,0.0,0.0,0.0,0.0,0.0,0.0,0.0,0.0,0.0,0.0,0.0,0.0,0.0,0.0,0.0,0.0,0.0,0.0,0.0,0.0,0.0,0.0,0.0,0.0,1.3647,1.5321,0.0,0.0,0.0,0.0,0.0,0.0,0.0,0.0,1.5874,0.0,0.0,0.0,0.0,0.0,0.0,0.0,0.0,0.0,0.0,0.0,0.0,0.0,0.0,0.0,0.0,0.0,0.0,0.0,0.0,0.0,0.0,0.0,0.0,0.0,0.0,0.0,0.0,0.0,0.0,0.0,0.0,0.0,0.0,0.0,0.0,0.0,0.0,0.0,0.0,0.0,0.0,0.0,0.0,0.0,0.0,0.0,0.0,0.0,0.0,0.0,0.0,0.0,0.0,0.0,0.0,1.4117,1.4527,1.5113,1.5969,1.632,1.6482,1.6488,1.6538,1.6402,1.5985,0.0,0.0,0.0,0.0,0.0,0.0,0.0,0.0,0.0,0.0,0.0,0.0,0.0,0.0,0.0,0.0,0.0,0.0,0.0,0.0,0.0,0.0,0.0,0.0,0.0,0.0,0.0,0.0,0.0,0.0,0.0,0.0,0.0,0.0,0.0,0.0,0.0,0.0,0.0,1.6795,1.7649,0.0,0.0,0.0,0.0,0.0,0.0,0.0,0.0,1.6592,0.0,0.0,0.0,0.0,0.0,0.0,0.0,0.0,0.0,0.0,0.0,0.0,0.0,0.0,0.0,0.0,0.0,0.0,0.0,0.0,0.0,0.0,0.0,0.0,0.0,0.0,0.0,0.0,0.0,0.0,0.0,0.0,0.0,0.0,0.0,0.0,0.0,0.0,0.0,0.0,0.0,0.0,0.0,0.0,0.0,0.0,0.0,0.0,0.0,0.0,0.0,0.0,0.0,0.0,0.0,1.4206,1.5182,1.5923,1.6392,1.6605,1.6697,1.6687,1.6432,1.6243,0.0,0.0,0.0,0.0,0.0,0.0,0.0,0.0,0.0,0.0,0.0,0.0,0.0,0.0,0.0,0.0,0.0,0.0,0.0,0.0,0.0,0.0,0.0,0.0,0.0,0.0,0.0,0.0,0.0,0.0,0.0,0.0,0.0,0.0,0.0,0.0,0.0,0.0,0.0,0.0,1.7828,1.8661,1.9168,0.0,0.0,0.0,0.0,0.0,0.0,1.7854,1.7582,0.0,0.0,0.0,0.0,0.0,0.0,0.0,0.0,0.0,0.0,0.0,0.0,0.0,0.0,0.0,0.0,0.0,0.0,0.0,0.0,0.0,0.0,0.0,0.0,0.0,0.0,0.0,0.0,0.0,0.0,0.0,0.0,0.0,0.0,0.0,0.0,0.0,0.0,0.0,0.0,0.0,0.0,0.0,0.0,0.0,0.0,0.0,0.0,0.0,0.0,0.0,0.0,0.0,0.0,0.0,1.4184,1.5681,1.659,1.6836,1.6911,1.696,1.6941,1.6507,1.6253,0.0,0.0,0.0,0.0,0.0,0.0,0.0,0.0,0.0,0.0,0.0,0.0,0.0,0.0,0.0,0.0,0.0,0.0,0.0,0.0,0.0,0.0,0.0,0.0,0.0,0.0,0.0,0.0,0.0,0.0,0.0,0.0,0.0,0.0,0.0,0.0,0.0,0.0,0.0,0.0,0.0,1.9777,2.0149,1.9468,0.0,0.0,0.0,0.0,1.8392,1.8625,0.0,0.0,0.0,0.0,0.0,0.0,0.0,0.0,0.0,0.0,0.0,0.0,0.0,0.0,0.0,0.0,0.0,0.0,0.0,0.0,0.0,0.0,0.0,0.0,0.0,0.0,0.0,0.0,0.0,0.0,0.0,0.0,0.0,0.0,0.0,0.0,0.0,0.0,0.0,0.0,0.0,0.0,0.0,0.0,0.0,0.0,0.0,0.0,0.0,0.0,0.0,0.0,0.0,0.0,0.0,0.0,1.4297,1.5687,1.6727,1.7308,1.7666,1.7844,1.7852,1.784,1.7463,0.0,0.0,0.0,0.0,0.0,0.0,0.0,0.0,0.0,0.0,0.0,0.0,0.0,0.0,0.0,0.0,0.0,0.0,0.0,0.0,0.0,0.0,0.0,0.0,0.0,0.0,0.0,0.0,0.0,0.0,0.0,0.0,0.0,0.0,0.0,0.0,0.0,0.0,0.0,0.0,0.0,2.0924,2.0295,1.9513,1.9313,0.0,0.0,1.9388,1.9789,1.956,0.0,0.0,0.0,0.0,0.0,0.0,0.0,0.0,0.0,0.0,0.0,0.0,0.0,0.0,0.0,0.0,0.0,0.0,0.0,0.0,0.0,0.0,0.0,0.0,0.0,0.0,0.0,0.0,0.0,0.0,0.0,0.0,0.0,0.0,0.0,0.0,0.0,0.0,0.0,0.0,0.0,0.0,0.0,0.0,0.0,0.0,0.0,0.0,0.0,0.0,0.0,0.0,0.0,0.0,0.0,1.4236,1.4989,1.6517,1.7455,1.7725,1.792,1.8008,1.8008,1.7701,1.7257,0.0,0.0,0.0,0.0,0.0,0.0,0.0,0.0,0.0,0.0,0.0,0.0,0.0,0.0,0.0,0.0,0.0,0.0,0.0,0.0,0.0,0.0,0.0,0.0,0.0,0.0,0.0,0.0,0.0,0.0,0.0,0.0,0.0,0.0,0.0,0.0,0.0,0.0,0.0,0.0,0.0,0.0,2.1367,2.0942,0.0,0.0,0.0,2.0746,2.0879,0.0,0.0,0.0,0.0,0.0,0.0,0.0,0.0,0.0,0.0,0.0,0.0,0.0,0.0,0.0,0.0,0.0,0.0,0.0,0.0,0.0,0.0,0.0,0.0,0.0,0.0,0.0,0.0,0.0,0.0,0.0,0.0,0.0,0.0,0.0,0.0,0.0,0.0,0.0,0.0,0.0,0.0,0.0,0.0,0.0,0.0,0.0,0.0,0.0,0.0,0.0,0.0,0.0,0.0,0.0,0.0,0.0,1.5345,1.7094,1.8008,1.8008,1.8008,1.8008,1.8005,1.7675,0.0,0.0,0.0,0.0,0.0,0.0,0.0,0.0,0.0,0.0,0.0,0.0,0.0,0.0,0.0,0.0,0.0,0.0,0.0,0.0,0.0,0.0,0.0,0.0,0.0,0.0,0.0,1.4393,0.0,0.0,0.0,0.0,0.0,0.0,0.0,0.0,0.0,0.0,0.0,0.0,0.0,0.0,2.1364,2.1778,2.1824,2.1983,0.0,0.0,2.1915,2.1648,2.1695,2.1266,0.0,0.0,0.0,0.0,0.0,0.0,0.0,0.0,0.0,0.0,0.0,0.0,0.0,0.0,0.0,0.0,0.0,0.0,0.0,0.0,0.0,0.0,0.0,0.0,0.0,0.0,0.0,0.0,0.0,0.0,0.0,0.0,0.0,0.0,0.0,0.0,0.0,0.0,0.0,0.0,0.0,0.0,0.0,0.0,0.0,0.0,0.0,0.0,0.0,0.0,0.0,0.0,0.0,0.0,1.4612,1.491,1.6929,1.8018,1.8008,1.8008,1.8008,1.8008,1.8388,1.7912,0.0,0.0,0.0,0.0,0.0,0.0,0.0,0.0,0.0,0.0,0.0,0.0,0.0,0.0,0.0,0.0,0.0,0.0,0.0,0.0,0.0,0.0,0.0,0.0,0.0,0.0,0.0,0.0,0.0,0.0,0.0,0.0,0.0,0.0,0.0,0.0,0.0,0.0,0.0,0.0,0.0,2.125,2.0699,2.1344,2.192,0.0,2.2346,2.2467,2.1965,2.1484,2.085,1.9934,0.0,0.0,0.0,0.0,0.0,0.0,0.0,0.0,0.0,0.0,0.0,0.0,0.0,0.0,0.0,0.0,0.0,0.0,0.0,0.0,0.0,0.0,0.0,0.0,0.0,0.0,0.0,0.0,0.0,0.0,0.0,0.0,0.0,0.0,0.0,0.0,0.0,0.0,0.0,0.0,0.0,0.0,0.0,0.0,0.0,0.0,0.0,0.0,0.0,0.0,0.0,0.0,0.0,1.4864,1.561,1.7444,1.8508,1.8789,1.8799,1.8789,1.8799,1.8988,1.8469,0.0,0.0,0.0,0.0,0.0,0.0,0.0,0.0,0.0,0.0,0.0,0.0,0.0,0.0,0.0,0.0,0.0,0.0,0.0,0.0,0.0,0.0,0.0,0.0,0.0,0.0,0.0,0.0,1.8057,1.8026,1.753,0.0,0.0,0.0,0.0,0.0,0.0,0.0,0.0,0.0,0.0,2.0975,2.1405,2.183,0.0,0.0,2.253,2.2475,2.2708,2.234,2.1727,2.0856,2.0397,0.0,0.0,0.0,0.0,0.0,0.0,0.0,0.0,0.0,0.0,0.0,0.0,0.0,0.0,0.0,0.0,0.0,0.0,0.0,0.0,0.0,0.0,0.0,0.0,0.0,0.0,0.0,0.0,0.0,0.0,0.0,0.0,0.0,0.0,0.0,0.0,0.0,0.0,0.0,0.0,0.0,0.0,0.0,0.0,0.0,0.0,0.0,0.0,0.0,0.0,0.0,0.0,1.5139,1.6085,1.7882,1.8957,1.9277,1.9277,1.9277,1.9296,1.9417,1.8962,0.0,0.0,0.0,0.0,0.0,0.0,0.0,0.0,0.0,0.0,0.0,0.0,0.0,0.0,0.0,0.0,0.0,0.0,0.0,0.0,0.0,0.0,0.0,0.0,0.0,0.0,0.0,0.0,1.8974,1.8715,1.7593,0.0,0.0,0.0,0.0,0.0,0.0,0.0,0.0,0.0,0.0,2.0689,2.1617,2.2175,2.2614,2.2888,2.2829,2.289,2.3216,2.2665,2.1945,2.1325,0.0,0.0,0.0,0.0,0.0,0.0,0.0,0.0,0.0,0.0,0.0,0.0,0.0,0.0,0.0,0.0,0.0,0.0,0.0,0.0,0.0,0.0,0.0,0.0,0.0,0.0,0.0,1.0582,0.0,0.0,1.0592,0.0,0.0,0.0,0.0,0.0,0.0,0.0,0.0,0.0,0.0,0.0,0.0,0.0,0.0,0.0,0.0,0.0,0.0,0.0,0.0,0.0,0.0,1.5403,1.6116,1.8155,1.9269,1.9288,1.9287,1.9325,1.9344,1.9668,1.9405,1.8401,0.0,0.0,0.0,0.0,0.0,0.0,0.0,0.0,0.0,0.0,0.0,0.0,0.0,0.0,0.0,0.0,0.0,0.0,0.0,0.0,0.0,0.0,0.0,0.0,0.0,0.0,1.6963,1.7746,1.8105,0.0,0.0,0.0,0.0,0.0,0.0,0.0,0.0,0.0,1.908,1.9754,2.0445,2.0905,2.2222,2.2948,2.2397,2.3267,2.3833,2.3256,2.2089,2.1184,0.0,0.0,0.0,0.0,0.0,0.0,0.0,0.0,0.0,0.0,0.0,0.0,0.0,0.0,0.0,0.0,0.0,0.0,0.0,0.0,0.0,0.0,0.0,0.0,0.0,0.0,0.0,1.0976,1.0729,0.0,0.0,0.0,0.0,0.0,0.0,0.0,0.0,0.0,0.0,0.0,1.4551,1.447,0.0,0.0,0.0,0.0,0.0,0.0,0.0,0.0,0.0,0.0,0.0,0.0,1.4845,1.5497,1.7546,1.8795,1.9102,1.9774,2.0175,2.0165,2.0293,1.9821,1.871,0.0,0.0,0.0,0.0,0.0,0.0,0.0,0.0,0.0,0.0,0.0,0.0,0.0,0.0,0.0,0.0,0.0,0.0,0.0,0.0,0.0,0.0,0.0,0.0,0.0,1.7887,0.0,0.0,0.0,0.0,0.0,0.0,0.0,0.0,0.0,0.0,0.0,1.975,1.9732,2.0553,2.1084,2.0875,2.1913,2.2537,0.0,0.0,0.0,0.0,0.0,0.0,0.0,0.0,0.0,0.0,0.0,0.0,0.0,0.0,1.9853,1.8352,1.8164,1.8262,1.8224,0.0,0.0,0.0,0.0,0.0,0.0,0.0,0.0,0.0,0.0,0.0,0.0,0.0,0.0,1.2406,0.0,1.1839,0.0,0.0,0.0,0.0,0.0,0.0,0.0,0.0,1.3471,1.3984,1.5033,1.4949,1.479,0.0,1.4986,1.4336,0.0,0.0,0.0,0.0,0.0,0.0,0.0,0.0,1.4824,1.5435,1.7378,1.8558,1.8888,1.9844,2.0372,2.0352,2.0343,2.0061,1.9445,1.8817,1.813,0.0,0.0,0.0,0.0,0.0,0.0,0.0,0.0,0.0,0.0,0.0,0.0,0.0,0.0,0.0,0.0,0.0,0.0,0.0,0.0,0.0,0.0,0.0,1.8455,0.0,0.0,0.0,0.0,0.0,0.0,0.0,0.0,0.0,1.9095,2.0176,2.0896,2.0712,2.1431,2.1908,2.1719,0.0,0.0,0.0,0.0,0.0,0.0,0.0,2.1995,2.2511,2.2407,2.2274,2.2345,2.1952,2.1609,2.154,0.0,0.0,1.9564,1.9382,1.9489,1.9489,1.9787,2.0064,2.0052,2.0406,2.073,0.0,0.0,0.0,0.0,0.0,0.0,0.0,0.0,1.4699,1.4537,0.0,1.3666,0.0,0.0,0.0,0.0,1.2576,1.3593,0.0,0.0,1.4011,1.4197,1.4077,1.4084,1.4031,1.4111,1.542,1.5273,1.3799,1.2973,0.0,0.0,0.0,0.0,0.0,0.0,1.5271,1.5841,1.7542,1.849,1.8499,1.9352,1.9795,1.9784,1.9804,1.9981,2.0391,1.9727,1.9174,1.8766,1.6951,0.0,0.0,0.0,0.0,0.0,0.0,0.0,0.0,0.0,0.0,0.0,0.0,0.0,0.0,0.0,0.0,0.0,0.0,0.0,0.0,1.8068,0.0,0.0,0.0,0.0,0.0,0.0,0.0,0.0,0.0,0.0,1.9265,2.1248,2.2593,2.1943,0.0,0.0,0.0,0.0,2.3828,2.4206,2.4378,2.4348,2.4163,2.3126,2.2348,2.2394,0.0,0.0,2.1388,2.1463,2.1455,2.1262,2.1455,2.1583,2.1467,2.1475,2.16,2.1605,2.1572,2.1667,2.1673,2.1576,2.1615,1.5035,0.0,0.0,0.0,0.0,1.3721,1.3835,1.4204,1.3857,1.3534,1.3206,1.3005,0.0,0.0,0.0,0.0,0.0,0.0,1.3571,1.4183,1.3766,1.4118,1.5076,1.477,1.464,1.4608,1.5269,1.5061,1.4042,1.3768,1.3481,1.3179,0.0,0.0,0.0,0.0,1.4558,1.4767,1.5894,1.6539,1.6539,1.7516,1.8049,1.8049,1.8049,1.8109,1.8241,1.8614,1.8662,1.8301,1.8032,0.0,0.0,0.0,0.0,0.0,0.0,0.0,0.0,0.0,0.0,0.0,0.0,0.0,0.0,0.0,0.0,0.0,0.0,0.0,1.9295,1.8873,1.8556,0.0,0.0,0.0,0.0,0.0,0.0,0.0,0.0,0.0,2.0902,2.2697,2.3729,0.0,0.0,2.37,2.3306,2.3388,2.3386,2.308,2.3052,0.0,2.2435,2.1987,2.1862,2.2385,2.2419,2.2351,2.2315,2.198,2.1697,2.1631,2.1686,2.1739,2.1725,2.1745,2.1764,2.1775,2.1775,2.1775,2.1767,2.1774,2.1766,1.6042,1.5345,1.4969,1.4773,1.4719,1.4474,1.4637,1.5067,1.4774,1.4456,1.4163,1.3887,1.3649,1.3462,1.3312,0.0,0.0,0.0,1.3769,1.4307,1.384,1.4084,1.4881,1.4689,1.4563,1.4564,1.512,1.4943,1.4103,1.4469,1.444,1.4004,0.0,0.0,1.4255,1.4255,1.4248,1.4231,1.5109,1.5587,1.5587,1.6547,1.7098,1.7163,1.7119,1.7139,1.7302,1.7718,1.8063,1.8283,1.8227,1.7816,0.0,0.0,0.0,0.0,0.0,0.0,0.0,0.0,0.0,0.0,0.0,1.4661,1.3564,0.0,0.0,0.0,1.7355,1.8731,2.0396,1.9472,0.0,0.0,0.0,0.0,0.0,0.0,0.0,2.0343,2.1175,2.1718,2.174,2.3,2.3697,2.3136,2.3341,2.3506,2.337,0.0,2.3068,2.2942,2.2924,2.2808,2.2444,2.2137,2.2004,2.2189,2.2283,2.2346,2.2346,2.2035,2.1807,2.1788,2.1788,2.1788,2.1788,2.1788,2.1788,2.1788,2.1788,2.1788,2.1788,2.1788,2.1788,1.6939,1.6119,1.5177,1.5093,1.5599,1.5614,1.5913,1.6486,1.6486,1.6374,1.6178,1.5563,1.529,1.5277,1.4911,0.0,1.4357,1.4364,1.4274,1.4103,1.4109,1.4109,1.4109,1.4103,1.4109,1.4109,1.4908,1.488,1.418,1.4944,1.523,1.492,1.4478,1.4297,1.4367,1.4269,1.4216,1.4191,1.4928,1.5302,1.5311,1.6083,1.6568,1.6736,1.6588,1.665,1.7017,1.6927,1.7366,1.8375,1.7827,1.782,1.8465,0.0,0.0,0.0,0.0,0.0,0.0,0.0,0.0,0.0,0.0,0.0,0.0,0.0,0.0,0.0,1.8385,0.0,2.0845,1.9906,0.0,0.0,0.0,1.9219,1.9741,2.014,2.0418,2.0525,0.0,0.0,2.185,2.245,2.283,2.2652,2.2518,2.2737,2.3445,2.3098,2.2955,2.3438,2.3527,2.3531,2.3389,2.3036,2.2544,2.2114,2.1911,2.2001,2.2001,2.192,2.1861,2.1871,2.1849,2.1788,2.1788,2.1788,2.1788,2.1788,2.1788,2.1788,2.1788,2.1788,2.1788,1.5486,1.5251,1.4836,1.4689,1.4782,1.4782,1.4761,1.4727,1.472,1.4678,1.4636,1.4489,1.4393,1.4405,1.4314,1.422,1.4179,1.4179,1.4157,1.4103,1.4109,1.4109,1.4109,1.4109,1.4109,1.4109,1.4292,1.432,1.4103,1.4322,1.4635,1.5031,1.4931,1.4879,1.4809,1.4513,1.4303,1.42,1.4381,1.4454,1.4433,1.4622,1.4741,1.4783,1.4741,1.4762,1.4859,1.547,1.6281,1.7326,1.7814,1.7976,1.7692,1.698,0.0,0.0,0.0,0.0,0.0,0.0,0.0,0.0,0.0,1.5781,1.3751,0.0,1.712,0.0,1.942,2.0613,2.1415,2.0292,0.0,0.0,1.9627,1.9528,2.0499,2.0389,2.0401,2.0754,2.1455,2.1717,2.1261,2.173,2.2053,2.2038,2.2634,2.308,2.3091,2.3189,2.3214,2.3208,2.3094,2.3061,2.3228,2.3191,2.3011,2.2893,2.2842,2.2853,2.2863,2.2563,2.2344,2.2285,2.2016,2.1819,2.1819,2.1788,2.1799,2.1788,2.1788,2.1788,2.1788,2.1788,2.1799,1.5336,1.5201,1.5078,1.4815,1.4516,1.4415,1.4337,1.4324,1.4317,1.4317,1.4324,1.4454,1.4497,1.4519,1.4497,1.4497,1.4504,1.4504,1.4504,1.4497,1.4497,1.4497,1.4497,1.4497,1.4497,1.4497,1.4497,1.4497,1.4497,1.4497,1.4671,1.5038,1.5053,1.5056,1.5043,1.5125,1.5116,1.5034,1.4749,1.4428,1.4124,1.4109,1.4157,1.43,1.4056,1.4007,1.4179,1.4361,1.5051,1.6302,1.698,1.7457,1.7731,1.7177,1.6158,0.0,0.0,0.0,0.0,0.0,0.0,0.0,0.0,0.0,0.0,0.0,1.7784,1.8461,1.9565,2.047,2.103,2.0273,1.9938,2.0427,2.0114,2.0111,2.0708,2.0617,2.058,2.0737,2.1138,2.1337,2.1134,2.1364,2.1628,2.1809,2.2415,2.2778,2.2747,2.2889,2.2959,2.2841,2.2746,2.2747,2.2991,2.3032,2.3022,2.3032,2.3123,2.3123,2.293,2.2856,2.2781,2.2661,2.2515,2.2418,2.2418,2.2438,2.2428,2.2418,2.2418,2.2263,2.1871,2.1954,2.2118,1.5738,1.5547,1.5522,1.5213,1.4756,1.4446,1.44,1.4546,1.4546,1.4546,1.4569,1.48,1.4918,1.4934,1.4963,1.4963,1.5015,1.5015,1.5015,1.5015,1.5015,1.5015,1.5015,1.5015,1.4986,1.4934,1.4963,1.4963,1.4941,1.4941,1.5001,1.512,1.5113,1.5178,1.5353,1.5903,1.6133,1.5974,1.5403,1.4811,1.4241,1.4216,1.4336,1.4526,1.4022,1.3844,1.4147,1.3618,1.3962,1.5376,1.5737,1.6542,1.7877,1.7055,1.619,0.0,1.5227,0.0,0.0,0.0,0.0,0.0,0.0,0.0,0.0,1.8173,1.8675,1.8885,1.9464,1.9966,2.0313,2.0118,2.0185,2.0629,2.0685,2.0648,2.0614,2.0751,2.0829,2.0703,2.0839,2.1036,2.126,2.1278,2.1454,2.1916,2.2171,2.2408,2.2561,2.2623,2.2644,2.2582,2.2612,2.2867,2.2939,2.2961,2.2981,2.2981,2.3156,2.3135,2.2806,2.2971,2.3124,2.2931,2.2941,2.3041,2.3093,2.3082,2.3062,2.299,2.2889,2.2653,2.2225,2.2335,2.2563,1.5878,1.5808,1.5595,1.5563,1.5618,1.5146,1.4676,1.4266,1.4266,1.4295,1.4266,1.4318,1.4469,1.4687,1.4681,1.48,1.5015,1.5015,1.5015,1.5015,1.5015,1.5015,1.5015,1.5015,1.4874,1.4681,1.4681,1.4681,1.4681,1.4681,1.504,1.5709,1.5724,1.6021,1.6535,0.0,0.0,0.0,1.5283,1.5119,1.4997,1.4843,1.4645,1.4431,1.4014,0.0,1.3484,1.3371,1.3753,1.4723,1.484,0.0,0.0,0.0,0.0,0.0,0.0,0.0,0.0,0.0,0.0,0.0,1.677,1.6892,1.7346,1.873,1.9582,1.955,2.0145,2.0509,2.0546,2.05,2.0512,2.0612,2.0613,2.0633,2.0595,2.0654,2.0762,2.1064,2.1133,2.1299,2.168,2.1768,2.1903,2.2251,2.2414,2.2593,2.2875,2.294,2.2992,2.2886,2.3169,2.3452,2.3375,2.3473,2.353,2.361,2.3632,2.3612,2.3465,2.3215,2.3171,2.3025,2.2857,2.2614,2.2625,2.2625,2.2594,2.2635,2.2164,2.1983,2.2745,2.2998,2.308,1.5822,1.5678,1.555,1.5502,0.0,1.5208,1.4923,1.467,1.4777,1.4921,1.5046,1.5022,1.5112,1.5248,1.5248,1.5296,1.5439,1.5302,1.5236,1.5253,1.5249,1.5229,1.5252,1.5252,1.5177,1.5038,1.4929,1.4859,1.4859,1.4836,1.5068,1.5499,1.5522,1.5677,1.5984,1.6007,1.5872,1.5591,1.5567,1.5405,1.5097,1.501,1.4886,1.4746,1.4229,0.0,0.0,0.0,0.0,0.0,0.0,0.0,0.0,1.5772,0.0,1.5534,1.6369,1.6625,1.6125,1.7263,1.8117,1.8357,1.8503,1.8537,1.8502,1.9561,2.0223,2.0145,2.0467,2.0629,2.0595,2.0596,2.0596,2.0625,2.0781,2.0898,2.0918,2.1114,2.1309,2.1504,2.1532,2.1719,2.2148,2.1736,2.1686,2.1991,2.1664,2.1456,2.171,2.2526,2.308,2.3016,2.3217,2.3462,2.3493,2.359,2.3634,2.3624,2.3353,2.305,2.2809,2.2386,2.2029,2.1942,2.1784,2.1717,2.1717,2.1717,2.1707,2.1674,2.1398,2.1312,2.1976,2.2369,2.2659,1.5759,1.5572,1.5572,1.5445,1.5246,1.5246,1.5246,1.524,1.5372,0.0,0.0,1.5758,1.5777,1.5828,1.5828,1.5853,1.589,1.5674,1.5573,1.5584,1.5574,1.5571,1.5577,1.5571,1.5553,1.5505,1.5271,1.5149,1.5105,1.5105,1.5103,1.5113,1.5107,1.5107,1.5107,1.5107,1.5317,1.5734,1.5821,1.5652,1.5217,1.516,1.5131,1.5107,1.4523,1.4212,1.4211,1.3689,1.3612,1.4099,1.4217,1.4551,1.514,1.5595,1.5895,1.6031,1.7116,1.7779,1.7739,1.89,1.9572,1.9452,1.9784,1.9957,1.9844,2.0317,2.0596,2.0596,2.0596,2.0605,2.0713,2.0713,2.0674,2.0585,2.0863,2.0994,2.0851,2.1148,2.1275,2.1484,2.141,2.1635,2.1919,2.1383,2.1056,2.1261,2.0792,2.0209,2.0399,2.1534,2.2397,2.2397,2.2372,2.2589,2.2818,2.2796,2.2938,2.2731,2.2328,2.1885,2.1507,2.1087,2.0742,2.0693,2.0674,2.0774,2.0792,2.0815,2.0755,2.0778,2.0666,2.0607,2.0671,2.1115,2.1667,1.5867,1.5837,1.5864,1.5813,1.5803,1.5777,1.5777,1.5741,1.5351,1.5183,1.5208,1.5208,1.5329,1.5544,1.555,1.5676,1.5884,1.5865,1.5852,1.5846,1.5858,1.5839,1.5839,1.5839,1.5707,1.5526,1.5451,1.5339,1.5133,1.5114,1.51,1.5115,1.5107,1.5113,1.5107,1.5107,1.5116,1.5223,1.5564,1.5789,1.5935,1.5766,1.5519,1.5184,1.4828,1.4379,1.389,1.3789,1.3625,1.3459,1.3462,1.3959,1.4942,1.4439,1.4494,1.5402,1.5703,1.5565,1.5089,1.6493,1.7515,1.7678,1.837,1.9287,2.0362,2.0546,2.0596,2.0596,2.0528,2.0752,2.1054,2.1033,2.0816,2.0483,2.0458,2.0222,1.9505,1.9499,1.9699,2.0031,1.9913,2.014,2.0566,2.0444,2.0326,2.0373,2.0073,2.0096,2.0051,2.0413,2.0593,2.0593,2.0616,2.0624,2.0894,2.0692,2.0872,2.0669,2.0661,2.0557,2.0444,2.0232,2.0119,2.0209,2.0119,2.0187,2.0209,2.0322,2.0155,2.0096,1.9772,1.9446,1.9423,1.9631,2.0259,1.6359,1.6332,1.6326,1.6326,1.6314,1.6196,1.6012,1.5906,1.5644,1.5529,1.5529,1.5529,1.5607,1.5706,1.5706,1.579,1.5888,1.5746,1.5697,1.5665,1.5695,1.5702,1.5676,1.5676,1.562,1.5487,1.5348,1.5211,1.5101,1.5095,1.5109,1.5091,1.4973,1.4868,1.4868,1.4744,1.4736,1.4885,1.521,1.5497,1.5758,1.5686,1.5535,1.5298,1.5153,1.4905,1.4483,1.4448,1.44,1.422,1.4054,1.4198,1.4689,1.4657,1.4849,1.5372,1.5842,1.5979,1.567,1.6391,1.6956,1.729,1.7728,1.8288,1.9001,1.9789,1.9908,1.9205,1.9604,1.994,1.9823,1.9927,1.9895,1.9673,1.9824,1.9774,1.9453,1.9545,1.9707,1.9882,1.9916,2.0007,2.0192,1.9755,1.9445,1.9399,1.9041,1.8665,1.865,1.8642,1.9024,1.9929,2.0209,2.0209,2.0164,2.0209,2.0209,2.0209,1.9755,1.949,1.9376,1.9086,1.8696,1.8619,1.8642,1.8626,1.8665,1.8619,1.8619,1.8603,1.8427,1.8164,1.821,1.855,1.9521,1.67,1.67,1.67,1.67,1.6682,1.6471,1.6254,1.6079,1.6105,1.6036,1.6003,1.5948,1.5885,1.5885,1.5885,1.5912,1.5861,1.568,1.5584,1.5592,1.5598,1.5603,1.5577,1.5577,1.5603,1.5577,1.5384,1.5258,1.5209,1.5191,1.5167,1.5095,1.4902,1.478,1.4799,1.4533,1.4491,1.4684,1.4851,1.5077,1.538,1.5404,1.5395,1.5332,1.5398,1.5288,1.5038,1.5057,1.5075,1.5008,1.4743,1.4601,1.4631,1.5055,1.5304,1.5389,1.5935,1.6416,1.6583,1.6416,1.6513,1.7053,1.7167,1.722,1.7289,1.852,1.8999,1.8171,1.8736,1.9038,1.8823,1.8872,1.8914,1.8832,1.9029,1.9061,1.8991,1.9257,1.9467,1.9467,1.949,1.9413,1.9399,1.888,1.8403,1.8249,1.7645,1.7185,1.7145,1.7138,1.7847,1.8849,1.9459,1.9436,1.9528,1.9482,1.9436,1.9528,1.8941,1.8542,1.8357,1.7785,1.7396,1.7442,1.7396,1.7466,1.7356,1.738,1.7419,1.7512,1.7496,1.738,1.7442,1.7901,1.8742,1.6712,1.67,1.6718,1.67,1.6706,1.6676,1.664,1.661,1.6622,1.6511,1.6235,1.6,1.5897,1.5885,1.5885,1.5885,1.5885,1.5861,1.587,1.5843,1.5878,1.5872,1.5868,1.5854,1.5866,1.5848,1.5815,1.5662,1.5469,1.5463,1.5322,1.5137,1.5083,1.5077,1.5015,1.4811,1.4678,1.4678,1.4479,1.464,1.5107,1.5131,1.5142,1.5123,1.5365,1.5346,1.5041,1.5242,1.526,1.5019,1.4988,1.4946,1.4961,1.5024,1.5055,1.5041,1.513,1.5485,1.6169,1.5596,1.5546,1.6287,1.6404,1.611,1.5534,1.6849,1.7946,1.8024,1.821,1.8414,1.8734,1.8717,1.8513,1.8094,1.8103,1.781,1.7213,1.7131,1.7277,1.7301,1.7496,1.7387,1.7668,1.7473,1.7246,1.7293,1.7005,1.6746,1.6753,1.6746,1.677,1.7091,1.7326,1.7645,1.7692,1.7606,1.7785,1.7715,1.7559,1.7536,1.7536,1.7489,1.7309,1.7309,1.7309,1.7309,1.7309,1.7309,1.7309,1.7309,1.7309,1.7309,1.7309,1.7442,1.7948,1.7165,1.7165,1.7165,1.7074,1.6942,1.693,1.6839,1.67,1.67,1.6634,1.6531,1.641,1.6193,1.5891,1.5885,1.5885,1.5885,1.5885,1.5885,1.5885,1.5885,1.5885,1.5885,1.5885,1.5885,1.5885,1.5885,1.5837,1.5773,1.5728,1.5674,1.5559,1.5421,1.5342,1.5318,1.5077,1.495,1.4919,1.4684,1.4643,1.4826,1.4853,1.4933,1.5083,1.522,1.5222,1.5106,1.5323,1.5411,1.5309,1.5242,1.5247,1.524,1.5079,1.5015,1.5015,1.5015,1.5158,1.5509,1.5181,1.5165,1.5509,1.5675,1.5597,1.5315,1.6069,1.6626,1.6803,1.7236,1.7506,1.7331,1.7398,1.7396,1.7219,1.7171,1.7021,1.6683,1.6683,1.6784,1.6753,1.676,1.68,1.684,1.6824,1.6777,1.676,1.6636,1.6588,1.6588,1.6612,1.6612,1.6636,1.677,1.684,1.6887,1.6887,1.6958,1.7066,1.7113,1.7129,1.7263,1.7309,1.7309,1.7309,1.7309,1.7309,1.7309,1.7309,1.7309,1.7301,1.7309,1.7309,1.7309,1.7309,1.7595,1.6467,1.6461,1.6467,1.6335,1.617,1.617,1.6068,1.5972,1.6251,1.6359,1.6323,1.6633,1.6549,1.6145,1.6042,1.597,1.5891,1.5885,1.5885,1.5885,1.5885,1.5885,1.5885,1.5885,1.5885,1.5885,1.5885,1.5885,1.5885,1.5885,1.5885,1.5855,1.5698,1.5608,1.5578,1.5348,1.5215,1.5191,1.4956,1.4768,1.4727,1.4716,1.475,1.4874,1.4957,1.4987,1.4981,1.5237,1.5421,1.5493,1.5454,1.5465,1.5481,1.5311,1.5227,1.522,1.5227,1.5227,1.5227,1.5227,1.5204,1.5217,1.5404,1.5518,1.5551,1.5688,1.5795,1.5893,1.6371,1.6536,1.621,1.6258,1.6369,1.6369,1.6393,1.64,1.6376,1.6423,1.6478,1.6494,1.6478,1.6494,1.6494,1.6501,1.6471,1.6501,1.6423,1.64,1.6376,1.6353,1.6369,1.6393,1.6369,1.644,1.6565,1.6636,1.6706,1.6807,1.6878,1.6918,1.7099,1.7145,1.7223,1.7153,1.7239,1.7263,1.72,1.7223,1.7327,1.7332,1.7354,1.7428,1.7526,1.7516,1.7675,1.3874,1.3904,1.3904,1.4013,1.3889,1.3939,1.391,1.4099,1.5131,1.5496,1.5427,1.6431,1.6861,1.6556,1.6273,1.6118,1.5922,1.5936,1.5924,1.5891,1.5885,1.5885,1.5885,1.5885,1.5885,1.5885,1.5885,1.5885,1.5885,1.5885,1.5885,1.5906,1.5855,1.5888,1.5819,1.5602,1.5481,1.5457,1.5228,1.498,1.4744,1.4721,1.4625,1.4449,1.4568,1.4712,1.4736,1.4963,1.522,1.5475,1.5466,1.5561,1.5727,1.5755,1.5728,1.5735,1.5741,1.5748,1.5728,1.5715,1.5745,1.5735,1.5728,1.5775,1.5741,1.5775,1.5801,1.5801,1.5893,1.5917,1.5866,1.5927,1.5896,1.5896,1.5872,1.5872,1.5872,1.6099,1.6201,1.6218,1.6218,1.6218,1.6218,1.6224,1.6224,1.617,1.6021,1.5879,1.5927,1.5872,1.5896,1.592,1.592,1.6015,1.6471,1.6471,1.6511,1.6612,1.6619,1.6664,1.6713,1.68,1.6939,1.7093,1.7229,1.7259,1.7133,1.7152,1.7313,1.7407,1.7556,1.765,1.7619,1.8027,1.8117,1.3699,1.3699,1.3699,1.3699,1.3699,1.3699,1.3699,1.3725,1.4172,1.4336,1.4331,1.4734,1.5229,1.5732,1.5647,1.5797,1.6136,1.6166,1.6075,1.593,1.5885,1.5885,1.5885,1.5885,1.5885,1.5885,1.5885,1.5885,1.5885,1.5885,1.5885,1.5885,1.5885,1.5885,1.5867,1.5821,1.5779,1.5722,1.5487,1.5312,1.5203,1.5052,1.4841,1.4576,1.4485,1.4442,1.4448,1.4718,1.4879,1.4999,1.5148,1.5356,1.5588,1.573,1.5801,1.5801,1.5801,1.5801,1.5801,1.5801,1.5801,1.5801,1.5801,1.5801,1.5801,1.5801,1.5801,1.5801,1.5801,1.5801,1.5801,1.5801,1.5801,1.5801,1.5801,1.5801,1.5825,1.5879,1.595,1.595,1.5957,1.5957,1.5974,1.595,1.595,1.595,1.5879,1.5825,1.5801,1.5801,1.5801,1.5801,1.5801,1.5849,1.6021,1.6092,1.6116,1.6289,1.638,1.6614,1.672,1.6868,1.6999,1.7217,1.7345,1.7379,1.7275,1.7248,1.7389,1.7467,1.7633,1.7707,1.7626,1.7932,1.8028,1.2161,1.2165,1.2256,1.2281,1.2281,1.2406,1.2462,1.2496,1.2856,1.3071,1.3131,1.3485,1.4094,1.4652,1.4719,1.4892,1.5412,1.595,1.6166,1.5877,1.5538,1.5351,1.5351,1.5351,1.5351,1.5431,1.5758,1.5885,1.5885,1.5885,1.5885,1.5885,1.5885,1.5885,1.5885,1.5885,1.5885,1.5876,1.571,1.559,1.5493,1.533,1.5081,1.4822,1.4551,1.4383,1.4334,1.4472,1.4616,1.4718,1.4885,1.5077,1.5363,1.5588,1.5706,1.5713,1.5784,1.5801,1.5801,1.5801,1.5801,1.5801,1.5801,1.5801,1.5801,1.5801,1.5801,1.5801,1.5801,1.5801,1.5801,1.5801,1.5801,1.5801,1.5801,1.5801,1.5801,1.5801,1.5801,1.5825,1.5832,1.5825,1.5801,1.5801,1.5825,1.5801,1.5801,1.5801,1.5801,1.5801,1.5801,1.5801,1.5801,1.5868,1.6051,1.6128,1.6135,1.6286,1.6443,1.6628,1.6794,1.6943,1.7096,1.7301,1.742,1.7463,1.7456,1.742,1.7437,1.7499,1.7666,1.7809,1.7785,1.7798,1.7939,0.9037,0.9186,0.9214,0.9579,0.9697,0.997,0.9913,1.021,1.1148,1.1601,1.1722,1.2856,1.3262,1.3586,1.3503,1.3523,1.3785,1.5121,1.574,1.5484,1.4633,1.4191,1.4191,1.4191,1.4191,1.4245,1.5244,1.5752,1.5752,1.5725,1.5752,1.5885,1.5885,1.5885,1.5885,1.5885,1.5885,1.5879,1.5855,1.5773,1.5541,1.5505,1.5372,1.5119,1.4852,1.4618,1.434,1.431,1.4442,1.464,1.4688,1.4838,1.5077,1.5333,1.5493,1.5523,1.5666,1.5778,1.5784,1.5778,1.5778,1.5801,1.5801,1.5801,1.5801,1.5801,1.5801,1.5801,1.5801,1.5801,1.5801,1.5801,1.5801,1.5801,1.5801,1.5801,1.5801,1.5801,1.5801,1.5801,1.5801,1.5801,1.5801,1.5801,1.5801,1.5801,1.5801,1.5801,1.5801,1.5801,1.5801,1.5808,1.5868,1.6005,1.6146,1.6304,1.6317,1.6375,1.6554,1.6718,1.6853,1.6989,1.7132,1.7332,1.7463,1.7514,1.7514,1.7452,1.7435,1.7522,1.7724,1.7837,1.7803,1.7821,1.8007,0.8918,0.8918,0.9004,0.9034,0.9034,0.9126,0.919,0.9217,0.964,0.9761,0.9852,1.021,1.0868,1.1585,1.1705,1.2026,1.2619,1.3212,1.3486,1.3522,1.3143,1.296,1.296,1.296,1.296,1.3019,1.3312,1.3938,1.4621,1.4734,1.5078,1.5752,1.5859,1.5885,1.5859,1.5885,1.5885,1.5885,1.5885,1.587,1.5797,1.5765,1.5638,1.5403,1.5294,1.5059,1.4587,1.4401,1.4322,1.4442,1.4418,1.4544,1.4814,1.5077,1.522,1.5244,1.5291,1.5404,1.5571,1.5588,1.5659,1.5754,1.5801,1.5801,1.5801,1.5801,1.5801,1.5801,1.5801,1.5801,1.5801,1.5801,1.5801,1.5801,1.5801,1.5801,1.5801,1.5801,1.5801,1.5801,1.5801,1.5801,1.5801,1.5801,1.5801,1.5801,1.5801,1.5801,1.5801,1.5801,1.5801,1.5808,1.5972,1.6146,1.6299,1.6565,1.6752,1.6752,1.6827,1.6921,1.7032,1.7097,1.7248,1.736,1.7498,1.7544,1.7532,1.7526,1.7495,1.7504,1.7662,1.7711,1.7739,1.7819,1.795,0.8546,0.8516,0.8671,0.8702,0.8732,0.8824,0.8918,0.8918,0.8918,0.8918,0.8918,0.8915,0.9335,0.9994,1.0081,1.0447,1.0981,1.0845,1.0849,1.1113,1.1514,1.1628,1.176,1.1764,1.2032,1.2358,1.239,1.277,1.3484,1.356,1.3911,1.4508,1.5045,1.5244,1.5351,1.5699,1.5885,1.5885,1.5885,1.5885,1.5912,1.5885,1.5833,1.5656,1.5573,1.533,1.5004,1.4654,1.4401,1.4322,1.4322,1.44,1.4544,1.4807,1.4957,1.4987,1.5059,1.5178,1.5339,1.5363,1.5404,1.5523,1.5547,1.5594,1.5635,1.5689,1.5706,1.5784,1.5801,1.5801,1.5801,1.5801,1.5801,1.5801,1.5801,1.5801,1.5801,1.5801,1.5801,1.5801,1.5801,1.5801,1.5801,1.5801,1.5801,1.5801,1.5801,1.5801,1.5801,1.5801,1.5808,1.5868,1.6066,1.6253,1.6446,1.6785,1.716,1.7193,1.7207,1.726,1.7307,1.7353,1.7433,1.7473,1.7579,1.7585,1.7566,1.7573,1.758,1.7608,1.7615,1.7641,1.7661,1.7661,1.774,0.7903,0.7933,0.8244,0.8369,0.84,0.8671,0.8763,0.8824,0.8793,0.8793,0.8793,0.8729,0.8821,0.8854,0.894,0.9022,0.8833,0.8735,0.8694,0.8954,0.9542,1.0151,1.0398,1.0484,1.0941,1.1705,1.1901,1.2118,1.2309,1.2331,1.2363,1.277,1.3668,1.4083,1.4213,1.5158,1.5426,1.5345,1.5479,1.5479,1.5645,1.5725,1.5832,1.5835,1.5531,1.5355,1.5372,1.4944,1.4558,1.434,1.4322,1.4328,1.437,1.4544,1.4688,1.4688,1.4909,1.5011,1.5083,1.5077,1.5124,1.5178,1.5178,1.5196,1.5404,1.5475,1.5523,1.5666,1.5683,1.573,1.573,1.5706,1.573,1.5784,1.5784,1.5801,1.5801,1.5801,1.5801,1.5801,1.5801,1.5801,1.5801,1.5801,1.5801,1.5801,1.5801,1.5801,1.5801,1.5808,1.5821,1.5961,1.623,1.6491,1.6693,1.7001,1.7361,1.7401,1.7414,1.7448,1.7495,1.7515,1.7535,1.7582,1.7615,1.7615,1.7615,1.7615,1.7615,1.7615,1.7615,1.7615,1.7615,1.7615,1.7615,0.7903,0.7903,0.7994,0.8027,0.8027,0.815,0.8177,0.8177,0.8177,0.8208,0.8177,0.8144,0.8208,0.8177,0.8177,0.8147,0.8118,0.7891,0.7892,0.8084,0.8142,0.8466,0.873,0.8978,0.9278,0.9636,0.9939,1.0268,1.1082,1.1109,1.1515,1.239,1.2635,1.2879,1.2987,1.3263,1.3312,1.3312,1.3339,1.3857,1.4546,1.4627,1.5083,1.5773,1.5015,1.4856,1.5351,1.4973,1.4557,1.4328,1.4322,1.4322,1.4322,1.437,1.4442,1.4466,1.449,1.4616,1.4766,1.4814,1.4909,1.5083,1.5059,1.5131,1.5178,1.522,1.5244,1.5291,1.5291,1.538,1.5493,1.538,1.5356,1.5571,1.5516,1.5659,1.5801,1.5801,1.5801,1.5801,1.5801,1.5801,1.5801,1.5801,1.5801,1.5801,1.5801,1.5801,1.5801,1.5861,1.5901,1.6186,1.6451,1.6732,1.7013,1.7301,1.7508,1.7555,1.7561,1.7548,1.7575,1.7575,1.7588,1.7615,1.7615,1.7615,1.7615,1.7615,1.7615,1.7615,1.7615,1.7615,1.7615,1.7615,1.7615,0.7903,0.7903,0.7903,0.7903,0.7903,0.7903,0.7903,0.7903,0.7903,0.7903,0.7903,0.7903,0.7903,0.7903,0.7903,0.7903,0.787,0.7625,0.7609,0.7707,0.7579,0.7693,0.8017,0.8235,0.8294,0.8294,0.8463,0.8978,0.9633,0.977,1.0237,1.0844,1.1437,1.1683,1.1733,1.2227,1.2363,1.2417,1.239,1.2797,1.3371,1.3457,1.3722,1.4234,1.3744,1.3698,1.3955,1.372,1.3783,1.4252,1.4377,1.4322,1.4322,1.4322,1.4322,1.4322,1.4322,1.4394,1.4496,1.4544,1.4616,1.4712,1.4766,1.4814,1.4909,1.4933,1.4957,1.5107,1.5107,1.5178,1.5166,1.4801,1.4562,1.4549,1.4478,1.4758,1.5618,1.5801,1.5801,1.5801,1.5801,1.5801,1.5808,1.5784,1.5784,1.5801,1.5801,1.5801,1.5808,1.5891,1.6013,1.6199,1.6527,1.6838,1.7108,1.7388,1.7541,1.7602,1.7615,1.7615,1.7615,1.7615,1.7615,1.7615,1.7615,1.7615,1.7615,1.7615,1.7615,1.7615,1.7615,1.7615,1.7615,1.7615,1.7615,0.7903,0.7903,0.7903,0.7903,0.7903,0.7903,0.7903,0.7903,0.7903,0.7903,0.7903,0.7903,0.7903,0.7903,0.7903,0.7903,0.7889,0.7625,0.7476,0.7436,0.7342,0.746,0.7795,0.7906,0.7965,0.7989,0.7992,0.8239,0.8619,0.8595,0.8681,0.9316,1.0104,1.0453,1.0621,1.1383,1.1928,1.1764,1.1633,1.1846,1.2146,1.225,1.244,1.2743,1.277,1.2369,1.22,1.2156,1.2754,1.4307,1.4235,1.4093,1.4106,1.4154,1.4322,1.4322,1.4322,1.4322,1.4322,1.4346,1.4322,1.437,1.437,1.44,1.4592,1.4664,1.464,1.4538,1.4814,1.4569,1.4304,1.3743,1.3419,1.3331,1.2772,1.3421,1.4809,1.5454,1.5462,1.5499,1.5428,1.5515,1.5538,1.5534,1.546,1.4869,1.4984,1.4942,1.4967,1.4998,1.5406,1.5998,1.6416,1.6935,1.719,1.7448,1.7541,1.7615,1.7615,1.7615,1.7615,1.7615,1.7615,1.7615,1.7615,1.7615,1.7615,1.7615,1.7615,1.7615,1.7615,1.7615,1.7615,1.7615,1.7615,0.7903,0.7903,0.7903,0.7903,0.7903,0.7903,0.7903,0.7903,0.7903,0.7903,0.7903,0.7903,0.7903,0.7903,0.7903,0.7903,0.7872,0.7627,0.7429,0.7259,0.7223,0.7238,0.7435,0.7576,0.769,0.7715,0.7909,0.8045,0.8156,0.8318,0.8512,0.8678,0.9068,0.932,0.9454,0.9726,0.9675,0.9671,0.9754,1.0296,1.0945,1.1078,1.1433,1.2064,1.2222,1.1801,1.13,1.1634,1.2178,1.2567,1.2962,1.3117,1.3197,1.3739,1.4052,1.4076,1.4154,1.4226,1.425,1.4124,1.4274,1.4076,1.4028,1.4322,1.4346,1.4268,1.3913,1.3487,1.3197,1.3046,1.2584,1.2293,1.2179,1.2193,1.2086,1.2177,1.296,1.3297,1.3549,1.3549,1.3626,1.3641,1.3696,1.3943,1.3944,1.3869,1.392,1.3881,1.4018,1.4186,1.484,1.56,1.6023,1.6535,1.731,1.7521,1.7561,1.7615,1.7615,1.7615,1.7615,1.7615,1.7615,1.7615,1.7615,1.7615,1.7615,1.7615,1.7615,1.7615,1.7615,1.7615,1.7615,1.7615,1.7615,0.7903,0.7903,0.7903,0.7903,0.7903,0.7903,0.7903,0.7903,0.7903,0.7903,0.7903,0.7903,0.7903,0.7903,0.7903,0.7903,0.7845,0.7625,0.7388,0.7234,0.721,0.721,0.721,0.7324,0.741,0.7438,0.7518,0.7657,0.7823,0.8017,0.8211,0.8484,0.8654,0.885,0.8909,0.8909,0.8992,0.902,0.8909,0.9261,0.975,0.986,1.0021,1.0625,1.0758,1.0406,0.9982,1.0245,1.0447,1.068,1.1268,1.1882,1.2093,1.2553,1.2834,1.2853,1.2853,1.2859,1.2829,1.2853,1.2786,1.2888,1.2853,1.288,1.2916,1.2953,1.2766,1.2328,1.2174,1.1963,1.1533,1.1042,1.111,1.1,1.0763,1.0664,1.0914,1.1763,1.2632,1.2678,1.2833,1.3011,1.3035,1.2864,1.312,1.3369,1.3485,1.3471,1.3636,1.3873,1.4502,1.514,1.5547,1.6184,1.722,1.7595,1.7588,1.7615,1.7615,1.7615,1.7615,1.7615,1.7615,1.7615,1.7615,1.7615,1.7615,1.7615,1.7615,1.7615,1.7615,1.7615,1.7615,1.7615,1.7615,0.7903,0.7903,0.7903,0.7903,0.7903,0.7903,0.7903,0.7903,0.7903,0.7903,0.7903,0.7903,0.7903,0.7903,0.7903,0.7897,0.7815,0.7627,0.7391,0.7253,0.7193,0.7213,0.721,0.7238,0.724,0.721,0.7265,0.7379,0.7493,0.7607,0.7906,0.8291,0.8484,0.8626,0.8795,0.8909,0.8909,0.8909,0.8909,0.8937,0.9044,0.9044,0.9127,0.9182,0.9237,0.9237,0.9127,0.9133,0.8982,0.8781,0.9578,1.0302,1.0821,1.125,1.1213,1.1287,1.1482,1.1599,1.1643,1.1525,1.15,1.1264,1.1353,1.1404,1.1542,1.169,1.1565,1.1322,1.1141,1.0931,1.1045,1.0407,0.9961,0.9847,0.9304,0.8957,0.9244,1.0714,1.1527,1.1936,1.1655,1.165,1.1968,1.2061,1.2469,1.2786,1.2884,1.2972,1.307,1.3211,1.3583,1.4005,1.429,1.4872,1.5864,1.6399,1.6532,1.7015,1.7153,1.7285,1.7371,1.7615,1.7615,1.7615,1.7615,1.7615,1.7615,1.7615,1.7615,1.7615,1.7615,1.7615,1.7615,1.7615,1.7615,0.7903,0.7903,0.7903,0.7903,0.7903,0.7903,0.7903,0.7903,0.7903,0.7903,0.7903,0.7903,0.7903,0.7903,0.7903,0.7851,0.7728,0.7592,0.7448,0.7293,0.7217,0.7196,0.721,0.721,0.721,0.721,0.721,0.724,0.7351,0.7493,0.766,0.7851,0.8235,0.8484,0.8626,0.8768,0.8881,0.8909,0.8909,0.8909,0.8909,0.8909,0.8909,0.8909,0.8909,0.8909,0.8909,0.8909,0.8899,0.8893,0.8937,0.9065,0.9519,1.0536,1.1007,1.0996,1.1011,1.0959,1.0993,1.1268,1.1453,1.1527,1.1311,1.135,1.141,1.1407,1.0906,1.0338,0.9695,0.917,0.9163,0.9201,0.9111,0.9019,0.9047,0.8914,0.8999,0.9407,0.9935,1.0274,1.0204,1.0257,1.0756,1.1087,1.1216,1.1411,1.1496,1.1585,1.167,1.1738,1.1882,1.2329,1.279,1.3502,1.432,1.4674,1.4995,1.5829,1.6154,1.6499,1.6744,1.7397,1.7589,1.7292,1.7424,1.7615,1.7615,1.7615,1.7615,1.7615,1.7615,1.7615,1.7615,1.7615,1.7615,0.7903,0.7903,0.7903,0.7903,0.7903,0.7903,0.7903,0.7903,0.7903,0.7903,0.7903,0.7903,0.7903,0.7903,0.7903,0.7837,0.7709,0.7649,0.7481,0.733,0.7274,0.7234,0.7193,0.7213,0.721,0.721,0.721,0.721,0.721,0.7324,0.7465,0.7632,0.7906,0.8183,0.8457,0.8626,0.8768,0.8854,0.8909,0.8909,0.8909,0.8909,0.8909,0.8909,0.8909,0.8909,0.8909,0.8909,0.8909,0.8896,0.8869,0.8764,0.9012,0.9398,0.9997,0.9941,0.9965,0.9937,0.9911,0.997,0.9912,0.995,1.004,1.0032,1.0065,0.9969,0.9966,0.9537,0.9221,0.8716,0.8876,0.8794,0.8841,0.8885,0.8909,0.8909,0.8909,0.8909,0.8999,0.912,0.934,0.9624,0.986,1.0038,0.9982,1.0036,1.0174,1.0335,1.0472,1.0606,1.0798,1.166,1.2309,1.2874,1.3437,1.3545,1.3841,1.4567,1.499,1.5316,1.5716,1.618,1.6532,1.6564,1.6856,1.7285,1.7615,1.7615,1.7615,1.7615,1.7615,1.7615,1.7615,1.7615,1.7615,0.7903,0.7903,0.7903,0.7903,0.7903,0.7903,0.7903,0.7903,0.7903,0.7903,0.7903,0.7903,0.7903,0.7903,0.7892,0.7853,0.7733,0.772,0.7587,0.7427,0.7322,0.7274,0.7245,0.719,0.721,0.721,0.721,0.721,0.721,0.724,0.7351,0.7465,0.7551,0.7798,0.8211,0.8432,0.8598,0.8768,0.8881,0.8909,0.8909,0.8909,0.8909,0.8909,0.8909,0.8909,0.8909,0.8909,0.8909,0.8909,0.8892,0.8852,0.8757,0.873,0.8696,0.8594,0.8577,0.8556,0.8612,0.8743,0.8964,0.8968,0.872,0.8702,0.8817,0.9085,0.8934,0.8882,0.8896,0.8882,0.8882,0.8902,0.8906,0.8909,0.8909,0.8909,0.8909,0.8909,0.8909,0.8948,0.8909,0.9065,0.9402,0.9594,0.9678,0.9761,0.9899,1.0036,1.0143,1.0036,1.0386,1.1414,1.2146,1.258,1.282,1.2684,1.3031,1.3545,1.3701,1.3836,1.4266,1.4695,1.5022,1.5375,1.6287,1.6711,1.7147,1.7562,1.7615,1.7615,1.7615,1.7615,1.7615,1.7615,1.7615,0.7903,0.7903,0.7903,0.7903,0.7903,0.7903,0.7903,0.7903,0.7903,0.7903,0.7903,0.7903,0.7903,0.7903,0.7903,0.7892,0.7853,0.7755,0.7687,0.7595,0.7424,0.7324,0.7293,0.7223,0.7196,0.7215,0.721,0.721,0.721,0.721,0.721,0.7296,0.7465,0.7662,0.7826,0.8156,0.8512,0.8567,0.8795,0.8909,0.8909,0.8909,0.8909,0.8909,0.8909,0.8909,0.8909,0.8909,0.8909,0.8909,0.8909,0.8902,0.8885,0.8858,0.8854,0.8825,0.875,0.8659,0.8676,0.8743,0.8801,0.8794,0.8814,0.8858,0.8852,0.8858,0.8872,0.8896,0.8909,0.8909,0.8909,0.8909,0.8909,0.8909,0.8909,0.8909,0.8909,0.8909,0.8909,0.8909,0.8909,0.8909,0.9065,0.9261,0.9434,0.9513,0.9623,0.9734,0.9871,0.9789,0.9761,1.0684,1.12,1.1578,1.1851,1.1769,1.1982,1.244,1.2413,1.2381,1.276,1.3161,1.3566,1.4073,1.5037,1.5956,1.6419,1.6882,1.7371,1.7615,1.7615,1.7615,1.7615,1.7615,1.7589,0.6517,0.7903,0.7903,0.7903,0.7903,0.7903,0.7903,0.7903,0.7903,0.7903,0.7903,0.7903,0.7903,0.7903,0.7903,0.79,0.7892,0.7845,0.7758,0.7712,0.7581,0.7435,0.7319,0.7279,0.7264,0.7198,0.721,0.721,0.721,0.721,0.721,0.721,0.7324,0.7465,0.7551,0.7857,0.8183,0.846,0.874,0.8909,0.8909,0.8909,0.8909,0.8909,0.8909,0.8909,0.8909,0.8909,0.8909,0.8909,0.8909,0.8909,0.8909,0.8909,0.8906,0.8902,0.8855,0.8814,0.8821,0.8875,0.8899,0.8909,0.8909,0.8899,0.8909,0.8909,0.8909,0.8909,0.8909,0.8909,0.8909,0.8909,0.8909,0.8909,0.8909,0.8909,0.8909,0.8909,0.8909,0.8909,0.8909,0.8909,0.8909,0.902,0.9185,0.9213,0.9292,0.9375,0.9568,0.9734,0.9678,0.9785,1.0088,1.0308,1.0523,1.0633,1.0739,1.1036,1.0899,1.095,1.1219,1.1596,1.2028,1.2674,1.3507,1.4449,1.5396,1.6393,1.7074,1.7371,1.7615,1.7556,1.7503,1.7529,1.7529,0.5071,0.6884,0.7255,0.7564,0.7903,0.7903,0.7903,0.7903,0.7903,0.7903,0.7903,0.7903,0.7903,0.7903,0.7903,0.7903,0.7903,0.7903,0.7853,0.7793,0.7698,0.7565,0.7441,0.7388,0.7285,0.7226,0.7193,0.7213,0.721,0.721,0.721,0.721,0.7238,0.7296,0.7438,0.7632,0.7881,0.8294,0.8598,0.8768,0.8795,0.8854,0.8909,0.8909,0.8909,0.8909,0.8909,0.8909,0.8909,0.8909,0.8909,0.8909,0.8909,0.8909,0.8909,0.8909,0.8889,0.8889,0.8889,0.8906,0.8909,0.8909,0.8909,0.8909,0.8909,0.8909,0.8909,0.8909,0.8909,0.8909,0.8909,0.8909,0.8909,0.8909,0.8909,0.8909,0.8909,0.8909,0.8909,0.8909,0.8909,0.8909,0.8909,0.8909,0.8937,0.8937,0.8964,0.9047,0.9241,0.9489,0.9541,0.9458,0.9596,0.9761,0.9926,0.9981,0.9926,0.9871,0.9761,0.9816,1.0221,1.0355,1.0598,1.1296,1.205,1.2701,1.3539,1.5209,1.675,1.6776,1.6882,1.7285,1.7364,1.7364,1.6935,0.3997,0.4274,0.5506,0.6674,0.7747,0.7903,0.7808,0.7531,0.7717,0.7655,0.75,0.7747,0.7531,0.7655,0.7439,0.75,0.7714,0.7869,0.7703,0.7663,0.7755,0.7693,0.7587,0.7438,0.7316,0.7296,0.723,0.7207,0.721,0.721,0.721,0.721,0.721,0.721,0.7324,0.7521,0.7715,0.8072,0.8346,0.8515,0.8571,0.8685,0.883,0.8881,0.8909,0.8909,0.8909,0.8909,0.8909,0.8909,0.8909,0.8909,0.8909,0.8909,0.8909,0.8909,0.8909,0.8909,0.8909,0.8909,0.8909,0.8909,0.8909,0.8909,0.8909,0.8909,0.8909,0.8909,0.8909,0.8909,0.8909,0.8909,0.8909,0.8909,0.8909,0.8909,0.8909,0.8909,0.8909,0.8909,0.8909,0.8909,0.8909,0.8909,0.8909,0.8909,0.8909,0.8992,0.8964,0.9158,0.9268,0.9292,0.9348,0.9513,0.9734,0.9761,0.9706,0.9623,0.9541,0.9461,0.9544,0.9568,0.9675,0.9943,1.0703,1.1191,1.1678,1.2945,1.4212,1.5482,1.6187,1.6638,1.6829,1.675,1.5914,0.2155,0.3568,0.3541,0.4246,0.5441,0.5441,0.5441,0.5439,0.5441,0.5441,0.5533,0.5441,0.5441,0.5502,0.5441,0.5441,0.5596,0.6396,0.6611,0.7004,0.7304,0.7706,0.7684,0.7597,0.7491,0.7338,0.7257,0.7214,0.7213,0.7213,0.721,0.721,0.721,0.721,0.7296,0.7438,0.7632,0.7798,0.8017,0.8183,0.8211,0.8266,0.8436,0.8654,0.8654,0.8768,0.8881,0.8909,0.8909,0.8909,0.8909,0.8909,0.8909,0.8909,0.8909,0.8909,0.8909,0.8909,0.8909,0.8909,0.8909,0.8909,0.8909,0.8909,0.8909,0.8909,0.8909,0.8909,0.8909,0.8909,0.8909,0.8909,0.8909,0.8909,0.8909,0.8909,0.8909,0.8909,0.8909,0.8909,0.8909,0.8909,0.8909,0.8909,0.8909,0.8909,0.8909,0.8909,0.8909,0.8909,0.9047,0.9103,0.9158,0.9158,0.9348,0.943,0.9458,0.9406,0.9323,0.9268,0.9189,0.9103,0.921,0.932,0.9427,0.997,1.0433,1.0731,1.1923,1.3809,1.5156,1.6101,1.6154,1.5941,1.4974,0.0431,0.1939,0.1356,0.2218,0.3783,0.3907,0.3907,0.3907,0.3999,0.3907,0.3907,0.3907,0.3907,0.3907,0.3968,0.403,0.4337,0.4921,0.5506,0.6119,0.6783,0.7423,0.7643,0.7693,0.7597,0.7424,0.7316,0.7279,0.725,0.7204,0.7215,0.721,0.721,0.721,0.724,0.7351,0.7465,0.7549,0.7715,0.7881,0.7878,0.7989,0.8072,0.8374,0.8457,0.8595,0.8768,0.8826,0.8909,0.8909,0.8909,0.8909,0.8909,0.8909,0.8909,0.8909,0.8909,0.8909,0.8909,0.8909,0.8909,0.8909,0.8909,0.8909,0.8909,0.8909,0.8909,0.8909,0.8909,0.8909,0.8909,0.8909,0.8909,0.8909,0.8909,0.8909,0.8909,0.8909,0.8909,0.8909,0.8909,0.8909,0.8909,0.8909,0.8909,0.8909,0.8909,0.8909,0.8909,0.8909,0.8937,0.8964,0.8964,0.8964,0.8937,0.9103,0.9213,0.9158,0.9103,0.9075,0.8995,0.8937,0.8909,0.9075,0.9127,0.9075,0.9375,0.9919,1.1109,1.2593,1.3836,1.5022,1.4379,1.4056,1.376,-0.0926,-0.0896,-0.0833,0.0955,0.3445,0.3845,0.3721,0.3477,0.3538,0.3538,0.3477,0.3538,0.3538,0.3538,0.3262,0.3231,0.3354,0.3722,0.4398,0.526,0.569,0.6604,0.7094,0.7248,0.6853,0.746,0.7243,0.701,0.7113,0.7202,0.7184,0.7213,0.721,0.721,0.721,0.721,0.721,0.724,0.7493,0.7576,0.7632,0.7795,0.7906,0.8072,0.8239,0.8377,0.8595,0.874,0.8826,0.8881,0.8909,0.8909,0.8909,0.8909,0.8909,0.8909,0.8909,0.8909,0.8909,0.8909,0.8909,0.8909,0.8909,0.8909,0.8909,0.8909,0.8909,0.8909,0.8909,0.8909,0.8909,0.8909,0.8909,0.8909,0.8909,0.8909,0.8909,0.8909,0.8909,0.8909,0.8909,0.8909,0.8909,0.8909,0.8909,0.8909,0.8909,0.8909,0.8909,0.8909,0.8909,0.8909,0.8909,0.8909,0.8909,0.8909,0.8964,0.8909,0.8909,0.8937,0.894,0.8909,0.8909,0.8909,0.8937,0.8992,0.9075,0.9241,1.0296,1.1324,1.2701,1.3512,1.2788,1.2413,1.2417,-0.1328,-0.1297,-0.1112,-0.037,0.0647,0.0894,0.111,0.1294,0.1295,0.0,0.1326,0.1326,0.1294,0.1295,0.0,0.0,0.1541,0.2464,0.3141,0.3387,0.4185,0.4705,0.5244,0.55,0.5311,0.538,0.5654,0.6147,0.5987,0.6652,0.7161,0.7235,0.721,0.721,0.721,0.721,0.721,0.721,0.7296,0.7351,0.7351,0.7435,0.7573,0.774,0.7881,0.81,0.8429,0.8571,0.8685,0.8826,0.8881,0.8881,0.8909,0.8909,0.8909,0.8909,0.8909,0.8909,0.8909,0.8909,0.8909,0.8909,0.8909,0.8909,0.8909,0.8909,0.8909,0.8909,0.8909,0.8909,0.8909,0.8909,0.8909,0.8909,0.8909,0.8909,0.8909,0.8909,0.8909,0.8909,0.8909,0.8909,0.8909,0.8909,0.8909,0.8909,0.8909,0.8909,0.8909,0.8909,0.8909,0.8909,0.8909,0.8909,0.8909,0.8909,0.8909,0.8909,0.8909,0.8909,0.8909,0.8909,0.8909,0.8909,0.8909,0.8909,0.8992,0.9075,0.9182,1.0021,1.1351,1.2272,1.2005,1.1819,1.1846,-0.1668,-0.1668,-0.1451,-0.1266,-0.1143,-0.0803,-0.0463,-0.0185,0.0,0.0,0.0,0.0,0.0,0.0,0.0,0.0,0.0,0.0833,0.1881,0.2003,0.2802,0.3569,0.3876,0.3813,0.4219,0.4091,0.4447,0.4955,0.4938,0.6054,0.676,0.7095,0.7185,0.721,0.721,0.721,0.721,0.721,0.724,0.724,0.7238,0.7268,0.7324,0.7438,0.7604,0.7801,0.81,0.8294,0.846,0.8685,0.8768,0.8823,0.8854,0.8909,0.8909,0.8909,0.8909,0.8909,0.8909,0.8909,0.8909,0.8909,0.8909,0.8909,0.8909,0.8909,0.8909,0.8909,0.8909,0.8909,0.8909,0.8909,0.8909,0.8909,0.8909,0.8909,0.8909,0.8909,0.8909,0.8909,0.8909,0.8909,0.8909,0.8909,0.8909,0.8909,0.8909,0.8909,0.8909,0.8909,0.8909,0.8909,0.8909,0.8909,0.8909,0.8909,0.8909,0.8909,0.8909,0.8909,0.8909,0.8909,0.8909,0.8909,0.8909,0.8909,0.8909,0.8992,0.9071,0.9265,0.9864,1.0598,1.1032,1.1141,1.1091,-0.2008,-0.2008,-0.2008,-0.1791,-0.1483,-0.1143,-0.0834,-0.0494,-0.0185,0.0,0.0,0.0,0.0,0.0,0.0,0.0,0.0,0.0,0.0802,0.148,0.1849,0.2586,0.3077,0.3323,0.3009,0.3395,0.3735,0.3734,0.386,0.4849,0.5882,0.6611,0.6715,0.6783,0.6831,0.7071,0.7127,0.721,0.721,0.721,0.721,0.721,0.7238,0.7324,0.7438,0.7579,0.7771,0.7906,0.8156,0.8377,0.8488,0.8654,0.8768,0.8881,0.8881,0.8909,0.8909,0.8909,0.8909,0.8909,0.8909,0.8909,0.8909,0.8909,0.8909,0.8909,0.8909,0.8909,0.8909,0.8909,0.8909,0.8909,0.8909,0.8909,0.8909,0.8909,0.8909,0.8909,0.8909,0.8909,0.8909,0.8909,0.8909,0.8909,0.8909,0.8909,0.8909,0.8909,0.8909,0.8909,0.8909,0.8909,0.8909,0.8909,0.8909,0.8909,0.8909,0.8909,0.8909,0.8909,0.8909,0.8909,0.8909,0.8909,0.8909,0.8909,0.8909,0.8909,0.8937,0.9154,0.9348,0.9568,1.0221,1.0194,1.0166,-0.2008,-0.2008,-0.2008,-0.1946,-0.1791,-0.1514,-0.1143,-0.0834,-0.0525,-0.0371,-0.034,-0.0093,0.0,0.0,0.0,0.0,0.0,0.0,0.0,0.0,0.0,0.0,0.0,0.0,0.0,0.1539,0.196,0.2462,0.2643,0.3529,0.4167,0.4596,0.5597,0.5821,0.6261,0.6763,0.7015,0.721,0.721,0.721,0.721,0.721,0.721,0.724,0.7296,0.741,0.7576,0.7632,0.7878,0.81,0.8156,0.8294,0.8595,0.8626,0.8654,0.8881,0.8909,0.8909,0.8909,0.8909,0.8909,0.8909,0.8909,0.8909,0.8909,0.8909,0.8909,0.8909,0.8909,0.8909,0.8909,0.8909,0.8909,0.8909,0.8909,0.8909,0.8909,0.8909,0.8909,0.8909,0.8909,0.8909,0.8909,0.8909,0.8909,0.8909,0.8909,0.8909,0.8909,0.8909,0.8909,0.8909,0.8909,0.8909,0.8909,0.8909,0.8909,0.8909,0.8909,0.8909,0.8909,0.8909,0.8909,0.8909,0.8909,0.8909,0.8909,0.8909,0.8909,0.8909,0.9075,0.9185,0.9296,0.9406,0.9596,-0.2008,-0.2008,-0.2008,-0.2008,-0.1977,-0.1761,-0.1575,-0.1328,-0.0896,-0.0649,-0.0463,-0.0278,0.0,0.0,0.0,0.0,0.0,0.0,0.0,0.0,0.0,0.0,0.0,0.0,0.0,0.0,0.0,0.1165,0.1455,0.2274,0.3031,0.3797,0.4468,0.4909,0.5489,0.6095,0.6682,0.7015,0.721,0.721,0.721,0.721,0.721,0.721,0.721,0.7324,0.741,0.7438,0.7604,0.7798,0.7826,0.7989,0.8235,0.8318,0.8457,0.8657,0.874,0.8795,0.8881,0.8909,0.8909,0.8909,0.8909,0.8909,0.8909,0.8909,0.8909,0.8909,0.8909,0.8909,0.8909,0.8909,0.8909,0.8909,0.8909,0.8909,0.8909,0.8909,0.8909,0.8909,0.8909,0.8909,0.8909,0.8909,0.8909,0.8909,0.8909,0.8909,0.8909,0.8909,0.8909,0.8909,0.8909,0.8909,0.8909,0.8909,0.8909,0.8909,0.8909,0.8909,0.8909,0.8909,0.8909,0.8909,0.8909,0.8909,0.8909,0.8909,0.8909,0.8909,0.8909,0.902,0.9075,0.913,0.9323,-0.2008,-0.2008,-0.2008,-0.2008,-0.2008,-0.2008,-0.1977,-0.1946,-0.1359,-0.0926,-0.0649,-0.0556,-0.0401,0.0,0.0,0.0,0.0,0.0,0.0,0.0,0.0,0.0,0.0,0.0,0.0,0.0,0.0,0.0,0.0,0.1124,0.2125,0.3298,0.3436,0.3776,0.4483,0.5034,0.5564,0.6091,0.6596,0.6877,0.7127,0.721,0.721,0.721,0.721,0.721,0.721,0.7268,0.7324,0.7493,0.7607,0.7715,0.7878,0.8045,0.8235,0.8374,0.8512,0.8654,0.8768,0.8854,0.8909,0.8909,0.8909,0.8909,0.8909,0.8909,0.8909,0.8909,0.8909,0.8909,0.8909,0.8909,0.8909,0.8909,0.8909,0.8909,0.8909,0.8909,0.8909,0.8909,0.8909,0.8909,0.8909,0.8909,0.8909,0.8909,0.8909,0.8909,0.8909,0.8909,0.8909,0.8909,0.8909,0.8909,0.8909,0.8909,0.8909,0.8909,0.8909,0.8909,0.8909,0.8909,0.8909,0.8909,0.8909,0.8909,0.8909,0.8909,0.8909,0.8909,0.8909,0.8909,0.8937,0.8968,0.9047,-0.2008,-0.2008,-0.2008,-0.2008,-0.2008,-0.2008,-0.2008,-0.2008,-0.1853,-0.1544,-0.1235,-0.0988,-0.0834,-0.0679,-0.0463,-0.0371,-0.0309,0.0,0.0,0.0,0.0,0.0,0.0,0.0,0.0,0.0,0.0,0.0,0.0,0.0,0.0,0.105,0.1662,0.2587,0.3028,0.3569,0.4332,0.494,0.5509,0.6235,0.6763,0.7071,0.721,0.721,0.721,0.721,0.721,0.721,0.724,0.7296,0.7296,0.7435,0.7687,0.7881,0.8017,0.8156,0.8318,0.846,0.8598,0.874,0.8854,0.8881,0.8881,0.8909,0.8909,0.8909,0.8909,0.8909,0.8909,0.8909,0.8909,0.8909,0.8909,0.8909,0.8909,0.8909,0.8909,0.8909,0.8909,0.8909,0.8909,0.8909,0.8909,0.8909,0.8909,0.8909,0.8909,0.8909,0.8909,0.8909,0.8909,0.8909,0.8909,0.8909,0.8909,0.8909,0.8909,0.8909,0.8909,0.8909,0.8909,0.8909,0.8909,0.8909,0.8909,0.8909,0.8909,0.8909,0.8909,0.8909,0.8909,0.8909,0.8909,0.8937,0.8937,-0.1964,-0.2007,-0.2008,-0.2008,-0.2008,-0.2008,-0.2008,-0.2008,-0.2008,-0.1915,-0.1699,-0.139,-0.1143,-0.105,-0.0803,-0.0618,-0.0525,-0.034,0.0,0.0,0.0,0.0,0.0,0.0,0.0,0.0,0.0,0.0,0.0,0.0,0.0,0.0,0.0,0.1315,0.1696,0.2521,0.306,0.3679,0.4271,0.4953,0.5926,0.6455,0.7099,0.721,0.7182,0.721,0.721,0.721,0.721,0.721,0.721,0.724,0.7435,0.7518,0.7684,0.7823,0.7992,0.8156,0.8322,0.8515,0.8712,0.8712,0.8881,0.8881,0.8909,0.8909,0.8909,0.8909,0.8909,0.8909,0.8909,0.8909,0.8909,0.8909,0.8909,0.8909,0.8909,0.8909,0.8909,0.8909,0.8909,0.8909,0.8909,0.8909,0.8909,0.8909,0.8909,0.8909,0.8909,0.8909,0.8909,0.8909,0.8909,0.8909,0.8909,0.8909,0.8909,0.8909,0.8909,0.8909,0.8909,0.8909,0.8909,0.8909,0.8909,0.8909,0.8909,0.8909,0.8909,0.8909,0.8909,0.8909,0.8909,0.8909,0.8909,-0.1949,-0.2006,-0.2008,-0.2008,-0.2008,-0.2008,-0.2008,-0.2008,-0.2008,-0.2008,-0.1946,-0.1699,-0.139,-0.1204,-0.105,-0.0865,-0.0679,-0.0494,-0.0309,-0.0124,0.0,0.0,0.0,0.0,0.0,0.0,0.0,0.0,0.0,0.0,0.0,0.0,0.0,0.0513,0.0,0.1677,0.1907,0.2545,0.3061,0.3342,0.4367,0.5646,0.6485,0.6904,0.7127,0.7182,0.721,0.721,0.721,0.721,0.721,0.721,0.724,0.7321,0.7379,0.7549,0.769,0.7798,0.7965,0.8239,0.8377,0.8488,0.8712,0.8826,0.8826,0.8881,0.8881,0.8909,0.8909,0.8909,0.8909,0.8909,0.8909,0.8909,0.8909,0.8909,0.8909,0.8909,0.8909,0.8909,0.8909,0.8909,0.8909,0.8909,0.8909,0.8909,0.8909,0.8909,0.8909,0.8909,0.8909,0.8909,0.8909,0.8909,0.8909,0.8909,0.8909,0.8909,0.8909,0.8909,0.8909,0.8909,0.8909,0.8909,0.8909,0.8909,0.8909,0.8909,0.8909,0.8909,0.8909,0.8909,0.8909,0.8909,0.8909,-0.1949,-0.2008,-0.2008,-0.2008,-0.2008,-0.2008,-0.2008,-0.2008,-0.2008,-0.2008,-0.1977,-0.1977,-0.1853,-0.1791,-0.1514,-0.1297,-0.1112,-0.0834,-0.0556,-0.0401,-0.0185,0.0,0.0,0.0,0.0,0.0,0.0,0.0,0.0,0.0,0.0,0.0,0.0,0.0,0.0,0.0,0.0,0.0,0.1806,0.2133,0.2808,0.406,0.5399,0.6068,0.668,0.6988,0.721,0.721,0.721,0.721,0.721,0.721,0.721,0.721,0.7268,0.7324,0.7465,0.7576,0.7771,0.7965,0.8072,0.8156,0.8349,0.8543,0.8626,0.8795,0.8795,0.8854,0.8881,0.8909,0.8909,0.8909,0.8909,0.8909,0.8909,0.8909,0.8909,0.8909,0.8909,0.8909,0.8909,0.8909,0.8909,0.8909,0.8909,0.8909,0.8909,0.8909,0.8909,0.8909,0.8909,0.8909,0.8909,0.8909,0.8909,0.8909,0.8909,0.8909,0.8909,0.8909,0.8909,0.8909,0.8909,0.8909,0.8909,0.8909,0.8909,0.8909,0.8909,0.8909,0.8909,0.8909,0.8909,0.8909,0.8909]},{"header":{"parameterUnit":"m.s-1","parameterCategory":1,"la1":31.0,"la2":29.5877,"lo1":-88.7671,"lo2":-86.6584,"dy":0.0162,"dx":0.0185,"nx":115,"ny":88,"refTime":"2023-10-17T12:00:00:Z","depth":0,"parameterNumber":3,"parameterNumberName":"V-component_of_WINDS"},"data":[0.0,0.0,0.0,0.0,0.0,0.0,0.0,0.0,0.0,0.0,0.0,0.0,0.0,0.0,0.0,0.0,0.0,0.0,0.0,0.0,0.0,0.0,0.0,0.0,0.0,0.0,0.0,0.0,0.0,0.0,0.0,0.0,0.0,0.0,0.0,0.0,0.0,0.0,0.0,0.0,0.0,0.0,0.0,0.0,0.0,0.0,0.0,0.0,0.0,0.0,0.0,0.0,0.0,0.0,0.0,0.0,0.0,0.0,0.0,0.0,0.0,0.0,0.0,0.0,0.0,0.0,0.0,0.0,0.0,0.0,0.0,0.0,0.0,0.0,0.0,0.0,0.0,0.0,0.0,0.0,0.0,0.0,0.0,0.0,0.0,0.0,0.0,0.0,0.0,0.0,0.0,0.0,0.0,0.0,0.0,0.0,0.0,0.0,0.0,0.0,0.0,0.0,0.0,0.0,0.0,0.0,0.0,0.0,0.0,0.0,0.0,0.0,0.0,0.0,0.0,0.0,0.0,0.0,0.0,0.0,0.0,0.0,0.0,0.0,0.0,0.0,0.0,0.0,0.0,0.0,0.0,0.0,0.0,0.0,0.0,0.0,0.0,0.0,0.0,0.0,0.0,0.0,0.0,0.0,0.0,0.0,0.0,0.0,0.0,0.0,0.0,0.0,0.0,0.0,0.0,0.0,0.0,0.0,0.0,0.0,0.0,0.0,0.0,0.0,0.0,0.0,0.0,0.0,0.0,0.0,0.0,0.0,0.0,0.0,0.0,0.0,0.0,0.0,0.0,0.0,0.0,0.0,0.0,0.0,0.0,0.0,0.0,0.0,0.0,0.0,0.0,0.0,0.0,0.0,0.0,0.0,0.0,0.0,0.0,0.0,0.0,0.0,0.0,0.0,0.0,0.0,0.0,0.0,0.0,0.0,0.0,0.0,0.0,0.0,0.0,0.0,0.0,0.0,0.0,0.0,0.0,0.0,0.0,0.0,0.0,0.0,0.0,0.0,0.0,0.0,0.0,0.0,0.0,0.0,0.0,0.0,0.0,0.0,0.0,0.0,0.0,0.0,0.0,0.0,0.0,0.0,0.0,0.0,0.0,0.0,0.0,0.0,0.0,0.0,0.0,0.0,0.0,0.0,0.0,0.0,0.0,0.0,0.0,0.0,0.0,0.0,0.0,0.0,0.0,0.0,0.0,0.0,0.0,0.0,0.0,0.0,0.0,0.0,0.0,0.0,0.0,0.0,0.0,0.0,0.0,0.0,0.0,0.0,0.0,0.0,0.0,0.0,0.0,0.0,0.0,0.0,0.0,0.0,0.0,0.0,0.0,0.0,0.0,0.0,0.0,0.0,0.0,0.0,0.0,0.0,0.0,0.0,0.0,0.0,0.0,0.0,0.0,0.0,0.0,0.0,0.0,0.0,0.0,0.0,0.0,0.0,0.0,0.0,0.0,0.0,0.0,0.0,0.0,0.0,0.0,0.0,0.0,0.0,0.0,0.0,0.0,0.0,0.0,0.0,0.0,0.0,0.0,0.0,0.0,0.0,0.0,0.0,0.0,0.0,0.0,0.0,0.0,0.0,0.0,0.0,0.0,0.0,0.0,0.0,0.0,0.0,0.0,0.0,0.0,0.0,0.0,0.0,0.0,0.0,0.0,0.0,0.0,0.0,0.0,0.0,0.0,0.0,0.0,0.0,0.0,0.0,0.0,0.0,0.0,0.0,0.0,0.0,0.0,0.0,0.0,0.0,0.0,0.0,0.0,0.0,0.0,0.0,0.0,0.0,0.0,0.0,0.0,0.0,0.0,0.0,0.0,0.0,0.0,0.0,0.0,0.0,0.0,0.0,0.0,0.0,0.0,0.0,0.0,0.0,0.0,0.0,0.0,0.0,0.0,0.0,0.0,0.0,0.0,0.0,0.0,0.0,0.0,0.0,0.0,0.0,0.0,0.0,0.0,0.0,0.0,0.0,0.0,0.0,0.0,0.0,0.0,0.0,0.0,0.0,0.0,0.0,0.0,0.0,0.0,0.0,0.0,0.0,0.0,0.0,0.0,0.0,0.0,0.0,0.0,0.0,0.0,0.0,0.0,0.0,0.0,0.0,0.0,0.0,0.0,0.0,0.0,0.0,0.0,0.0,0.0,0.0,0.0,0.0,0.0,0.0,0.0,0.0,0.0,0.0,0.0,0.0,0.0,0.0,0.0,0.0,0.0,0.0,0.0,0.0,0.0,0.0,0.0,0.0,0.0,0.0,0.0,0.0,0.0,0.0,0.0,0.0,0.0,0.0,0.0,0.0,0.0,0.0,0.0,0.0,0.0,0.0,0.0,0.0,0.0,0.0,0.0,0.0,0.0,0.0,0.0,0.0,0.0,0.0,0.0,0.0,0.0,0.0,0.0,0.0,0.0,0.0,0.0,0.0,0.0,0.0,0.0,0.0,0.0,0.0,0.0,0.0,0.0,0.0,0.0,0.0,0.0,0.0,0.0,0.0,0.0,0.0,0.0,0.0,0.0,0.0,0.0,0.0,0.0,0.0,0.0,0.0,0.0,0.0,0.0,0.0,0.0,0.0,0.0,0.0,0.0,0.0,0.0,0.0,0.0,0.0,0.0,0.0,0.0,0.0,0.0,0.0,0.0,0.0,0.0,0.0,0.0,0.0,0.0,0.0,0.0,0.0,0.0,0.0,0.0,0.0,0.0,0.0,0.0,0.0,0.0,0.0,0.0,0.0,0.0,0.0,0.0,0.0,0.0,0.0,0.0,0.0,0.0,0.0,0.0,0.0,0.0,0.0,0.0,0.0,0.0,0.0,0.0,0.0,0.0,0.0,0.0,0.0,0.0,0.0,0.0,0.0,0.0,0.0,0.0,0.0,0.0,0.0,0.0,0.0,0.0,0.0,0.0,0.0,0.0,0.0,0.0,0.0,0.0,0.0,0.0,0.0,0.0,0.0,0.0,0.0,0.0,0.0,0.0,0.0,0.0,0.0,0.0,0.0,0.0,0.0,0.0,0.0,0.0,0.0,0.0,0.0,0.0,0.0,0.0,0.0,0.0,0.0,0.0,0.0,0.0,0.0,0.0,0.0,0.0,0.0,0.0,0.0,0.0,0.0,0.0,0.0,0.0,0.0,0.0,0.0,0.0,0.0,0.0,0.0,0.0,0.0,0.0,0.0,0.0,0.0,0.0,0.0,0.0,0.0,0.0,0.0,0.0,0.0,0.0,0.0,0.0,0.0,0.0,0.0,0.0,0.0,0.0,0.0,0.0,0.0,0.0,0.0,0.0,0.0,0.0,0.0,0.0,0.0,0.0,0.0,0.0,0.0,0.0,0.0,0.0,0.0,0.0,0.0,0.0,0.0,0.0,0.0,0.0,0.0,0.0,0.0,0.0,0.0,0.0,0.0,0.0,0.0,0.0,0.0,0.0,0.0,0.0,0.0,0.0,0.0,0.0,0.0,0.0,0.0,0.0,0.0,0.0,0.0,0.0,0.0,0.0,0.0,0.0,0.0,0.0,0.0,0.0,0.0,0.0,0.0,0.0,0.0,0.0,0.0,0.0,0.0,0.0,0.0,0.0,0.0,0.0,0.0,0.0,0.0,0.0,0.0,0.0,0.0,0.0,0.0,0.0,0.0,0.0,0.0,0.0,0.0,0.0,0.0,0.0,0.0,0.0,0.0,0.0,0.0,0.0,0.0,0.0,0.0,0.0,0.0,0.0,0.0,0.0,0.0,0.0,0.0,0.0,0.0,0.0,0.0,0.0,0.0,0.0,0.0,0.0,0.0,0.0,0.0,0.0,0.0,0.0,0.0,0.0,0.0,0.0,0.0,0.0,0.0,0.0,0.0,0.0,0.0,0.0,0.0,0.0,0.0,0.0,0.0,0.0,0.0,0.0,0.0,0.0,0.0,0.0,0.0,0.0,0.0,0.0,0.0,0.0,0.0,0.0,0.0,0.0,0.0,0.0,0.0,0.0,0.0,0.0,0.0,0.0,0.0,0.0,0.0,0.0,0.0,0.0,0.0,0.0,0.0,0.0,0.0,0.0,0.0,0.0,0.0,0.0,0.0,0.0,0.0,0.0,0.0,0.0,0.0,0.0,0.0,0.0,0.0,0.0,0.0,0.0,0.0,0.0,0.0,0.0,0.0,0.0,0.0,0.0,0.0,0.0,0.0,0.0,0.0,0.0,0.0,0.0,0.0,0.0,0.0,0.0,0.0,0.0,0.0,0.0,0.0,0.0,0.0,0.0,0.0,0.0,0.0,0.0,0.0,1.1986,0.0,0.0,0.0,0.0,0.0,0.0,0.0,0.0,0.0,0.0,0.0,0.0,0.0,0.0,0.0,0.0,0.0,0.0,0.0,0.0,0.0,0.0,0.0,0.0,0.0,0.0,0.0,0.0,0.0,0.0,0.0,0.0,0.0,0.0,0.0,0.0,0.0,0.0,0.0,0.0,0.0,0.0,0.0,0.0,0.0,0.0,0.0,0.0,0.0,0.0,0.0,0.0,0.0,0.0,0.0,0.0,0.0,0.0,0.0,0.0,0.0,0.0,0.0,0.0,0.0,0.0,0.0,0.0,0.0,0.0,0.0,0.0,0.0,0.0,0.0,0.0,0.0,0.0,0.0,0.0,0.0,0.0,0.0,0.0,0.0,0.0,0.0,0.0,0.0,0.0,0.0,0.0,0.0,0.0,0.0,0.0,0.0,0.0,0.0,0.0,0.0,0.0,0.0,0.0,0.0,0.0,0.0,0.0,0.0,0.0,1.1774,1.1837,1.1747,1.1757,1.188,0.0,0.0,0.0,0.0,0.0,0.0,0.0,0.0,0.0,0.0,0.0,0.0,0.0,0.0,0.0,0.0,0.0,0.0,0.0,0.0,0.0,0.0,0.0,0.0,0.0,0.0,0.0,0.0,0.0,0.0,0.0,0.0,0.0,0.0,0.0,0.0,0.0,0.0,0.0,0.0,0.0,0.0,0.0,0.0,0.0,0.0,0.0,0.0,0.0,0.0,0.0,0.0,0.0,0.0,0.0,0.0,0.0,0.0,0.0,0.0,0.0,0.0,0.0,0.0,0.0,0.0,0.0,0.0,0.0,0.0,0.0,0.0,0.0,0.0,0.0,0.0,0.0,0.0,0.0,0.0,0.0,0.0,0.0,0.0,0.0,0.0,0.0,0.0,0.0,0.0,0.0,0.0,0.0,0.0,0.0,0.0,0.0,0.0,0.0,0.0,0.0,0.0,0.0,0.0,0.0,0.0,0.0,0.0,0.0,0.0,0.0,0.0,1.2183,1.2214,1.227,0.0,0.0,0.0,0.0,0.0,0.0,0.0,0.0,0.0,0.0,0.0,0.0,0.0,0.0,0.0,0.0,0.0,0.0,0.0,0.0,0.0,0.0,0.0,0.0,0.0,0.0,0.0,0.0,0.0,0.0,0.0,0.0,0.0,0.0,0.0,0.0,0.0,0.0,0.0,0.0,0.0,0.0,0.0,0.0,0.0,0.0,0.0,0.0,0.0,0.0,0.0,0.0,0.0,0.0,0.0,0.0,0.0,0.0,0.0,0.0,0.0,0.0,0.0,0.0,0.0,0.0,0.0,0.0,0.0,0.0,0.0,0.0,0.0,0.0,0.0,0.0,0.0,0.0,0.0,0.0,0.0,0.0,0.0,0.0,0.0,0.0,0.0,0.0,0.0,0.0,0.0,0.0,0.0,0.0,0.0,0.0,0.0,0.0,0.0,0.0,0.0,0.0,0.0,0.0,0.0,0.0,0.0,0.0,0.0,0.0,1.2251,1.3559,1.3429,0.0,1.3686,0.0,0.0,0.0,0.0,0.0,0.0,0.0,0.0,0.0,0.0,0.0,0.0,0.0,0.0,0.0,0.0,0.0,0.0,0.0,0.0,0.0,0.0,0.0,0.0,0.0,0.0,0.0,0.0,0.0,0.0,0.0,0.0,0.0,0.0,0.0,0.0,0.0,0.0,0.0,0.0,0.0,0.0,0.0,0.0,0.0,0.0,0.0,0.0,0.0,0.0,0.0,0.0,0.0,0.0,0.0,0.0,0.0,0.0,0.0,0.0,0.0,0.0,0.0,0.0,0.0,0.0,0.0,0.0,0.0,0.0,0.0,0.0,0.0,0.0,0.0,0.0,0.0,0.0,0.0,0.0,0.0,0.0,0.0,0.0,0.0,0.0,0.0,0.0,0.0,0.0,0.0,0.0,0.0,0.0,0.0,0.0,0.0,0.0,0.0,0.0,0.0,0.0,0.0,0.0,0.0,0.0,0.0,0.0,0.0,0.0,1.3055,1.3606,1.3651,1.3714,0.0,0.0,0.0,0.0,0.0,0.0,0.0,0.0,0.0,0.0,0.0,0.0,0.0,0.0,0.0,0.0,0.0,0.0,0.0,0.0,0.0,0.0,0.0,0.0,0.0,0.0,0.0,0.0,0.0,0.0,0.0,0.0,0.0,0.0,0.0,0.0,0.0,0.0,0.0,0.0,0.0,0.0,0.0,0.0,0.0,0.0,0.0,0.0,0.0,0.0,0.0,0.0,0.0,0.0,0.0,0.0,0.0,0.0,0.0,0.0,0.0,0.0,0.0,0.0,0.0,0.0,0.0,0.0,0.0,0.0,0.0,0.0,0.0,0.0,0.0,0.0,0.0,0.0,0.0,0.0,0.0,0.0,0.0,0.0,0.0,0.0,0.0,0.0,0.0,0.0,0.0,0.0,0.0,0.0,0.0,0.0,0.0,0.0,0.0,0.0,0.0,0.0,0.0,0.0,0.0,0.0,0.0,0.0,0.0,0.0,1.3262,1.3704,1.4003,1.4113,1.4067,1.3874,0.0,0.0,0.0,0.0,0.0,0.0,0.0,0.0,0.0,0.0,0.0,0.0,0.0,0.0,0.0,0.0,0.0,0.0,0.0,0.0,0.0,0.0,0.0,0.0,0.0,0.0,0.0,0.0,0.0,0.0,0.0,0.0,0.0,0.0,0.0,0.0,0.0,0.0,0.0,0.0,0.0,0.0,0.0,0.0,0.0,0.0,0.0,0.0,0.0,0.0,0.0,0.0,0.0,0.0,0.0,0.0,0.0,0.0,0.0,0.0,0.0,0.0,0.0,0.0,0.0,0.0,0.0,0.0,0.0,0.0,0.0,0.0,0.0,0.0,0.0,0.0,0.0,0.0,0.0,0.0,0.0,0.0,0.0,0.0,0.0,0.0,0.0,0.0,0.0,0.0,0.0,0.0,0.0,0.0,0.0,0.0,0.0,0.0,0.0,0.0,0.0,0.0,0.0,0.0,0.0,0.0,0.0,0.0,1.4921,1.403,1.4092,1.5264,1.5141,1.4718,0.0,0.0,0.0,0.0,0.0,0.0,0.0,0.0,0.0,0.0,0.0,0.0,0.0,0.0,0.0,0.0,0.0,0.0,0.0,0.0,0.0,0.0,0.0,0.0,0.0,0.0,0.0,0.0,0.0,0.0,0.0,0.0,0.0,0.0,0.0,0.0,0.0,0.0,0.0,0.0,0.0,0.0,0.0,0.0,0.0,0.0,0.0,0.0,0.0,0.0,0.0,0.0,0.0,0.0,0.0,0.0,0.0,0.0,0.0,0.0,0.0,0.0,0.0,0.0,0.0,0.0,0.0,0.0,0.0,0.0,0.0,0.0,0.0,0.0,0.0,0.0,0.0,0.0,0.0,0.0,0.0,0.0,0.0,0.0,0.0,0.0,0.0,0.0,0.0,0.0,0.0,0.0,0.0,0.0,0.0,0.0,0.0,0.0,0.0,0.0,0.0,0.0,0.0,0.0,0.0,0.0,0.0,0.0,0.0,1.2835,1.3224,1.4271,1.5894,1.4863,1.4313,0.0,0.0,0.0,0.0,0.0,0.0,0.0,0.0,0.0,0.0,0.0,0.0,0.0,0.0,0.0,0.0,0.0,0.0,0.0,0.0,0.0,0.0,0.0,0.0,0.0,0.0,0.0,0.0,0.0,0.0,0.0,0.0,0.0,0.0,0.0,0.0,0.0,0.0,0.0,0.0,0.0,0.0,0.0,0.0,0.0,0.0,0.0,0.0,0.0,0.0,0.0,0.0,0.0,0.0,0.0,0.0,0.0,0.0,0.0,0.0,0.0,0.0,0.0,0.0,0.0,0.0,0.0,0.0,0.0,0.0,0.0,0.0,0.0,0.0,0.0,0.0,0.0,0.0,0.0,0.0,0.0,0.0,0.0,0.0,0.0,0.0,0.0,0.0,0.0,0.0,0.0,0.0,0.0,0.0,0.0,0.0,0.0,0.0,0.0,0.0,0.0,0.0,0.0,0.0,0.0,0.0,0.0,0.0,0.0,1.2573,0.0,1.4769,1.575,1.4548,1.3836,0.0,0.0,0.0,0.0,0.0,0.0,0.0,0.0,0.0,0.0,0.0,0.0,0.0,0.0,0.0,0.0,0.0,0.0,0.0,0.0,0.0,0.0,0.0,0.0,0.0,0.0,0.0,0.0,0.0,0.0,0.0,0.0,0.0,0.0,0.0,0.0,0.0,0.0,0.0,0.0,0.0,0.0,0.0,0.0,0.0,0.0,0.0,0.0,0.0,0.0,0.0,0.0,0.0,0.0,0.0,0.0,0.0,0.0,0.0,0.0,0.0,0.0,0.0,0.0,0.0,0.0,0.0,0.0,0.0,0.0,0.0,0.0,0.0,0.0,0.0,0.0,0.0,0.0,0.0,0.0,0.0,0.0,0.0,0.0,0.0,0.0,0.0,0.0,0.0,0.0,0.0,0.0,0.0,0.0,0.0,0.0,0.0,0.0,0.0,0.0,0.0,0.0,0.0,0.0,0.0,0.0,0.0,0.0,1.266,1.4648,1.5481,1.5507,1.4751,1.4303,1.3389,0.0,0.0,0.0,0.0,0.0,0.0,0.0,0.0,0.0,0.0,0.0,0.0,0.0,0.0,0.0,0.0,0.0,0.0,0.0,0.0,0.0,0.0,0.0,0.0,0.0,0.0,0.0,0.0,0.0,0.0,0.0,0.0,0.0,0.0,0.0,0.0,0.0,0.0,0.0,0.0,0.0,0.0,0.0,0.0,0.0,0.0,0.0,0.0,0.0,0.0,0.0,0.0,0.0,0.0,0.0,0.0,0.0,0.0,0.0,0.0,0.0,0.0,0.0,0.0,0.0,0.0,0.0,0.0,0.0,0.0,0.0,0.0,0.0,0.0,0.0,0.0,0.0,0.0,0.0,0.0,0.0,0.0,0.0,0.0,0.0,0.0,0.0,0.0,0.0,0.0,0.0,0.0,0.0,0.0,0.0,0.0,0.0,0.0,0.0,0.0,0.0,0.0,0.0,0.0,0.0,0.0,0.0,0.0,0.0,1.3123,1.4569,1.5367,1.5267,1.3976,1.353,0.0,0.0,0.0,0.0,0.0,0.0,0.0,0.0,0.0,0.0,0.0,0.0,0.0,0.0,0.0,0.0,0.0,0.0,0.0,0.0,0.0,0.0,0.0,0.0,0.0,0.0,0.0,0.0,0.0,0.0,0.0,0.0,0.0,0.0,0.0,0.0,0.0,0.0,0.0,0.0,0.0,0.0,0.0,0.0,0.0,0.0,0.0,0.0,0.0,0.0,0.0,0.0,0.0,0.0,0.0,0.0,0.0,0.0,0.0,0.0,0.0,0.0,0.0,0.0,0.0,0.0,0.0,0.0,0.0,0.0,0.0,0.0,0.0,0.0,0.0,0.0,0.0,0.0,0.0,0.0,0.0,0.0,0.0,0.0,0.0,0.0,0.0,0.0,0.0,0.0,0.0,0.0,0.0,0.0,0.0,0.0,0.0,0.0,0.0,0.0,0.0,0.0,0.0,0.0,0.0,0.0,0.0,0.0,0.0,1.3949,1.5604,1.6509,1.6417,1.5078,1.4446,1.4646,0.0,0.0,0.0,0.0,0.0,0.0,0.0,0.0,0.0,0.0,0.0,0.0,0.0,0.0,0.0,0.0,0.0,0.0,0.0,0.0,0.0,0.0,0.0,0.0,0.0,0.0,0.0,0.0,0.0,0.0,0.0,0.0,0.0,0.0,0.0,0.0,0.0,0.0,0.0,0.0,0.0,0.0,0.0,0.0,0.0,0.0,0.0,0.0,0.0,0.0,0.0,0.0,0.0,0.0,0.0,0.0,0.0,0.0,0.0,0.0,0.0,0.0,0.0,0.0,0.0,0.0,0.0,0.0,0.0,0.0,0.0,0.0,0.0,0.0,0.0,0.0,0.0,0.0,0.0,0.0,0.0,0.0,0.0,0.0,0.0,0.0,0.0,0.0,0.0,0.0,0.0,0.0,0.0,0.0,0.0,0.0,0.0,0.0,0.0,0.0,0.0,0.0,0.0,0.0,0.0,0.0,0.0,0.0,1.6644,1.8364,1.8851,1.7994,1.7288,1.6076,0.0,0.0,0.0,0.0,0.0,0.0,0.0,0.0,0.0,0.0,0.0,0.0,0.0,0.0,0.0,0.0,0.0,0.0,0.0,0.0,0.0,0.0,0.0,0.0,0.0,0.0,0.0,0.0,0.0,0.0,0.0,0.0,0.0,0.0,0.0,0.0,0.0,0.0,0.0,0.0,0.0,0.0,0.0,0.0,0.0,0.0,0.0,0.0,0.0,0.0,0.0,0.0,0.0,0.0,0.0,0.0,0.0,0.0,0.0,0.0,0.0,0.0,0.0,0.0,0.0,0.0,0.0,0.0,0.0,0.0,0.0,0.0,0.0,0.0,0.0,0.0,0.0,0.0,0.0,0.0,0.0,0.0,0.0,0.0,0.0,0.0,0.0,0.0,0.0,0.0,0.0,0.0,0.0,0.0,0.0,0.0,0.0,0.0,0.0,0.0,0.0,0.0,0.0,0.0,0.0,0.0,0.0,0.0,0.0,1.9465,2.1553,2.1871,2.0213,1.8984,1.8142,0.0,0.0,0.0,0.0,0.0,0.0,0.0,0.0,0.0,0.0,0.0,0.0,0.0,0.0,0.0,0.0,0.0,0.0,0.0,0.0,0.0,0.0,0.0,0.0,0.0,0.0,0.0,0.0,0.0,0.0,0.0,0.0,0.0,0.0,0.0,0.0,0.0,0.0,0.0,0.0,0.0,0.0,0.0,0.0,0.0,0.0,0.0,0.0,0.0,0.0,0.0,0.0,0.0,0.0,0.0,0.0,0.0,0.0,0.0,0.0,0.0,0.0,0.0,0.0,0.0,0.0,0.0,0.0,0.0,0.0,0.0,0.0,0.0,0.0,0.0,0.0,0.0,0.0,0.0,0.0,0.0,0.0,0.0,0.0,0.0,0.0,0.0,0.0,0.0,0.0,0.0,0.0,0.0,0.0,0.0,0.0,0.0,0.0,0.0,0.0,0.0,0.0,0.0,0.0,0.0,0.0,0.0,0.0,1.9711,2.0993,2.3405,2.4098,2.2955,2.1013,1.9659,0.0,0.0,0.0,0.0,0.0,0.0,0.0,0.0,0.0,0.0,0.0,0.0,0.0,0.0,0.0,0.0,0.0,0.0,0.0,0.0,0.0,0.0,0.0,0.0,0.0,0.0,0.0,0.0,0.0,0.0,0.0,0.0,0.0,0.0,0.0,0.0,0.0,0.0,0.0,0.0,0.0,0.0,0.0,0.0,0.0,0.0,0.0,0.0,0.0,0.0,0.0,0.0,0.0,0.0,0.0,0.0,0.0,0.0,0.0,0.0,0.0,0.0,0.0,0.0,0.0,0.0,0.0,0.0,0.0,0.0,0.0,0.0,0.0,0.0,0.0,0.0,0.0,0.0,0.0,0.0,0.0,0.0,0.0,0.0,0.0,0.0,0.0,0.0,0.0,0.0,0.0,0.0,0.0,0.0,0.0,0.0,0.0,0.0,0.0,0.0,0.0,0.0,0.0,0.0,0.0,0.0,0.0,0.0,2.0574,2.209,2.4455,2.5702,2.5652,2.3131,2.0987,0.0,0.0,0.0,0.0,0.0,0.0,0.0,0.0,0.0,0.0,0.0,0.0,0.0,0.0,0.0,0.0,0.0,0.0,0.0,0.0,0.0,0.0,0.0,0.0,0.0,0.0,0.0,0.0,0.0,0.0,0.0,0.0,0.0,0.0,0.0,0.0,0.0,0.0,0.0,0.0,0.0,0.0,0.0,0.0,0.0,0.0,0.0,0.0,0.0,0.0,0.0,0.0,0.0,0.0,0.0,0.0,0.0,0.0,0.0,0.0,0.0,0.0,0.0,0.0,0.0,0.0,0.0,0.0,0.0,0.0,0.0,0.0,0.0,0.0,0.0,0.0,0.0,0.0,0.0,0.0,0.0,0.0,0.0,0.0,0.0,0.0,0.0,0.0,0.0,0.0,0.0,0.0,0.0,0.0,0.0,0.0,0.0,0.0,0.0,0.0,0.0,0.0,0.0,0.0,0.0,0.0,0.0,0.0,2.2962,2.457,2.5831,2.6454,2.6454,2.4315,2.2753,0.0,0.0,0.0,0.0,0.0,0.0,0.0,0.0,0.0,0.0,0.0,0.0,0.0,0.0,0.0,0.0,0.0,0.0,0.0,0.0,0.0,0.0,0.0,0.0,0.0,0.0,0.0,0.0,0.0,0.0,0.0,0.0,0.0,0.0,0.0,0.0,0.0,0.0,0.0,0.0,0.0,0.0,0.0,0.0,0.0,0.0,0.0,0.0,1.4498,0.0,0.0,0.0,0.0,0.0,0.0,0.0,0.0,0.0,0.0,0.0,0.0,0.0,0.0,0.0,0.0,0.0,0.0,0.0,0.0,0.0,0.0,0.0,0.0,0.0,0.0,0.0,0.0,0.0,0.0,0.0,0.0,0.0,0.0,0.0,0.0,0.0,0.0,0.0,0.0,0.0,0.0,0.0,0.0,0.0,0.0,0.0,0.0,0.0,0.0,0.0,0.0,0.0,0.0,0.0,0.0,0.0,0.0,0.0,2.3708,2.5305,2.6244,2.6708,2.6649,2.5196,2.3836,0.0,0.0,0.0,0.0,0.0,0.0,0.0,0.0,0.0,0.0,0.0,0.0,0.0,0.0,0.0,0.0,0.0,0.0,0.0,0.0,0.0,0.0,0.0,0.0,0.0,0.0,0.0,0.0,0.0,0.0,0.0,0.0,0.0,0.0,0.0,0.0,0.0,0.0,0.0,0.0,0.0,0.0,0.0,0.0,0.0,0.0,0.0,0.0,0.0,0.0,0.0,0.0,0.0,0.0,0.0,0.0,0.0,0.0,0.0,0.0,0.0,0.0,0.0,0.0,0.0,0.0,0.0,0.0,0.0,0.0,0.0,0.0,0.0,0.0,0.0,0.0,0.0,0.0,0.0,0.0,0.0,0.0,0.0,0.0,0.0,0.0,0.0,0.0,0.0,0.0,0.0,0.0,0.0,0.0,0.0,0.0,0.0,0.0,0.0,0.0,0.0,0.0,0.0,0.0,0.0,0.0,0.0,2.2308,2.3932,2.5631,2.6573,2.7055,2.7012,2.6126,2.4746,2.2965,0.0,0.0,0.0,0.0,0.0,0.0,0.0,0.0,0.0,0.0,0.0,0.0,0.0,0.0,0.0,0.0,0.0,0.0,0.0,0.0,0.0,0.0,0.0,0.0,0.0,0.0,0.0,0.0,0.0,0.0,0.0,0.0,0.0,0.0,0.0,0.0,0.0,0.0,1.2657,1.4069,0.0,0.0,0.0,0.0,0.0,0.0,0.0,0.0,1.5891,0.0,0.0,0.0,0.0,0.0,0.0,0.0,0.0,0.0,0.0,0.0,0.0,0.0,0.0,0.0,0.0,0.0,0.0,0.0,0.0,0.0,0.0,0.0,0.0,0.0,0.0,0.0,0.0,0.0,0.0,0.0,0.0,0.0,0.0,0.0,0.0,0.0,0.0,0.0,0.0,0.0,0.0,0.0,0.0,0.0,0.0,0.0,0.0,0.0,0.0,0.0,0.0,0.0,0.0,0.0,0.0,2.2455,2.3419,2.5029,2.7315,2.8196,2.862,2.8595,2.7591,2.6185,2.4295,0.0,0.0,0.0,0.0,0.0,0.0,0.0,0.0,0.0,0.0,0.0,0.0,0.0,0.0,0.0,0.0,0.0,0.0,0.0,0.0,0.0,0.0,0.0,0.0,0.0,0.0,0.0,0.0,0.0,0.0,0.0,0.0,0.0,0.0,0.0,0.0,0.0,0.0,0.0,1.6095,1.684,0.0,0.0,0.0,0.0,0.0,0.0,0.0,0.0,1.6884,0.0,0.0,0.0,0.0,0.0,0.0,0.0,0.0,0.0,0.0,0.0,0.0,0.0,0.0,0.0,0.0,0.0,0.0,0.0,0.0,0.0,0.0,0.0,0.0,0.0,0.0,0.0,0.0,0.0,0.0,0.0,0.0,0.0,0.0,0.0,0.0,0.0,0.0,0.0,0.0,0.0,0.0,0.0,0.0,0.0,0.0,0.0,0.0,0.0,0.0,0.0,0.0,0.0,0.0,0.0,2.2928,2.4896,2.673,2.8357,2.8798,2.8993,2.8976,2.7654,2.6216,0.0,0.0,0.0,0.0,0.0,0.0,0.0,0.0,0.0,0.0,0.0,0.0,0.0,0.0,0.0,0.0,0.0,0.0,0.0,0.0,0.0,0.0,0.0,0.0,0.0,0.0,0.0,0.0,0.0,0.0,0.0,0.0,0.0,0.0,0.0,0.0,0.0,0.0,0.0,0.0,1.7386,1.8378,1.9719,0.0,0.0,0.0,0.0,0.0,0.0,1.8408,1.8128,0.0,0.0,0.0,0.0,0.0,0.0,0.0,0.0,0.0,0.0,0.0,0.0,0.0,0.0,0.0,0.0,0.0,0.0,0.0,0.0,0.0,0.0,0.0,0.0,0.0,0.0,0.0,0.0,0.0,0.0,0.0,0.0,0.0,0.0,0.0,0.0,0.0,0.0,0.0,0.0,0.0,0.0,0.0,0.0,0.0,0.0,0.0,0.0,0.0,0.0,0.0,0.0,0.0,0.0,0.0,2.3034,2.6033,2.8128,2.9161,2.9365,2.945,2.9416,2.7746,2.6232,0.0,0.0,0.0,0.0,0.0,0.0,0.0,0.0,0.0,0.0,0.0,0.0,0.0,0.0,0.0,0.0,0.0,0.0,0.0,0.0,0.0,0.0,0.0,0.0,0.0,0.0,0.0,0.0,0.0,0.0,0.0,0.0,0.0,0.0,0.0,0.0,0.0,0.0,0.0,0.0,0.0,1.9777,2.1349,2.0271,0.0,0.0,0.0,0.0,1.9381,1.9886,0.0,0.0,0.0,0.0,0.0,0.0,0.0,0.0,0.0,0.0,0.0,0.0,0.0,0.0,0.0,0.0,0.0,0.0,0.0,0.0,0.0,0.0,0.0,0.0,0.0,0.0,0.0,0.0,0.0,0.0,0.0,0.0,0.0,0.0,0.0,0.0,0.0,0.0,0.0,0.0,0.0,0.0,0.0,0.0,0.0,0.0,0.0,0.0,0.0,0.0,0.0,0.0,0.0,0.0,0.0,0.0,2.2964,2.6075,2.8433,2.9903,3.0598,3.0946,3.092,2.8971,2.7247,0.0,0.0,0.0,0.0,0.0,0.0,0.0,0.0,0.0,0.0,0.0,0.0,0.0,0.0,0.0,0.0,0.0,0.0,0.0,0.0,0.0,0.0,0.0,0.0,0.0,0.0,0.0,0.0,0.0,0.0,0.0,0.0,0.0,0.0,0.0,0.0,0.0,0.0,0.0,0.0,0.0,2.0562,2.148,2.0228,1.9632,0.0,0.0,2.1043,2.2417,2.3003,0.0,0.0,0.0,0.0,0.0,0.0,0.0,0.0,0.0,0.0,0.0,0.0,0.0,0.0,0.0,0.0,0.0,0.0,0.0,0.0,0.0,0.0,0.0,0.0,0.0,0.0,0.0,0.0,0.0,0.0,0.0,0.0,0.0,0.0,0.0,0.0,0.0,0.0,0.0,0.0,0.0,0.0,0.0,0.0,0.0,0.0,0.0,0.0,0.0,0.0,0.0,0.0,0.0,0.0,0.0,2.3231,2.4281,2.7831,3.0043,3.07,3.1038,3.119,3.119,2.885,2.7055,0.0,0.0,0.0,0.0,0.0,0.0,0.0,0.0,0.0,0.0,0.0,0.0,0.0,0.0,0.0,0.0,0.0,0.0,0.0,0.0,0.0,0.0,0.0,0.0,0.0,0.0,0.0,0.0,0.0,0.0,0.0,0.0,0.0,0.0,0.0,0.0,0.0,0.0,0.0,0.0,0.0,0.0,2.232,2.1996,0.0,0.0,0.0,2.2394,2.2538,0.0,0.0,0.0,0.0,0.0,0.0,0.0,0.0,0.0,0.0,0.0,0.0,0.0,0.0,0.0,0.0,0.0,0.0,0.0,0.0,0.0,0.0,0.0,0.0,0.0,0.0,0.0,0.0,0.0,0.0,0.0,0.0,0.0,0.0,0.0,0.0,0.0,0.0,0.0,0.0,0.0,0.0,0.0,0.0,0.0,0.0,0.0,0.0,0.0,0.0,0.0,0.0,0.0,0.0,0.0,0.0,0.0,2.498,2.9056,3.119,3.119,3.119,3.119,3.1147,2.9163,0.0,0.0,0.0,0.0,0.0,0.0,0.0,0.0,0.0,0.0,0.0,0.0,0.0,0.0,0.0,0.0,0.0,0.0,0.0,0.0,0.0,0.0,0.0,0.0,0.0,0.0,0.0,1.5898,0.0,0.0,0.0,0.0,0.0,0.0,0.0,0.0,0.0,0.0,0.0,0.0,0.0,0.0,2.286,2.3329,2.3712,2.4228,0.0,0.0,2.3708,2.3342,2.4902,2.5065,0.0,0.0,0.0,0.0,0.0,0.0,0.0,0.0,0.0,0.0,0.0,0.0,0.0,0.0,0.0,0.0,0.0,0.0,0.0,0.0,0.0,0.0,0.0,0.0,0.0,0.0,0.0,0.0,0.0,0.0,0.0,0.0,0.0,0.0,0.0,0.0,0.0,0.0,0.0,0.0,0.0,0.0,0.0,0.0,0.0,0.0,0.0,0.0,0.0,0.0,0.0,0.0,0.0,0.0,2.4259,2.433,2.8812,3.1207,3.119,3.119,3.119,3.119,3.0717,2.9087,0.0,0.0,0.0,0.0,0.0,0.0,0.0,0.0,0.0,0.0,0.0,0.0,0.0,0.0,0.0,0.0,0.0,0.0,0.0,0.0,0.0,0.0,0.0,0.0,0.0,0.0,0.0,0.0,0.0,0.0,0.0,0.0,0.0,0.0,0.0,0.0,0.0,0.0,0.0,0.0,0.0,2.3653,2.4316,2.4689,2.5328,0.0,2.5397,2.4897,2.6264,2.7778,2.7575,2.3889,0.0,0.0,0.0,0.0,0.0,0.0,0.0,0.0,0.0,0.0,0.0,0.0,0.0,0.0,0.0,0.0,0.0,0.0,0.0,0.0,0.0,0.0,0.0,0.0,0.0,0.0,0.0,0.0,0.0,0.0,0.0,0.0,0.0,0.0,0.0,0.0,0.0,0.0,0.0,0.0,0.0,0.0,0.0,0.0,0.0,0.0,0.0,0.0,0.0,0.0,0.0,0.0,0.0,2.4678,2.5504,2.9688,3.2097,3.2544,3.256,3.2544,3.256,3.1838,3.0212,0.0,0.0,0.0,0.0,0.0,0.0,0.0,0.0,0.0,0.0,0.0,0.0,0.0,0.0,0.0,0.0,0.0,0.0,0.0,0.0,0.0,0.0,0.0,0.0,0.0,0.0,0.0,0.0,2.0298,2.0196,1.8984,0.0,0.0,0.0,0.0,0.0,0.0,0.0,0.0,0.0,0.0,2.5587,2.6522,2.7383,0.0,0.0,2.8324,2.7817,2.8105,2.8275,2.7315,2.4311,2.3131,0.0,0.0,0.0,0.0,0.0,0.0,0.0,0.0,0.0,0.0,0.0,0.0,0.0,0.0,0.0,0.0,0.0,0.0,0.0,0.0,0.0,0.0,0.0,0.0,0.0,0.0,0.0,0.0,0.0,0.0,0.0,0.0,0.0,0.0,0.0,0.0,0.0,0.0,0.0,0.0,0.0,0.0,0.0,0.0,0.0,0.0,0.0,0.0,0.0,0.0,0.0,0.0,2.5196,2.6313,3.0472,3.2875,3.3389,3.3389,3.3389,3.3379,3.2923,3.1558,0.0,0.0,0.0,0.0,0.0,0.0,0.0,0.0,0.0,0.0,0.0,0.0,0.0,0.0,0.0,0.0,0.0,0.0,0.0,0.0,0.0,0.0,0.0,0.0,0.0,0.0,0.0,0.0,2.1235,2.0785,1.9032,0.0,0.0,0.0,0.0,0.0,0.0,0.0,0.0,0.0,0.0,2.7549,2.8268,2.8997,2.9571,2.9828,2.8958,2.8235,2.8069,2.7864,2.704,2.4886,0.0,0.0,0.0,0.0,0.0,0.0,0.0,0.0,0.0,0.0,0.0,0.0,0.0,0.0,0.0,0.0,0.0,0.0,0.0,0.0,0.0,0.0,0.0,0.0,0.0,0.0,0.0,1.759,0.0,0.0,1.7606,0.0,0.0,0.0,0.0,0.0,0.0,0.0,0.0,0.0,0.0,0.0,0.0,0.0,0.0,0.0,0.0,0.0,0.0,0.0,0.0,0.0,0.0,2.5698,2.6363,3.1014,3.3417,3.3451,3.3406,3.3429,3.3463,3.4066,3.3315,3.0892,0.0,0.0,0.0,0.0,0.0,0.0,0.0,0.0,0.0,0.0,0.0,0.0,0.0,0.0,0.0,0.0,0.0,0.0,0.0,0.0,0.0,0.0,0.0,0.0,0.0,0.0,1.8071,1.9051,1.965,0.0,0.0,0.0,0.0,0.0,0.0,0.0,0.0,0.0,2.388,2.722,2.9436,2.9207,2.9059,2.8914,2.8379,2.6589,2.5391,2.5999,2.6796,2.7022,0.0,0.0,0.0,0.0,0.0,0.0,0.0,0.0,0.0,0.0,0.0,0.0,0.0,0.0,0.0,0.0,0.0,0.0,0.0,0.0,0.0,0.0,0.0,0.0,0.0,0.0,0.0,2.0863,2.0419,0.0,0.0,0.0,0.0,0.0,0.0,0.0,0.0,0.0,0.0,0.0,2.572,2.7035,0.0,0.0,0.0,0.0,0.0,0.0,0.0,0.0,0.0,0.0,0.0,0.0,2.692,2.7742,3.2233,3.4888,3.5366,3.504,3.4856,3.4884,3.5103,3.4158,3.1843,0.0,0.0,0.0,0.0,0.0,0.0,0.0,0.0,0.0,0.0,0.0,0.0,0.0,0.0,0.0,0.0,0.0,0.0,0.0,0.0,0.0,0.0,0.0,0.0,0.0,1.9822,0.0,0.0,0.0,0.0,0.0,0.0,0.0,0.0,0.0,0.0,0.0,2.5564,2.6606,2.8715,3.0181,3.0302,3.1007,3.1522,0.0,0.0,0.0,0.0,0.0,0.0,0.0,0.0,0.0,0.0,0.0,0.0,0.0,0.0,2.7293,2.341,2.2861,2.2984,2.3014,0.0,0.0,0.0,0.0,0.0,0.0,0.0,0.0,0.0,0.0,0.0,0.0,0.0,0.0,2.3928,0.0,2.3647,0.0,0.0,0.0,0.0,0.0,0.0,0.0,0.0,2.7851,2.8991,2.9386,3.0693,3.1009,0.0,2.9935,2.7503,0.0,0.0,0.0,0.0,0.0,0.0,0.0,0.0,2.8064,2.9221,3.3472,3.5985,3.6429,3.5985,3.5734,3.5745,3.5728,3.5011,3.3427,3.1826,3.0098,0.0,0.0,0.0,0.0,0.0,0.0,0.0,0.0,0.0,0.0,0.0,0.0,0.0,0.0,0.0,0.0,0.0,0.0,0.0,0.0,0.0,0.0,0.0,2.1301,0.0,0.0,0.0,0.0,0.0,0.0,0.0,0.0,0.0,2.3087,2.6,2.8466,2.9273,3.0749,3.1654,3.1381,0.0,0.0,0.0,0.0,0.0,0.0,0.0,2.8247,2.891,2.8296,2.8003,2.8989,3.0041,3.0648,3.0338,0.0,0.0,2.702,2.6404,2.6519,2.6519,2.6833,2.7114,2.7099,2.7735,2.8273,0.0,0.0,0.0,0.0,0.0,0.0,0.0,0.0,2.7356,2.6844,0.0,2.7298,0.0,0.0,0.0,0.0,2.5571,2.7639,0.0,0.0,3.3877,3.5194,3.4462,3.448,3.4565,3.4491,3.3022,3.1709,3.05,2.9137,0.0,0.0,0.0,0.0,0.0,0.0,2.9219,3.0881,3.4661,3.6633,3.6651,3.6252,3.6034,3.6062,3.6051,3.5909,3.5587,3.4167,3.3043,3.2218,2.7798,0.0,0.0,0.0,0.0,0.0,0.0,0.0,0.0,0.0,0.0,0.0,0.0,0.0,0.0,0.0,0.0,0.0,0.0,0.0,0.0,2.2689,0.0,0.0,0.0,0.0,0.0,0.0,0.0,0.0,0.0,0.0,2.4853,2.8229,3.1169,3.163,0.0,0.0,0.0,0.0,3.1371,3.016,2.8956,2.8289,2.8447,2.9172,3.0064,3.1144,0.0,0.0,3.2313,3.2122,3.1845,3.0937,3.2338,3.3236,3.2166,3.0956,3.0247,3.0219,3.0243,3.0271,3.0315,3.1029,3.1784,3.0869,0.0,0.0,0.0,0.0,2.9052,3.0183,3.233,3.1821,3.1173,3.0464,3.0826,0.0,0.0,0.0,0.0,0.0,0.0,3.0303,3.2232,3.3492,3.4403,3.5039,3.5824,3.6236,3.627,3.6357,3.636,3.6284,3.5866,3.1855,2.4559,0.0,0.0,0.0,0.0,3.2129,3.3362,3.6067,3.7533,3.7533,3.7087,3.6853,3.6853,3.6853,3.6823,3.6736,3.6044,3.496,3.3445,3.1312,0.0,0.0,0.0,0.0,0.0,0.0,0.0,0.0,0.0,0.0,0.0,0.0,0.0,0.0,0.0,0.0,0.0,0.0,0.0,2.2767,2.4292,2.4681,0.0,0.0,0.0,0.0,0.0,0.0,0.0,0.0,0.0,2.8704,3.0778,3.2031,0.0,0.0,3.181,3.027,3.1214,3.2041,3.195,3.1656,0.0,3.1929,3.1003,3.0756,3.2155,3.3315,3.397,3.3714,3.3886,3.3975,3.367,3.4122,3.4412,3.4143,3.3806,3.3514,3.353,3.353,3.353,3.3559,3.381,3.4001,3.5873,3.3917,3.1875,3.1772,3.2913,3.2509,3.3612,3.5658,3.5231,3.458,3.3877,3.4371,3.3054,3.0415,3.0119,0.0,0.0,0.0,3.3089,3.5191,3.5419,3.5869,3.6602,3.7289,3.7632,3.7694,3.7959,3.8302,3.8681,3.8128,3.4862,2.9155,0.0,0.0,2.8204,3.1644,3.3926,3.4948,3.6931,3.7981,3.7981,3.7551,3.7303,3.723,3.7294,3.7284,3.7209,3.6991,3.6279,3.5027,3.3352,3.1053,0.0,0.0,0.0,0.0,0.0,0.0,0.0,0.0,0.0,0.0,0.0,2.1609,1.9281,0.0,0.0,0.0,2.3942,2.4549,2.6076,2.6435,0.0,0.0,0.0,0.0,0.0,0.0,0.0,2.715,2.9687,3.1453,3.1485,3.2582,3.3069,3.2174,3.246,3.2316,3.1154,0.0,3.306,3.3148,3.316,3.3264,3.351,3.2704,3.2393,3.3445,3.4109,3.4533,3.4533,3.4756,3.4899,3.4911,3.4911,3.4911,3.4911,3.4911,3.4911,3.4911,3.4911,3.4911,3.4911,3.4911,3.4911,4.021,4.0147,3.5378,3.42,3.545,3.5486,3.6272,3.7578,3.7578,3.7158,3.6497,3.7631,3.6687,3.4162,3.3491,0.0,3.5929,3.5947,3.6885,3.8681,3.8699,3.8699,3.8699,3.8681,3.8699,3.8699,3.8336,3.8326,3.8632,3.7398,3.6374,3.5635,3.4952,3.363,3.1894,3.3514,3.4912,3.5911,3.7299,3.8054,3.8135,3.7773,3.7542,3.7424,3.7533,3.7506,3.734,3.736,3.7136,3.6604,3.4383,3.2862,3.2144,0.0,0.0,0.0,0.0,0.0,0.0,0.0,0.0,0.0,0.0,0.0,0.0,0.0,0.0,0.0,2.8582,0.0,3.0796,2.893,0.0,0.0,0.0,2.6667,2.8522,2.9338,3.0094,3.101,0.0,0.0,3.3248,3.3718,3.4168,3.4427,3.4468,3.423,3.3678,3.3964,3.4273,3.3944,3.3954,3.3999,3.4191,3.4313,3.4591,3.5006,3.5065,3.5124,3.5124,3.5036,3.5027,3.5044,3.4965,3.4911,3.4911,3.4911,3.4911,3.4911,3.4911,3.4911,3.4911,3.4911,3.4911,4.0876,4.086,3.968,3.9026,3.8761,3.8761,3.8644,3.8427,3.8409,3.8299,3.8127,3.8434,3.8178,3.7525,3.7351,3.7533,3.7987,3.7987,3.8245,3.8681,3.8699,3.8699,3.8699,3.8699,3.8699,3.8699,3.8611,3.8622,3.8681,3.8371,3.8002,3.7616,3.7424,3.6033,3.3557,3.4768,3.5908,3.6872,3.7221,3.7778,3.8538,3.8467,3.8401,3.8385,3.8401,3.8393,3.8334,3.805,3.7667,3.7155,3.6272,3.4856,3.2798,2.9484,0.0,0.0,0.0,0.0,0.0,0.0,0.0,0.0,0.0,2.4242,2.0949,0.0,2.6143,0.0,3.0817,3.2512,3.1637,3.1023,0.0,0.0,2.9167,2.8951,3.1191,3.1775,3.2022,3.2074,3.3435,3.4171,3.3697,3.4232,3.4952,3.5744,3.4812,3.374,3.2901,3.4138,3.5156,3.523,3.5817,3.6418,3.6242,3.6359,3.6426,3.6547,3.6555,3.6572,3.6589,3.6108,3.5715,3.5706,3.5275,3.4961,3.4961,3.4911,3.4928,3.4911,3.4911,3.4911,3.4911,3.4911,3.4928,4.3157,4.2852,4.2875,4.2202,4.1064,4.0707,4.0278,3.9827,3.9808,3.9808,3.9827,3.978,3.9764,3.9756,3.9764,3.9764,3.9782,3.9782,3.9782,3.9764,3.9764,3.9764,3.9764,3.9764,3.9764,3.9764,3.9764,3.9764,3.9764,3.9764,3.97,3.9562,3.9536,3.853,3.6599,3.6629,3.6949,3.7446,3.7622,3.8018,3.8673,3.8699,3.8245,3.7314,3.747,3.7092,3.6168,3.6054,3.5729,3.5111,3.4766,3.3849,3.2154,2.964,2.7431,0.0,0.0,0.0,0.0,0.0,0.0,0.0,0.0,0.0,0.0,0.0,2.7715,2.8393,3.1579,3.304,3.166,3.1594,3.183,3.2375,3.1649,3.1836,3.3627,3.3935,3.3957,3.3839,3.4578,3.512,3.5129,3.5469,3.604,3.6932,3.6223,3.537,3.4902,3.5671,3.6344,3.6464,3.6983,3.7348,3.7199,3.7174,3.7203,3.7174,3.714,3.714,3.7236,3.6846,3.6502,3.653,3.6207,3.5876,3.5876,3.5864,3.5893,3.5876,3.5876,3.5628,3.5044,3.5176,3.5396,4.5789,4.5152,4.5161,4.4338,4.3008,4.2329,4.1746,4.122,4.122,4.122,4.1212,4.115,4.1128,4.1101,4.1111,4.1111,4.1113,4.1113,4.1113,4.1113,4.1113,4.1113,4.1113,4.1113,4.1103,4.1101,4.1111,4.1111,4.112,4.112,4.1077,4.1054,4.1036,4.0595,3.9672,3.8632,3.8007,3.7862,3.8245,3.8583,3.8797,3.8598,3.7531,3.5672,3.5768,3.4977,3.3078,3.3236,3.3093,3.2417,3.2222,3.1948,3.1558,2.9282,2.7797,0.0,2.569,0.0,0.0,0.0,0.0,0.0,0.0,0.0,0.0,2.9224,2.967,2.9607,3.1801,3.2822,3.1847,3.1924,3.2619,3.3996,3.4214,3.4577,3.5481,3.5537,3.5582,3.5723,3.5689,3.5981,3.6777,3.6948,3.7207,3.7865,3.7875,3.7712,3.778,3.7652,3.7593,3.7676,3.7727,3.7916,3.7803,3.7699,3.7686,3.764,3.7648,3.7523,3.7815,3.7532,3.7323,3.7419,3.7253,3.7099,3.7136,3.7119,3.7132,3.7062,3.7078,3.6742,3.5697,3.5744,3.6108,4.6112,4.5992,4.6023,4.5848,4.552,4.5515,4.3942,4.1359,4.1359,4.1369,4.1359,4.1361,4.1288,4.119,4.1172,4.115,4.1113,4.1113,4.1113,4.1113,4.1113,4.1113,4.1113,4.1113,4.1144,4.1172,4.1172,4.1172,4.1172,4.1172,4.1042,4.079,4.0764,4.0543,4.0104,0.0,0.0,0.0,3.8923,3.9385,3.939,3.8047,3.6824,3.5773,3.5183,0.0,3.3375,3.3357,3.3202,3.2826,3.2752,0.0,0.0,0.0,0.0,0.0,0.0,0.0,0.0,0.0,0.0,0.0,2.9379,2.9038,2.8655,3.012,3.1453,3.2298,3.3239,3.4091,3.4706,3.4802,3.4953,3.5256,3.5301,3.538,3.5583,3.5594,3.5825,3.6485,3.6558,3.6845,3.755,3.7702,3.7985,3.8686,3.8773,3.8985,3.9521,3.8895,3.8455,3.8564,3.8896,3.9273,3.9387,3.926,3.9112,3.9246,3.9233,3.92,3.9197,3.8732,3.8325,3.8367,3.7853,3.7498,3.7468,3.7423,3.7556,3.7439,3.7675,3.76,3.6846,3.6804,3.6891,4.7286,4.6943,4.6986,4.6755,0.0,4.6461,4.5506,4.3923,4.3846,4.3798,4.3775,4.3783,4.3732,4.3664,4.3664,4.3647,4.3597,4.321,4.3026,4.3,4.2545,4.2345,4.2336,4.2336,4.2343,4.2392,4.2451,4.2476,4.2476,4.2484,4.2402,4.2226,4.2217,4.2139,4.1982,4.1973,4.1146,3.9453,3.9903,4.0196,4.0312,3.9489,3.8156,3.6383,3.6064,0.0,0.0,0.0,0.0,0.0,0.0,0.0,0.0,3.2292,0.0,3.2341,3.1444,3.1021,3.135,3.1631,3.2185,3.299,3.2998,3.2351,3.0945,3.2474,3.3739,3.4285,3.4617,3.502,3.5538,3.5628,3.5628,3.5633,3.5949,3.6197,3.6231,3.6524,3.6907,3.7246,3.7342,3.7618,3.8362,3.8664,3.9073,3.9775,4.0109,4.0353,4.0617,3.9968,3.9379,3.9417,3.9661,3.988,3.9884,3.9849,3.9824,3.9807,3.9944,4.0074,4.0212,4.0024,3.9843,3.9891,3.9554,3.9279,3.9279,3.9279,3.9262,3.9303,3.9409,3.9456,3.909,3.855,3.8086,4.85,4.7924,4.7924,4.7534,4.6921,4.6921,4.6921,4.6903,4.653,0.0,0.0,4.6257,4.6229,4.6212,4.6212,4.6204,4.6149,4.5521,4.5226,4.5181,4.444,4.4047,4.4066,4.4047,4.4074,4.4091,4.4194,4.4153,4.4024,4.4024,4.3942,4.3814,4.3796,4.3796,4.3796,4.3796,4.2956,4.1325,4.1082,4.1042,4.1247,4.0956,3.9611,3.7101,3.7165,3.5965,3.3327,3.346,3.3428,3.3014,3.2942,3.2924,3.2937,3.2789,3.2862,3.3143,3.3322,3.3792,3.4627,3.4854,3.5309,3.6154,3.6062,3.5273,3.3646,3.4795,3.5628,3.5628,3.5628,3.5645,3.5785,3.5831,3.5898,3.6107,3.6735,3.7154,3.728,3.7763,3.8184,3.8313,3.8377,3.8632,3.939,3.9795,4.0233,4.0787,4.1138,4.1492,4.1421,4.0821,4.0353,4.0353,4.0412,4.0336,4.0229,4.0241,4.0184,4.0279,4.0436,4.0678,4.0879,4.1053,4.1207,4.1166,4.1241,4.1103,4.1138,4.1017,4.1178,4.1167,4.1223,4.1275,4.1177,4.0401,3.9596,4.8834,4.8742,4.8733,4.8667,4.8547,4.8556,4.8556,4.8444,4.7072,4.6469,4.6461,4.6461,4.6401,4.6288,4.6306,4.6264,4.6213,4.6075,4.6039,4.602,4.5892,4.5837,4.5837,4.5837,4.5861,4.5902,4.5928,4.5594,4.4984,4.4928,4.4562,4.3896,4.3796,4.3814,4.3796,4.3796,4.3669,4.3363,4.2472,4.1951,4.1854,4.0412,3.9145,3.8059,3.7402,3.6214,3.4433,3.4452,3.4097,3.3364,3.3321,3.3856,3.499,3.5348,3.6043,3.7127,3.7277,3.7461,3.7761,3.7318,3.698,3.701,3.6694,3.6131,3.5357,3.5453,3.5628,3.5628,3.5689,3.5898,3.6513,3.6661,3.7075,3.7972,3.8274,3.8487,3.8856,3.9055,3.9348,3.9903,4.0049,4.0285,4.0858,4.1116,4.1218,4.1369,4.1558,4.1547,4.1569,4.1393,4.1303,4.1303,4.1292,4.1309,4.1174,4.1276,4.1185,4.1287,4.1269,4.1343,4.1399,4.1481,4.1536,4.1492,4.1536,4.1503,4.1492,4.1437,4.1497,4.1547,4.1746,4.1941,4.1952,4.1683,4.1251,5.0256,5.0265,5.0246,5.0246,5.0209,4.9754,4.928,4.8863,4.8147,4.7794,4.7794,4.7794,4.7769,4.7716,4.7716,4.7709,4.7656,4.723,4.6999,4.6989,4.6484,4.6255,4.6264,4.6264,4.6262,4.6286,4.6374,4.6213,4.5879,4.5861,4.5651,4.5265,4.4831,4.4598,4.4598,4.4146,4.3881,4.3851,4.3326,4.3016,4.2859,4.2094,4.1275,4.0446,4.0062,3.9341,3.8165,3.8136,3.7945,3.7596,3.7157,3.7228,3.7834,3.7449,3.7457,3.8047,3.7896,3.7817,3.7947,3.7641,3.7368,3.7236,3.7484,3.7496,3.7141,3.6305,3.6195,3.6991,3.687,3.7111,3.8079,3.8179,3.8371,3.8924,3.9329,3.966,3.9884,4.0295,4.0629,4.0935,4.1005,4.1135,4.1457,4.171,4.1878,4.1899,4.2084,4.2231,4.2259,4.2241,4.2049,4.1606,4.1492,4.1492,4.1514,4.1492,4.1492,4.1492,4.171,4.1856,4.1909,4.2064,4.2239,4.2251,4.2241,4.2269,4.2231,4.2251,4.2251,4.2279,4.2378,4.2534,4.2514,4.2346,4.1864,5.1398,5.1398,5.1398,5.1398,5.1342,5.0692,5.0023,4.9485,4.9476,4.9355,4.916,4.8993,4.889,4.889,4.889,4.8881,4.8816,4.8259,4.7961,4.7897,4.7217,4.6886,4.6895,4.6895,4.6886,4.6895,4.6999,4.6958,4.681,4.6754,4.668,4.6457,4.5862,4.5573,4.5547,4.4729,4.4271,4.4207,4.3986,4.3786,4.3659,4.3651,4.3323,4.2702,4.2595,4.2219,4.1458,4.1368,4.1279,4.1095,4.0506,4.0183,4.0131,3.9284,3.8789,3.8756,3.8471,3.8268,3.8196,3.8268,3.8205,3.7967,3.8558,3.8962,3.8889,3.7709,3.7339,3.8419,3.8256,3.8499,3.9407,3.9622,3.971,3.9986,4.052,4.0936,4.1076,4.1534,4.1867,4.1867,4.1856,4.1871,4.1899,4.2157,4.2388,4.2476,4.2731,4.2939,4.2975,4.2957,4.2625,4.2149,4.1849,4.186,4.1817,4.1839,4.186,4.1817,4.2108,4.2328,4.2408,4.2673,4.2854,4.2835,4.2854,4.2825,4.2891,4.2881,4.2844,4.2806,4.2834,4.2881,4.2835,4.2624,4.2218,5.1435,5.1398,5.1454,5.1398,5.1416,5.1323,5.1212,5.1119,5.1156,5.072,4.9968,4.9243,4.8927,4.889,4.889,4.889,4.889,4.8816,4.8751,4.876,4.8687,4.8669,4.8567,4.8613,4.865,4.8594,4.8584,4.8203,4.7608,4.759,4.7245,4.6587,4.642,4.6401,4.6298,4.5584,4.5175,4.5175,4.4398,4.3913,4.3796,4.3788,4.3742,4.3687,4.354,4.3112,4.2329,4.2236,4.1856,4.1195,4.104,4.0993,4.0967,4.0861,4.0808,4.0771,4.0738,4.0604,4.0274,4.0562,4.0498,4.0247,4.0221,4.0445,4.0732,4.0058,3.9493,3.9607,3.9501,3.9772,4.0463,4.06,4.1037,4.1862,4.2135,4.2472,4.2738,4.2939,4.2965,4.2955,4.2834,4.2899,4.2721,4.2843,4.2956,4.2937,4.3031,4.3133,4.3151,4.3133,4.3123,4.2976,4.2882,4.2731,4.2711,4.2768,4.2673,4.2702,4.2787,4.2797,4.2797,4.2816,4.291,4.291,4.291,4.291,4.291,4.291,4.291,4.291,4.291,4.291,4.291,4.2835,4.2604,5.2828,5.2828,5.2828,5.2549,5.2141,5.2104,5.1825,5.1398,5.1398,5.1193,5.0878,5.0506,4.9837,4.8909,4.889,4.889,4.889,4.889,4.889,4.889,4.889,4.889,4.889,4.889,4.889,4.889,4.889,4.8742,4.8454,4.8407,4.824,4.7887,4.746,4.7218,4.7144,4.6401,4.6011,4.6001,4.5194,4.4735,4.4633,4.415,4.3835,4.3804,4.3736,4.359,4.3258,4.312,4.2923,4.2565,4.2091,4.1819,4.1801,4.136,4.1113,4.1113,4.1113,4.1019,4.0867,4.1011,4.1038,4.0867,4.1305,4.1648,4.1794,4.1929,4.2005,4.185,4.123,4.1179,4.21,4.2198,4.239,4.282,4.2902,4.3004,4.3178,4.3178,4.316,4.3151,4.3169,4.3133,4.3096,4.3123,4.3142,4.3169,4.3196,4.3214,4.3214,4.3205,4.3205,4.3196,4.3123,4.3096,4.3078,4.3078,4.305,4.3049,4.303,4.3003,4.2929,4.291,4.291,4.291,4.291,4.291,4.291,4.291,4.291,4.2955,4.291,4.291,4.291,4.291,4.2941,5.4072,5.4053,5.4072,5.3744,5.3202,5.3202,5.2866,5.2344,5.2237,5.2081,5.1867,5.1768,5.0933,4.9689,4.9373,4.915,4.8909,4.889,4.889,4.889,4.889,4.889,4.889,4.889,4.889,4.889,4.889,4.889,4.889,4.889,4.889,4.8797,4.8314,4.8036,4.7943,4.7237,4.6828,4.6754,4.603,4.5536,4.5241,4.4628,4.4164,4.3896,4.3826,4.3837,4.3818,4.3709,4.3624,4.3599,4.2969,4.2633,4.2607,4.2066,4.1764,4.1746,4.1764,4.1764,4.1764,4.1764,4.1772,4.1809,4.2323,4.2635,4.2727,4.3176,4.3469,4.3371,4.2649,4.2523,4.3212,4.334,4.3277,4.3277,4.3268,4.3286,4.3295,4.3277,4.3278,4.3251,4.3278,4.3251,4.3251,4.3269,4.326,4.3269,4.3277,4.3286,4.3295,4.3304,4.3277,4.3268,4.3277,4.325,4.3224,4.3196,4.3169,4.3151,4.3123,4.3087,4.2994,4.2975,4.2965,4.2994,4.2938,4.2929,4.2975,4.2965,4.3155,4.3237,4.3292,4.3409,4.3791,4.3627,4.3815,5.4754,5.4746,5.4746,5.4678,5.4689,5.4636,5.4644,5.4394,5.4217,5.3708,5.3036,5.2713,5.2085,5.1239,5.0551,4.9698,4.9002,4.8956,4.8919,4.8909,4.889,4.889,4.889,4.889,4.889,4.889,4.889,4.889,4.889,4.889,4.889,4.8863,4.8797,4.8807,4.8686,4.8017,4.7646,4.7571,4.6865,4.6104,4.5462,4.5305,4.4843,4.4141,4.3937,4.3889,4.3881,4.3845,4.3736,4.3625,4.3525,4.3491,4.3431,4.3359,4.3286,4.3304,4.3322,4.3341,4.3286,4.3249,4.3259,4.3304,4.3286,4.3414,4.3322,4.3414,4.3488,4.3488,4.3371,4.3362,4.3443,4.3463,4.3453,4.3453,4.3462,4.3462,4.3462,4.342,4.3403,4.3376,4.3376,4.3376,4.3376,4.3394,4.3394,4.3394,4.3428,4.348,4.3463,4.3462,4.3453,4.3444,4.3444,4.341,4.326,4.326,4.3223,4.3205,4.3224,4.3269,4.3187,4.3133,4.3141,4.3186,4.3321,4.333,4.3149,4.3267,4.3603,4.3838,4.4074,4.4309,4.4658,4.5042,4.5195,5.4818,5.4818,5.4818,5.4818,5.4818,5.4818,5.4818,5.4791,5.4677,5.4453,5.4192,5.4043,5.3439,5.2478,5.2197,5.1172,4.9753,4.9661,4.9383,4.8937,4.889,4.889,4.889,4.889,4.889,4.889,4.889,4.889,4.889,4.889,4.889,4.889,4.889,4.889,4.8834,4.8603,4.8473,4.8389,4.7664,4.7125,4.6791,4.6327,4.5677,4.4859,4.4252,4.3958,4.3976,4.3907,4.3832,4.3792,4.3761,4.3667,4.3565,4.3513,4.3488,4.3488,4.3488,4.3488,4.3488,4.3488,4.3488,4.3488,4.3488,4.3488,4.3488,4.3488,4.3488,4.3488,4.3488,4.3488,4.3488,4.3488,4.3488,4.3488,4.3488,4.3488,4.3479,4.348,4.3454,4.3454,4.3472,4.3472,4.3445,4.3454,4.3454,4.3454,4.348,4.3479,4.3488,4.3488,4.3488,4.3488,4.3488,4.347,4.3428,4.3402,4.3393,4.3349,4.3377,4.3707,4.3771,4.3944,4.3998,4.4417,4.4388,4.4332,4.4352,4.4425,4.4643,4.4843,4.5051,4.5169,4.5473,4.5815,4.5987,5.514,5.5159,5.5139,5.5113,5.5113,5.5105,5.5072,5.5085,5.5002,5.4971,5.4957,5.4851,5.4375,5.3742,5.3642,5.2803,5.1208,5.049,4.9661,4.8955,4.9002,4.9061,4.9061,4.9061,4.9061,4.9035,4.8952,4.889,4.889,4.889,4.889,4.889,4.889,4.889,4.889,4.889,4.889,4.877,4.8351,4.798,4.7683,4.7181,4.6502,4.5703,4.4867,4.4265,4.4034,4.3968,4.3921,4.3907,4.3851,4.3786,4.3686,4.3565,4.3522,4.354,4.3515,4.3488,4.3488,4.3488,4.3488,4.3488,4.3488,4.3488,4.3488,4.3488,4.3488,4.3488,4.3488,4.3488,4.3488,4.3488,4.3488,4.3488,4.3488,4.3488,4.3488,4.3488,4.3488,4.3479,4.3497,4.3479,4.3488,4.3488,4.3479,4.3488,4.3488,4.3488,4.3488,4.3488,4.3488,4.3488,4.3488,4.3671,4.3875,4.4013,4.4031,4.3997,4.4272,4.4474,4.462,4.4793,4.5049,4.5514,4.5678,4.564,4.5622,4.5678,4.5797,4.5961,4.6022,4.6093,4.6332,4.6516,4.6734,5.5875,5.5831,5.5807,5.5745,5.5705,5.5657,5.5687,5.5594,5.5413,5.532,5.5295,5.5002,5.4845,5.4745,5.4665,5.4238,5.3063,5.1253,4.9921,4.9203,4.93,4.9388,4.9388,4.9388,4.9388,4.9373,4.9094,4.8933,4.8933,4.8942,4.8933,4.889,4.889,4.889,4.889,4.889,4.889,4.8872,4.8797,4.8454,4.7831,4.772,4.7311,4.6531,4.5796,4.4989,4.4135,4.4042,4.3958,4.3913,4.3897,4.3867,4.3786,4.3676,4.3599,4.3609,4.3558,4.3496,4.3515,4.3496,4.3496,4.3488,4.3488,4.3488,4.3488,4.3488,4.3488,4.3488,4.3488,4.3488,4.3488,4.3488,4.3488,4.3488,4.3488,4.3488,4.3488,4.3488,4.3488,4.3488,4.3488,4.3488,4.3488,4.3488,4.3488,4.3488,4.3488,4.3488,4.3488,4.3488,4.3488,4.3506,4.3671,4.3975,4.436,4.4718,4.4755,4.4838,4.5251,4.5544,4.5682,4.5819,4.5974,4.6358,4.6476,4.6457,4.6457,4.6522,4.6632,4.6787,4.6858,4.7003,4.7224,4.7426,4.7607,5.5914,5.5914,5.5861,5.5856,5.5856,5.5841,5.585,5.5826,5.5735,5.5714,5.5698,5.5594,5.5429,5.5244,5.5218,5.4669,5.3593,5.2262,5.1223,5.0466,4.992,4.9665,4.9665,4.9665,4.9665,4.967,4.9572,4.942,4.9263,4.9249,4.9125,4.8933,4.8899,4.889,4.8899,4.889,4.889,4.889,4.889,4.8751,4.8529,4.8519,4.8129,4.7404,4.707,4.6345,4.4979,4.4321,4.3997,4.3958,4.3966,4.3945,4.3875,4.3786,4.3736,4.3728,4.3711,4.3651,4.3592,4.3565,4.3539,4.3505,4.3488,4.3488,4.3488,4.3488,4.3488,4.3488,4.3488,4.3488,4.3488,4.3488,4.3488,4.3488,4.3488,4.3488,4.3488,4.3488,4.3488,4.3488,4.3488,4.3488,4.3488,4.3488,4.3488,4.3488,4.3488,4.3488,4.3488,4.3488,4.3488,4.3506,4.3883,4.436,4.4782,4.5434,4.5948,4.5948,4.6232,4.6489,4.6636,4.6736,4.691,4.7056,4.7192,4.7238,4.7284,4.7348,4.7423,4.7607,4.7715,4.7926,4.8165,4.8219,4.817,5.5933,5.5937,5.5933,5.5929,5.5924,5.5909,5.5914,5.5914,5.5914,5.5914,5.5914,5.5895,5.5787,5.5613,5.5577,5.5192,5.4431,5.3302,5.2444,5.173,5.0501,4.9994,4.9943,4.9962,4.9878,4.9798,4.981,4.9714,4.9566,4.9525,4.9427,4.9276,4.9114,4.9094,4.9061,4.895,4.889,4.889,4.889,4.889,4.8881,4.889,4.864,4.8184,4.7841,4.7181,4.6178,4.5101,4.4321,4.4079,4.3997,4.3992,4.3945,4.3857,4.3826,4.3837,4.3812,4.3771,4.3694,4.3686,4.3651,4.3609,4.36,4.3583,4.3548,4.3549,4.3522,4.3515,4.3488,4.3488,4.3488,4.3488,4.3488,4.3488,4.3488,4.3488,4.3488,4.3488,4.3488,4.3488,4.3488,4.3488,4.3488,4.3488,4.3488,4.3488,4.3488,4.3488,4.3488,4.3488,4.3506,4.3671,4.414,4.4654,4.5186,4.6039,4.7067,4.7159,4.7195,4.7342,4.7471,4.7516,4.7653,4.7764,4.7891,4.7827,4.7854,4.7956,4.8057,4.8296,4.8315,4.8305,4.8277,4.8277,4.8248,5.6008,5.6003,5.5998,5.5999,5.5994,5.5933,5.5919,5.5909,5.5914,5.5914,5.5914,5.5904,5.589,5.5905,5.5851,5.5779,5.5572,5.4005,5.32,5.2623,5.1328,5.0314,5.0264,5.0266,5.0128,4.9955,4.9929,4.9877,4.983,4.9805,4.9817,4.9714,4.9495,4.9419,4.9362,4.91,4.9017,4.9042,4.9,4.9,4.8968,4.8942,4.8907,4.8824,4.8245,4.7789,4.7311,4.5992,4.4804,4.4135,4.3997,4.4016,4.3981,4.3945,4.3897,4.3897,4.3843,4.3829,4.3804,4.3786,4.3769,4.3771,4.3771,4.3744,4.3651,4.3625,4.3609,4.3558,4.3531,4.3513,4.3513,4.3522,4.3513,4.3515,4.3515,4.3488,4.3488,4.3488,4.3488,4.3488,4.3488,4.3488,4.3488,4.3488,4.3488,4.3488,4.3488,4.3488,4.3488,4.3506,4.3543,4.3928,4.4516,4.5232,4.5865,4.6709,4.7617,4.7728,4.7764,4.7856,4.7984,4.8039,4.8095,4.8223,4.8315,4.8315,4.8315,4.8315,4.8315,4.8315,4.8315,4.8315,4.8315,4.8315,4.8315,5.6008,5.6008,5.5995,5.601,5.601,5.5992,5.5968,5.5968,5.5968,5.5964,5.5968,5.5953,5.5964,5.5968,5.5968,5.5973,5.5562,5.4214,5.3404,5.3099,5.1588,5.0764,5.064,5.0596,5.0522,5.0455,5.0396,5.033,5.0117,5.0111,5.0,4.981,4.9749,4.9686,4.9658,4.9605,4.9572,4.9572,4.9565,4.9442,4.9305,4.9281,4.9144,4.8906,4.8919,4.8498,4.7688,4.6168,4.4886,4.4098,4.3997,4.3997,4.3997,4.3981,4.3958,4.395,4.3942,4.3921,4.3891,4.3875,4.3843,4.3804,4.3812,4.3788,4.3771,4.3736,4.3728,4.3711,4.3711,4.3659,4.3599,4.3659,4.3667,4.3592,4.359,4.3539,4.3488,4.3488,4.3488,4.3488,4.3488,4.3488,4.3488,4.3488,4.3488,4.3488,4.3488,4.3488,4.3488,4.3653,4.3763,4.447,4.5122,4.5893,4.6663,4.7452,4.8021,4.815,4.8168,4.8131,4.8205,4.8205,4.8241,4.8315,4.8315,4.8315,4.8315,4.8315,4.8315,4.8315,4.8315,4.8315,4.8315,4.8315,4.8315,5.6008,5.6008,5.6008,5.6008,5.6008,5.6008,5.6008,5.6008,5.6008,5.6008,5.6008,5.6008,5.6008,5.6008,5.6008,5.6008,5.5776,5.4252,5.3505,5.3155,5.1674,5.0906,5.0797,5.0742,5.0752,5.0752,5.0744,5.0596,5.0436,5.0409,5.0317,5.0209,5.0038,4.9981,4.9949,4.985,4.9817,4.9803,4.981,4.9707,4.9576,4.9573,4.948,4.9335,4.9454,4.9081,4.8074,4.7166,4.6068,4.4861,4.4246,4.3997,4.3997,4.3997,4.3997,4.3997,4.3997,4.3974,4.3961,4.3945,4.3921,4.3889,4.3891,4.3875,4.3843,4.3835,4.3826,4.3796,4.3796,4.3771,4.3734,4.3838,4.3918,4.3881,4.3905,4.3791,4.3575,4.3488,4.3488,4.3488,4.3488,4.3488,4.3506,4.3515,4.3515,4.3488,4.3488,4.3488,4.3506,4.3808,4.4221,4.4964,4.5718,4.6498,4.7003,4.7691,4.8113,4.8278,4.8315,4.8315,4.8315,4.8315,4.8315,4.8315,4.8315,4.8315,4.8315,4.8315,4.8315,4.8315,4.8315,4.8315,4.8315,4.8315,4.8315,5.6008,5.6008,5.6008,5.6008,5.6008,5.6008,5.6008,5.6008,5.6008,5.6008,5.6008,5.6008,5.6008,5.6008,5.6008,5.6008,5.5911,5.4252,5.3405,5.2701,5.1629,5.0862,5.0831,5.0814,5.0825,5.0801,5.0821,5.0761,5.0659,5.0682,5.0688,5.0575,5.0364,5.0252,5.0237,5.005,4.9923,4.9962,5.0013,4.9942,4.987,4.9825,4.9778,4.9721,4.9714,4.9493,4.8932,4.8419,4.7598,4.5724,4.4723,4.4276,4.4149,4.4051,4.3997,4.3997,4.3997,4.3997,4.3997,4.3989,4.3997,4.3981,4.3981,4.3992,4.3929,4.3905,4.3913,4.3926,4.3875,4.4019,4.427,4.4345,4.4587,4.4736,4.4817,4.4505,4.4021,4.3716,4.3589,4.3617,4.3642,4.3736,4.3727,4.3791,4.3962,4.4763,4.4621,4.4656,4.473,4.4988,4.5221,4.5492,4.6276,4.7086,4.7472,4.7856,4.8113,4.8315,4.8315,4.8315,4.8315,4.8315,4.8315,4.8315,4.8315,4.8315,4.8315,4.8315,4.8315,4.8315,4.8315,4.8315,4.8315,4.8315,4.8315,5.6008,5.6008,5.6008,5.6008,5.6008,5.6008,5.6008,5.6008,5.6008,5.6008,5.6008,5.6008,5.6008,5.6008,5.6008,5.6008,5.5795,5.4271,5.2859,5.1443,5.1192,5.0894,5.0885,5.0884,5.0887,5.0863,5.0834,5.0793,5.0775,5.0729,5.0696,5.0668,5.062,5.0594,5.0549,5.0478,5.0507,5.0488,5.0472,5.0325,5.0147,5.0098,5.0019,4.989,4.9831,4.9873,4.9688,4.9049,4.8393,4.7628,4.6346,4.5185,4.4551,4.4162,4.4064,4.4056,4.4051,4.4028,4.402,4.4041,4.4013,4.4056,4.4071,4.3997,4.3989,4.4076,4.4128,4.4199,4.4286,4.4758,4.5377,4.5578,4.5851,4.6211,4.6421,4.6458,4.6144,4.5071,4.4404,4.4404,4.483,4.5234,4.5238,4.5693,4.5877,4.6083,4.6068,4.612,4.612,4.613,4.6272,4.6372,4.695,4.7683,4.7802,4.8058,4.8168,4.8315,4.8315,4.8315,4.8315,4.8315,4.8315,4.8315,4.8315,4.8315,4.8315,4.8315,4.8315,4.8315,4.8315,4.8315,4.8315,4.8315,4.8315,5.6008,5.6008,5.6008,5.6008,5.6008,5.6008,5.6008,5.6008,5.6008,5.6008,5.6008,5.6008,5.6008,5.6008,5.6008,5.6008,5.5601,5.4252,5.2569,5.1269,5.0898,5.0898,5.0898,5.0901,5.0909,5.0905,5.0873,5.0852,5.0827,5.0797,5.0766,5.0701,5.0692,5.0678,5.0688,5.0688,5.0673,5.0668,5.0688,5.0585,5.0453,5.0432,5.038,5.0256,5.0208,5.0302,5.0328,4.9936,4.9415,4.8806,4.7851,4.6574,4.5329,4.4696,4.4393,4.4367,4.4367,4.4386,4.4374,4.4367,4.4407,4.4398,4.4367,4.4644,4.4857,4.4989,4.5265,4.5609,4.5833,4.605,4.6582,4.6781,4.7066,4.7292,4.7567,4.7609,4.7392,4.6423,4.5647,4.5716,4.6078,4.6231,4.6509,4.6982,4.6911,4.6719,4.6644,4.6689,4.6784,4.6836,4.7156,4.7386,4.785,4.8195,4.8208,4.826,4.8241,4.8315,4.8315,4.8315,4.8315,4.8315,4.8315,4.8315,4.8315,4.8315,4.8315,4.8315,4.8315,4.8315,4.8315,4.8315,4.8315,4.8315,4.8315,5.6008,5.6008,5.6008,5.6008,5.6008,5.6008,5.6008,5.6008,5.6008,5.6008,5.6008,5.6008,5.6008,5.6008,5.6008,5.5969,5.5389,5.4271,5.2589,5.1405,5.0979,5.0917,5.0898,5.0894,5.0913,5.0898,5.089,5.0893,5.0897,5.0899,5.0814,5.0733,5.0701,5.0697,5.0688,5.0688,5.0688,5.0688,5.0688,5.0683,5.0644,5.0644,5.0629,5.0619,5.0609,5.0609,5.0629,5.0509,5.0298,4.9639,4.9273,4.8208,4.6872,4.5545,4.487,4.4852,4.4903,4.5054,4.5123,4.5174,4.5281,4.5179,4.5218,4.5527,4.6076,4.624,4.6493,4.6935,4.7199,4.7348,4.7603,4.7806,4.8021,4.8263,4.8431,4.8476,4.8402,4.7958,4.7669,4.7105,4.7296,4.7498,4.756,4.7819,4.7573,4.7408,4.7361,4.7377,4.7532,4.7737,4.816,4.8344,4.8729,4.8738,4.8733,4.8658,4.8614,4.8467,4.8439,4.8392,4.8382,4.8315,4.8315,4.8315,4.8315,4.8315,4.8315,4.8315,4.8315,4.8315,4.8315,4.8315,4.8315,4.8315,4.8315,5.6008,5.6008,5.6008,5.6008,5.6008,5.6008,5.6008,5.6008,5.6008,5.6008,5.6008,5.6008,5.6008,5.6008,5.6008,5.564,5.4987,5.402,5.2995,5.1892,5.1351,5.0999,5.0898,5.0898,5.0898,5.0898,5.0898,5.0913,5.0897,5.0897,5.0872,5.0823,5.0742,5.0701,5.0697,5.0693,5.0693,5.0688,5.0688,5.0688,5.0688,5.0688,5.0688,5.0688,5.0688,5.0688,5.0688,5.0688,5.063,5.0433,4.9731,4.9211,4.8409,4.6917,4.5846,4.5366,4.5644,4.5978,4.601,4.6486,4.6803,4.6885,4.6777,4.6828,4.7074,4.7175,4.7474,4.7741,4.8055,4.8297,4.8994,4.9047,4.9461,4.9875,5.0028,5.0072,5.0077,4.9843,4.9242,4.8334,4.8528,4.8777,4.8769,4.8875,4.8946,4.8941,4.8941,4.896,4.9081,4.9245,4.9492,4.9564,4.9568,4.9419,4.9229,4.9145,4.9048,4.8806,4.872,4.8604,4.8541,4.8373,4.8324,4.8411,4.8363,4.8315,4.8315,4.8315,4.8315,4.8315,4.8315,4.8315,4.8315,4.8315,4.8315,5.6008,5.6008,5.6008,5.6008,5.6008,5.6008,5.6008,5.6008,5.6008,5.6008,5.6008,5.6008,5.6008,5.6008,5.6008,5.5543,5.4851,5.4426,5.3444,5.236,5.1757,5.1269,5.0979,5.0917,5.0898,5.0898,5.0898,5.0898,5.0898,5.0901,5.0901,5.0876,5.0814,5.077,5.0706,5.0697,5.0693,5.0697,5.0688,5.0688,5.0688,5.0688,5.0688,5.0688,5.0688,5.0688,5.0688,5.0688,5.0688,5.0611,5.0298,4.9861,4.9221,4.8492,4.7414,4.6768,4.6882,4.7128,4.7133,4.754,4.7652,4.7704,4.7745,4.7966,4.8258,4.8458,4.8578,4.9062,4.9301,4.9591,5.0019,5.0034,5.0303,5.0553,5.0688,5.0688,5.0688,5.0688,5.0077,4.936,4.9637,4.9801,4.9854,5.0038,5.0328,5.0457,5.0429,5.0376,5.0348,5.03,5.0259,5.0006,4.983,4.9667,4.9498,4.9468,4.9386,4.9177,4.9029,4.8949,4.8822,4.8711,4.8614,4.8623,4.8523,4.8392,4.8315,4.8315,4.8315,4.8315,4.8315,4.8315,4.8315,4.8315,4.8315,5.6008,5.6008,5.6008,5.6008,5.6008,5.6008,5.6008,5.6008,5.6008,5.6008,5.6008,5.6008,5.6008,5.6008,5.593,5.5659,5.5026,5.4929,5.3981,5.3057,5.2302,5.1757,5.1347,5.096,5.0898,5.0898,5.0898,5.0898,5.0898,5.0913,5.0897,5.0901,5.0908,5.0851,5.0766,5.073,5.0702,5.0693,5.0693,5.0688,5.0688,5.0688,5.0688,5.0688,5.0688,5.0688,5.0688,5.0688,5.0688,5.0688,5.0592,5.0361,4.9822,4.9668,4.9317,4.874,4.8485,4.837,4.838,4.8654,4.8812,4.8832,4.8678,4.9038,4.9375,4.9624,4.987,5.0534,5.0611,5.0534,5.0534,5.0649,5.0668,5.0688,5.0688,5.0688,5.0688,5.0688,5.0688,5.0423,5.0688,5.0601,5.042,5.0384,5.0527,5.0511,5.0484,5.0457,5.0416,5.0457,5.0346,5.0063,4.987,4.9762,4.9681,4.9716,4.9606,4.9468,4.9405,4.9367,4.9245,4.9118,4.904,4.8951,4.8676,4.8532,4.8421,4.8334,4.8315,4.8315,4.8315,4.8315,4.8315,4.8315,4.8315,5.6008,5.6008,5.6008,5.6008,5.6008,5.6008,5.6008,5.6008,5.6008,5.6008,5.6008,5.6008,5.6008,5.6008,5.6008,5.593,5.5659,5.518,5.4697,5.4039,5.3037,5.2322,5.1892,5.1192,5.0999,5.0937,5.0898,5.0898,5.0898,5.0898,5.0898,5.0905,5.0901,5.0891,5.0846,5.0775,5.0696,5.0687,5.0688,5.0688,5.0688,5.0688,5.0688,5.0688,5.0688,5.0688,5.0688,5.0688,5.0688,5.0688,5.0688,5.0649,5.0553,5.0558,5.0539,5.0207,4.9784,4.9264,4.936,4.9745,5.0072,5.0034,5.0149,5.0399,5.0361,5.0399,5.0476,5.0611,5.0688,5.0688,5.0688,5.0688,5.0688,5.0688,5.0688,5.0688,5.0688,5.0688,5.0688,5.0688,5.0688,5.0688,5.0601,5.0585,5.0593,5.0558,5.0537,5.0516,5.0489,5.0505,5.0511,5.0264,5.0131,5.0025,4.9961,4.9981,4.991,4.9778,4.9784,4.9772,4.9676,4.9551,4.9442,4.928,4.8994,4.8744,4.8631,4.8514,4.8382,4.8315,4.8315,4.8315,4.8315,4.8315,4.8324,5.6107,5.6008,5.6008,5.6008,5.6008,5.6008,5.6008,5.6008,5.6008,5.6008,5.6008,5.6008,5.6008,5.6008,5.6008,5.5988,5.593,5.5601,5.52,5.4871,5.3942,5.3115,5.2283,5.1796,5.1482,5.1018,5.0898,5.0898,5.0898,5.0898,5.0898,5.0898,5.0901,5.0901,5.0908,5.0861,5.077,5.0725,5.0697,5.0688,5.0688,5.0688,5.0688,5.0688,5.0688,5.0688,5.0688,5.0688,5.0688,5.0688,5.0688,5.0688,5.0688,5.0688,5.0668,5.0649,5.038,5.0149,5.0188,5.0495,5.063,5.0688,5.0688,5.063,5.0688,5.0688,5.0688,5.0688,5.0688,5.0688,5.0688,5.0688,5.0688,5.0688,5.0688,5.0688,5.0688,5.0688,5.0688,5.0688,5.0688,5.0688,5.0688,5.0668,5.0638,5.0633,5.0599,5.0584,5.0548,5.0516,5.0527,5.0486,5.0427,5.0382,5.0317,5.0294,5.0252,5.0168,5.0197,5.0166,5.0087,4.9981,4.9859,4.9678,4.9438,4.9171,4.8924,4.864,4.8467,4.8382,4.8315,4.8316,4.8335,4.8325,4.8325,5.6197,5.6063,5.6056,5.6035,5.6008,5.6008,5.6008,5.6008,5.6008,5.6008,5.6008,5.6008,5.6008,5.6008,5.6008,5.6008,5.6008,5.6008,5.5659,5.5234,5.4774,5.4043,5.3153,5.2569,5.1834,5.1211,5.0979,5.0917,5.0898,5.0898,5.0898,5.0898,5.0894,5.0905,5.0905,5.0876,5.0838,5.0752,5.0702,5.0693,5.0688,5.0697,5.0688,5.0688,5.0688,5.0688,5.0688,5.0688,5.0688,5.0688,5.0688,5.0688,5.0688,5.0688,5.0688,5.0688,5.0572,5.0572,5.0572,5.0668,5.0688,5.0688,5.0688,5.0688,5.0688,5.0688,5.0688,5.0688,5.0688,5.0688,5.0688,5.0688,5.0688,5.0688,5.0688,5.0688,5.0688,5.0688,5.0688,5.0688,5.0688,5.0688,5.0688,5.0688,5.0683,5.0683,5.0678,5.0663,5.0628,5.0582,5.0553,5.0568,5.0542,5.0511,5.0478,5.0468,5.0478,5.0489,5.0511,5.05,5.038,5.0333,5.0262,5.0049,4.9833,4.9671,4.9449,4.8982,4.8559,4.855,4.8514,4.8392,4.8364,4.8364,4.8495,5.6284,5.6264,5.6215,5.6128,5.601,5.6008,5.6001,5.6019,5.6014,5.6022,5.6024,5.601,5.6019,5.6022,5.6032,5.6024,5.5994,5.5993,5.5917,5.5627,5.518,5.4735,5.3981,5.3134,5.2264,5.1912,5.1447,5.1076,5.0898,5.0898,5.0898,5.0898,5.0898,5.0898,5.0901,5.0892,5.0863,5.0788,5.0724,5.0716,5.0706,5.0707,5.0721,5.0693,5.0688,5.0688,5.0688,5.0688,5.0688,5.0688,5.0688,5.0688,5.0688,5.0688,5.0688,5.0688,5.0688,5.0688,5.0688,5.0688,5.0688,5.0688,5.0688,5.0688,5.0688,5.0688,5.0688,5.0688,5.0688,5.0688,5.0688,5.0688,5.0688,5.0688,5.0688,5.0688,5.0688,5.0688,5.0688,5.0688,5.0688,5.0688,5.0688,5.0688,5.0688,5.0688,5.0688,5.0673,5.0678,5.0643,5.0623,5.0599,5.0589,5.0558,5.0516,5.0511,5.0521,5.0537,5.0553,5.0588,5.0572,5.0548,5.0507,5.0416,5.022,5.0093,4.9962,4.9608,4.926,4.8917,4.873,4.8577,4.8532,4.8559,4.8799,5.6404,5.6313,5.6373,5.6305,5.6182,5.6182,5.6182,5.6163,5.6182,5.6182,5.6173,5.6182,5.6182,5.6176,5.6182,5.6182,5.6187,5.6141,5.6116,5.6029,5.5715,5.5266,5.4677,5.4058,5.3304,5.2418,5.1838,5.1331,5.0917,5.0917,5.0898,5.0898,5.0898,5.0898,5.0905,5.0905,5.0876,5.0851,5.0797,5.077,5.0766,5.0757,5.0749,5.0692,5.0692,5.0693,5.0693,5.0688,5.0688,5.0688,5.0688,5.0688,5.0688,5.0688,5.0688,5.0688,5.0688,5.0688,5.0688,5.0688,5.0688,5.0688,5.0688,5.0688,5.0688,5.0688,5.0688,5.0688,5.0688,5.0688,5.0688,5.0688,5.0688,5.0688,5.0688,5.0688,5.0688,5.0688,5.0688,5.0688,5.0688,5.0688,5.0688,5.0688,5.0688,5.0688,5.0688,5.0688,5.0688,5.0688,5.0663,5.0653,5.0643,5.0643,5.0589,5.0573,5.0568,5.0598,5.0613,5.0623,5.0658,5.0653,5.0614,5.0594,5.0554,5.041,5.0296,5.0214,4.9904,4.9375,4.8999,4.8737,4.872,4.879,4.9075,5.6502,5.6412,5.6488,5.6441,5.6299,5.631,5.631,5.631,5.6303,5.631,5.631,5.631,5.631,5.631,5.6306,5.6301,5.6278,5.625,5.6215,5.6152,5.5997,5.5679,5.5255,5.4735,5.4058,5.3037,5.2264,5.1796,5.1385,5.1057,5.0937,5.0898,5.0898,5.0898,5.0913,5.0897,5.0901,5.0888,5.0863,5.0838,5.0819,5.0801,5.0788,5.072,5.0706,5.0682,5.0693,5.0702,5.0688,5.0688,5.0688,5.0688,5.0688,5.0688,5.0688,5.0688,5.0688,5.0688,5.0688,5.0688,5.0688,5.0688,5.0688,5.0688,5.0688,5.0688,5.0688,5.0688,5.0688,5.0688,5.0688,5.0688,5.0688,5.0688,5.0688,5.0688,5.0688,5.0688,5.0688,5.0688,5.0688,5.0688,5.0688,5.0688,5.0688,5.0688,5.0688,5.0688,5.0688,5.0688,5.0683,5.0678,5.0678,5.0678,5.0683,5.0653,5.0633,5.0643,5.0653,5.0658,5.0692,5.0683,5.0688,5.0658,5.0629,5.0658,5.0584,5.044,5.0111,4.9699,4.9367,4.904,4.9232,4.9325,4.9409,5.6594,5.6614,5.6595,5.6496,5.632,5.6314,5.6303,5.6338,5.6334,5.6334,5.6338,5.6334,5.6334,5.6334,5.6351,5.6353,5.6345,5.6322,5.6274,5.6239,5.6197,5.6058,5.5761,5.5289,5.4827,5.4373,5.3437,5.2582,5.2055,5.1451,5.1119,5.0917,5.0898,5.0898,5.0898,5.0898,5.0898,5.0913,5.0897,5.0884,5.0876,5.0831,5.0814,5.0788,5.0761,5.0739,5.0682,5.0697,5.0702,5.0693,5.0688,5.0688,5.0688,5.0688,5.0688,5.0688,5.0688,5.0688,5.0688,5.0688,5.0688,5.0688,5.0688,5.0688,5.0688,5.0688,5.0688,5.0688,5.0688,5.0688,5.0688,5.0688,5.0688,5.0688,5.0688,5.0688,5.0688,5.0688,5.0688,5.0688,5.0688,5.0688,5.0688,5.0688,5.0688,5.0688,5.0688,5.0688,5.0688,5.0688,5.0688,5.0688,5.0688,5.0688,5.0688,5.0688,5.0678,5.0688,5.0688,5.0683,5.0702,5.0688,5.0688,5.0688,5.0683,5.0673,5.0658,5.0628,5.0325,5.0043,4.9671,4.9457,4.9669,4.9784,4.9803,5.6605,5.6606,5.661,5.6561,5.65,5.6497,5.6512,5.6489,5.6508,5.6504,5.6508,5.6508,5.6489,5.6508,5.6504,5.6484,5.6483,5.643,5.6397,5.6383,5.6309,5.6249,5.6064,5.5843,5.5469,5.4932,5.408,5.3181,5.2295,5.184,5.1359,5.1072,5.0898,5.0898,5.0898,5.0898,5.0898,5.0898,5.0905,5.0897,5.0897,5.0885,5.0865,5.084,5.0838,5.0784,5.071,5.0706,5.0707,5.0702,5.0693,5.0693,5.0688,5.0688,5.0688,5.0688,5.0688,5.0688,5.0688,5.0688,5.0688,5.0688,5.0688,5.0688,5.0688,5.0688,5.0688,5.0688,5.0688,5.0688,5.0688,5.0688,5.0688,5.0688,5.0688,5.0688,5.0688,5.0688,5.0688,5.0688,5.0688,5.0688,5.0688,5.0688,5.0688,5.0688,5.0688,5.0688,5.0688,5.0688,5.0688,5.0688,5.0688,5.0688,5.0688,5.0688,5.0688,5.0688,5.0688,5.0688,5.0688,5.0688,5.0688,5.0688,5.0688,5.0688,5.0673,5.0658,5.0619,5.038,5.0037,4.9799,4.9884,4.9949,4.9942,5.6616,5.6616,5.6602,5.6607,5.6609,5.6615,5.6619,5.6621,5.6621,5.6621,5.6601,5.6601,5.6601,5.6601,5.6621,5.6621,5.6582,5.6556,5.6512,5.6488,5.6415,5.6332,5.6312,5.6297,5.5954,5.5455,5.4977,5.4247,5.3424,5.2622,5.1787,5.1092,5.0921,5.0898,5.0898,5.0898,5.0898,5.0898,5.0913,5.0913,5.0894,5.0909,5.0901,5.0905,5.088,5.087,5.0784,5.0752,5.0725,5.0707,5.0693,5.0683,5.0697,5.0688,5.0688,5.0688,5.0688,5.0688,5.0688,5.0688,5.0688,5.0688,5.0688,5.0688,5.0688,5.0688,5.0688,5.0688,5.0688,5.0688,5.0688,5.0688,5.0688,5.0688,5.0688,5.0688,5.0688,5.0688,5.0688,5.0688,5.0688,5.0688,5.0688,5.0688,5.0688,5.0688,5.0688,5.0688,5.0688,5.0688,5.0688,5.0688,5.0688,5.0688,5.0688,5.0688,5.0688,5.0688,5.0688,5.0688,5.0688,5.0688,5.0688,5.0688,5.0688,5.0688,5.0688,5.0673,5.0639,5.0604,5.0451,5.0262,5.0149,5.0124,5.0156,5.6605,5.6605,5.6605,5.6612,5.6621,5.6609,5.6615,5.6619,5.6621,5.6621,5.6621,5.6621,5.6621,5.6621,5.6621,5.6621,5.6601,5.6582,5.6557,5.6523,5.6474,5.6405,5.6361,5.6347,5.6248,5.601,5.5597,5.5127,5.4766,5.3413,5.213,5.1294,5.1222,5.1095,5.1029,5.0917,5.091,5.0898,5.0898,5.0898,5.0898,5.0898,5.0894,5.0901,5.0905,5.0904,5.0855,5.0814,5.0775,5.0739,5.072,5.0692,5.0693,5.0693,5.0693,5.0688,5.0688,5.0688,5.0688,5.0688,5.0688,5.0688,5.0688,5.0688,5.0688,5.0688,5.0688,5.0688,5.0688,5.0688,5.0688,5.0688,5.0688,5.0688,5.0688,5.0688,5.0688,5.0688,5.0688,5.0688,5.0688,5.0688,5.0688,5.0688,5.0688,5.0688,5.0688,5.0688,5.0688,5.0688,5.0688,5.0688,5.0688,5.0688,5.0688,5.0688,5.0688,5.0688,5.0688,5.0688,5.0688,5.0688,5.0688,5.0688,5.0688,5.0688,5.0688,5.0688,5.0683,5.0624,5.0589,5.0548,5.038,5.0385,5.0391,5.6605,5.6605,5.6605,5.6607,5.6612,5.662,5.6609,5.6615,5.6619,5.662,5.662,5.6621,5.6621,5.6621,5.6621,5.6621,5.6621,5.6601,5.6582,5.6562,5.6562,5.6523,5.6523,5.6504,5.6504,5.6405,5.6118,5.5688,5.5034,5.3849,5.2942,5.22,5.1886,5.1587,5.122,5.094,5.0925,5.0898,5.0898,5.0898,5.0898,5.0898,5.0898,5.0913,5.0905,5.0909,5.0884,5.0876,5.0819,5.0784,5.0775,5.0752,5.0682,5.0697,5.0692,5.0693,5.0688,5.0688,5.0688,5.0688,5.0688,5.0688,5.0688,5.0688,5.0688,5.0688,5.0688,5.0688,5.0688,5.0688,5.0688,5.0688,5.0688,5.0688,5.0688,5.0688,5.0688,5.0688,5.0688,5.0688,5.0688,5.0688,5.0688,5.0688,5.0688,5.0688,5.0688,5.0688,5.0688,5.0688,5.0688,5.0688,5.0688,5.0688,5.0688,5.0688,5.0688,5.0688,5.0688,5.0688,5.0688,5.0688,5.0688,5.0688,5.0688,5.0688,5.0688,5.0688,5.0688,5.0688,5.0658,5.0638,5.0618,5.0598,5.0542,5.6605,5.6605,5.6605,5.6605,5.6606,5.6613,5.6619,5.6605,5.6614,5.6617,5.6619,5.662,5.6621,5.6621,5.6621,5.6621,5.6621,5.6621,5.6601,5.6601,5.6621,5.6601,5.6601,5.6621,5.6601,5.6582,5.6504,5.6199,5.5567,5.4816,5.3899,5.3048,5.2721,5.2172,5.1682,5.126,5.097,5.0925,5.0898,5.0898,5.0898,5.0898,5.0898,5.0898,5.0898,5.0901,5.0909,5.0905,5.088,5.0851,5.0846,5.0801,5.0742,5.0729,5.0706,5.0712,5.0697,5.0688,5.0693,5.0688,5.0688,5.0688,5.0688,5.0688,5.0688,5.0688,5.0688,5.0688,5.0688,5.0688,5.0688,5.0688,5.0688,5.0688,5.0688,5.0688,5.0688,5.0688,5.0688,5.0688,5.0688,5.0688,5.0688,5.0688,5.0688,5.0688,5.0688,5.0688,5.0688,5.0688,5.0688,5.0688,5.0688,5.0688,5.0688,5.0688,5.0688,5.0688,5.0688,5.0688,5.0688,5.0688,5.0688,5.0688,5.0688,5.0688,5.0688,5.0688,5.0688,5.0688,5.0688,5.0668,5.0658,5.0648,5.0613,5.6605,5.6605,5.6605,5.6605,5.6605,5.6605,5.6606,5.6607,5.6605,5.6613,5.6617,5.6618,5.662,5.6621,5.6621,5.6621,5.6621,5.6621,5.6621,5.6621,5.6621,5.6621,5.6621,5.6621,5.6621,5.6621,5.6582,5.6484,5.6348,5.5692,5.4842,5.3923,5.3307,5.2756,5.223,5.1689,5.132,5.0985,5.0961,5.0944,5.091,5.0898,5.0898,5.0898,5.0898,5.0898,5.0898,5.0909,5.0901,5.0897,5.0899,5.0863,5.0819,5.0793,5.0742,5.072,5.0696,5.0692,5.0693,5.0697,5.0688,5.0688,5.0688,5.0688,5.0688,5.0688,5.0688,5.0688,5.0688,5.0688,5.0688,5.0688,5.0688,5.0688,5.0688,5.0688,5.0688,5.0688,5.0688,5.0688,5.0688,5.0688,5.0688,5.0688,5.0688,5.0688,5.0688,5.0688,5.0688,5.0688,5.0688,5.0688,5.0688,5.0688,5.0688,5.0688,5.0688,5.0688,5.0688,5.0688,5.0688,5.0688,5.0688,5.0688,5.0688,5.0688,5.0688,5.0688,5.0688,5.0688,5.0688,5.0688,5.0683,5.0697,5.0663,5.6605,5.6605,5.6605,5.6605,5.6605,5.6605,5.6605,5.6605,5.661,5.6619,5.6607,5.6612,5.6615,5.6617,5.6619,5.662,5.662,5.6621,5.6621,5.6621,5.6621,5.6621,5.6621,5.6621,5.6621,5.6621,5.6621,5.6621,5.6523,5.6211,5.582,5.5009,5.4408,5.3864,5.2823,5.2261,5.1792,5.1306,5.1071,5.1007,5.094,5.0917,5.0898,5.0898,5.0898,5.0898,5.0898,5.0898,5.0913,5.0905,5.0905,5.0885,5.0868,5.0838,5.0797,5.0775,5.0729,5.0725,5.0702,5.0697,5.0697,5.0693,5.0693,5.0688,5.0688,5.0688,5.0688,5.0688,5.0688,5.0688,5.0688,5.0688,5.0688,5.0688,5.0688,5.0688,5.0688,5.0688,5.0688,5.0688,5.0688,5.0688,5.0688,5.0688,5.0688,5.0688,5.0688,5.0688,5.0688,5.0688,5.0688,5.0688,5.0688,5.0688,5.0688,5.0688,5.0688,5.0688,5.0688,5.0688,5.0688,5.0688,5.0688,5.0688,5.0688,5.0688,5.0688,5.0688,5.0688,5.0688,5.0688,5.0688,5.0688,5.0683,5.0683,5.6255,5.6585,5.6605,5.6605,5.6605,5.6605,5.6605,5.6605,5.6605,5.6608,5.6615,5.6604,5.6609,5.6611,5.6615,5.6618,5.6619,5.662,5.6621,5.6621,5.6621,5.6621,5.6621,5.6621,5.6621,5.6621,5.6621,5.6621,5.6621,5.6543,5.6191,5.5801,5.5488,5.4769,5.3606,5.3085,5.2372,5.1803,5.1405,5.1147,5.1024,5.096,5.0914,5.0898,5.0902,5.0898,5.0898,5.0898,5.0898,5.0898,5.0898,5.0913,5.0885,5.0873,5.0848,5.0827,5.0821,5.0775,5.0748,5.0716,5.0702,5.0702,5.0693,5.0693,5.0688,5.0688,5.0688,5.0688,5.0688,5.0688,5.0688,5.0688,5.0688,5.0688,5.0688,5.0688,5.0688,5.0688,5.0688,5.0688,5.0688,5.0688,5.0688,5.0688,5.0688,5.0688,5.0688,5.0688,5.0688,5.0688,5.0688,5.0688,5.0688,5.0688,5.0688,5.0688,5.0688,5.0688,5.0688,5.0688,5.0688,5.0688,5.0688,5.0688,5.0688,5.0688,5.0688,5.0688,5.0688,5.0688,5.0688,5.0688,5.0688,5.0688,5.0688,5.5825,5.6546,5.6605,5.6605,5.6605,5.6605,5.6605,5.6605,5.6605,5.6605,5.6607,5.6615,5.6604,5.6608,5.6611,5.6614,5.6617,5.6619,5.662,5.6621,5.6621,5.6621,5.6621,5.6621,5.6621,5.6621,5.6621,5.6621,5.6621,5.6582,5.6543,5.6426,5.5976,5.5349,5.4805,5.3939,5.2954,5.238,5.1902,5.1415,5.1201,5.1036,5.0976,5.094,5.091,5.0902,5.0898,5.0898,5.0898,5.0898,5.0898,5.0898,5.0913,5.0882,5.0893,5.0888,5.0887,5.0851,5.0825,5.0761,5.0739,5.072,5.0702,5.0702,5.0702,5.0693,5.0693,5.0688,5.0688,5.0688,5.0688,5.0688,5.0688,5.0688,5.0688,5.0688,5.0688,5.0688,5.0688,5.0688,5.0688,5.0688,5.0688,5.0688,5.0688,5.0688,5.0688,5.0688,5.0688,5.0688,5.0688,5.0688,5.0688,5.0688,5.0688,5.0688,5.0688,5.0688,5.0688,5.0688,5.0688,5.0688,5.0688,5.0688,5.0688,5.0688,5.0688,5.0688,5.0688,5.0688,5.0688,5.0688,5.0688,5.0688,5.0688,5.5806,5.6605,5.6605,5.6605,5.6605,5.6605,5.6605,5.6605,5.6605,5.6605,5.6606,5.6606,5.661,5.6612,5.662,5.6606,5.661,5.6615,5.6618,5.662,5.6621,5.6621,5.6621,5.6621,5.6621,5.6621,5.6621,5.6621,5.6621,5.6621,5.6601,5.6562,5.6562,5.5996,5.5293,5.4531,5.4004,5.3262,5.2547,5.2105,5.1427,5.1226,5.1102,5.1027,5.0951,5.0929,5.0898,5.0898,5.0898,5.0898,5.0898,5.0898,5.0898,5.0898,5.0909,5.0901,5.0901,5.0884,5.0855,5.0825,5.0788,5.0775,5.0743,5.0711,5.0697,5.0688,5.0688,5.0697,5.0693,5.0688,5.0688,5.0688,5.0688,5.0688,5.0688,5.0688,5.0688,5.0688,5.0688,5.0688,5.0688,5.0688,5.0688,5.0688,5.0688,5.0688,5.0688,5.0688,5.0688,5.0688,5.0688,5.0688,5.0688,5.0688,5.0688,5.0688,5.0688,5.0688,5.0688,5.0688,5.0688,5.0688,5.0688,5.0688,5.0688,5.0688,5.0688,5.0688,5.0688,5.0688,5.0688,5.0688,5.0688,5.0688,5.0688]}]]